<?xml version="1.0" encoding="utf-8"?>
<gpx xmlns:xsi="http://www.w3.org/2001/XMLSchema-instance" xmlns:xsd="http://www.w3.org/2001/XMLSchema" version="1.1" creator="Shapelink.com" xmlns="http://www.topografix.com/GPX/1/1" xmlns:gpxtpx="http://www.garmin.com/xmlschemas/TrackPointExtension/v1">
  <metadata>
    <name>Längdskidåkning 19.42 km, 2012-12-23</name>
    <desc></desc>
    <author><name>Kim Kronberg</name></author> 
    <time>1970-01-01T01:00:00Z</time>
  </metadata>
  <trk>
    <name>Längdskidåkning 19.42 km, 2012-12-23</name>
    <trkseg>
      <trkpt lat="60.481517" lon="22.262053">
        <ele>24</ele>
        <time>1970-01-01T01:00:00Z</time>
      </trkpt>
      <trkpt lat="60.481667" lon="22.262513">
        <ele>24</ele>
        <time>1970-01-01T01:00:00Z</time>
      </trkpt>
      <trkpt lat="60.481784" lon="22.262782">
        <ele>24</ele>
        <time>1970-01-01T01:00:00Z</time>
      </trkpt>
      <trkpt lat="60.481873" lon="22.262976">
        <ele>24</ele>
        <time>1970-01-01T01:00:00Z</time>
      </trkpt>
      <trkpt lat="60.482087" lon="22.263184">
        <ele>24</ele>
        <time>1970-01-01T01:00:00Z</time>
      </trkpt>
      <trkpt lat="60.482211" lon="22.263319">
        <ele>24</ele>
        <time>1970-01-01T01:00:00Z</time>
      </trkpt>
      <trkpt lat="60.482335" lon="22.263506">
        <ele>24</ele>
        <time>1970-01-01T01:00:00Z</time>
      </trkpt>
      <trkpt lat="60.482501" lon="22.263702">
        <ele>24</ele>
        <time>1970-01-01T01:00:00Z</time>
      </trkpt>
      <trkpt lat="60.48266" lon="22.263754">
        <ele>24</ele>
        <time>1970-01-01T01:00:00Z</time>
      </trkpt>
      <trkpt lat="60.482742" lon="22.263775">
        <ele>24.3636</ele>
        <time>1970-01-01T01:00:00Z</time>
      </trkpt>
      <trkpt lat="60.482923" lon="22.263689">
        <ele>24.7273</ele>
        <time>1970-01-01T01:00:00Z</time>
      </trkpt>
      <trkpt lat="60.482952" lon="22.263644">
        <ele>25.0909</ele>
        <time>1970-01-01T01:00:00Z</time>
      </trkpt>
      <trkpt lat="60.483104" lon="22.263429">
        <ele>25.4545</ele>
        <time>1970-01-01T01:00:00Z</time>
      </trkpt>
      <trkpt lat="60.483241" lon="22.263328">
        <ele>25.8182</ele>
        <time>1970-01-01T01:00:00Z</time>
      </trkpt>
      <trkpt lat="60.483427" lon="22.26322">
        <ele>26.1818</ele>
        <time>1970-01-01T01:00:00Z</time>
      </trkpt>
      <trkpt lat="60.483606" lon="22.263111">
        <ele>26.5455</ele>
        <time>1970-01-01T01:00:00Z</time>
      </trkpt>
      <trkpt lat="60.483732" lon="22.263053">
        <ele>26.9091</ele>
        <time>1970-01-01T01:00:00Z</time>
      </trkpt>
      <trkpt lat="60.483884" lon="22.262989">
        <ele>27.2727</ele>
        <time>1970-01-01T01:00:00Z</time>
      </trkpt>
      <trkpt lat="60.484007" lon="22.262946">
        <ele>27.6364</ele>
        <time>1970-01-01T01:00:00Z</time>
      </trkpt>
      <trkpt lat="60.484094" lon="22.262955">
        <ele>28</ele>
        <time>1970-01-01T01:00:00Z</time>
      </trkpt>
      <trkpt lat="60.484205" lon="22.262919">
        <ele>28</ele>
        <time>1970-01-01T01:00:00Z</time>
      </trkpt>
      <trkpt lat="60.484322" lon="22.262854">
        <ele>28</ele>
        <time>1970-01-01T01:00:00Z</time>
      </trkpt>
      <trkpt lat="60.484423" lon="22.262834">
        <ele>28</ele>
        <time>1970-01-01T01:00:00Z</time>
      </trkpt>
      <trkpt lat="60.484626" lon="22.262822">
        <ele>28</ele>
        <time>1970-01-01T01:00:00Z</time>
      </trkpt>
      <trkpt lat="60.484764" lon="22.262818">
        <ele>28</ele>
        <time>1970-01-01T01:00:00Z</time>
      </trkpt>
      <trkpt lat="60.484895" lon="22.262805">
        <ele>28</ele>
        <time>1970-01-01T01:00:00Z</time>
      </trkpt>
      <trkpt lat="60.485051" lon="22.262717">
        <ele>28</ele>
        <time>1970-01-01T01:00:00Z</time>
      </trkpt>
      <trkpt lat="60.485228" lon="22.26258">
        <ele>28</ele>
        <time>1970-01-01T01:00:00Z</time>
      </trkpt>
      <trkpt lat="60.485343" lon="22.262463">
        <ele>28</ele>
        <time>1970-01-01T01:00:00Z</time>
      </trkpt>
      <trkpt lat="60.485389" lon="22.262342">
        <ele>28</ele>
        <time>1970-01-01T01:00:00Z</time>
      </trkpt>
      <trkpt lat="60.485365" lon="22.26193">
        <ele>28</ele>
        <time>1970-01-01T01:00:00Z</time>
      </trkpt>
      <trkpt lat="60.485313" lon="22.261414">
        <ele>28</ele>
        <time>1970-01-01T01:00:00Z</time>
      </trkpt>
      <trkpt lat="60.48526" lon="22.261203">
        <ele>28</ele>
        <time>1970-01-01T01:00:00Z</time>
      </trkpt>
      <trkpt lat="60.485212" lon="22.260936">
        <ele>28</ele>
        <time>1970-01-01T01:00:00Z</time>
      </trkpt>
      <trkpt lat="60.485181" lon="22.260632">
        <ele>28</ele>
        <time>1970-01-01T01:00:00Z</time>
      </trkpt>
      <trkpt lat="60.485168" lon="22.260398">
        <ele>28</ele>
        <time>1970-01-01T01:00:00Z</time>
      </trkpt>
      <trkpt lat="60.485134" lon="22.260088">
        <ele>28</ele>
        <time>1970-01-01T01:00:00Z</time>
      </trkpt>
      <trkpt lat="60.485094" lon="22.259796">
        <ele>28</ele>
        <time>1970-01-01T01:00:00Z</time>
      </trkpt>
      <trkpt lat="60.485058" lon="22.259558">
        <ele>28.4545</ele>
        <time>1970-01-01T01:00:00Z</time>
      </trkpt>
      <trkpt lat="60.485033" lon="22.259366">
        <ele>28.9091</ele>
        <time>1970-01-01T01:00:00Z</time>
      </trkpt>
      <trkpt lat="60.485027" lon="22.259142">
        <ele>29.3636</ele>
        <time>1970-01-01T01:00:00Z</time>
      </trkpt>
      <trkpt lat="60.485032" lon="22.258901">
        <ele>29.8182</ele>
        <time>1970-01-01T01:00:00Z</time>
      </trkpt>
      <trkpt lat="60.485033" lon="22.258586">
        <ele>30.2727</ele>
        <time>1970-01-01T01:00:00Z</time>
      </trkpt>
      <trkpt lat="60.485012" lon="22.258328">
        <ele>30.7273</ele>
        <time>1970-01-01T01:00:00Z</time>
      </trkpt>
      <trkpt lat="60.484972" lon="22.258078">
        <ele>31.1818</ele>
        <time>1970-01-01T01:00:00Z</time>
      </trkpt>
      <trkpt lat="60.484929" lon="22.257849">
        <ele>31.6364</ele>
        <time>1970-01-01T01:00:00Z</time>
      </trkpt>
      <trkpt lat="60.484859" lon="22.257578">
        <ele>32.0909</ele>
        <time>1970-01-01T01:00:00Z</time>
      </trkpt>
      <trkpt lat="60.484795" lon="22.257266">
        <ele>32.5455</ele>
        <time>1970-01-01T01:00:00Z</time>
      </trkpt>
      <trkpt lat="60.484772" lon="22.257148">
        <ele>33</ele>
        <time>1970-01-01T01:00:00Z</time>
      </trkpt>
      <trkpt lat="60.484714" lon="22.256925">
        <ele>33</ele>
        <time>1970-01-01T01:00:00Z</time>
      </trkpt>
      <trkpt lat="60.484582" lon="22.256511">
        <ele>33</ele>
        <time>1970-01-01T01:00:00Z</time>
      </trkpt>
      <trkpt lat="60.484472" lon="22.256215">
        <ele>33</ele>
        <time>1970-01-01T01:00:00Z</time>
      </trkpt>
      <trkpt lat="60.484357" lon="22.255893">
        <ele>33</ele>
        <time>1970-01-01T01:00:00Z</time>
      </trkpt>
      <trkpt lat="60.484325" lon="22.255803">
        <ele>33</ele>
        <time>1970-01-01T01:00:00Z</time>
      </trkpt>
      <trkpt lat="60.484148" lon="22.255393">
        <ele>33</ele>
        <time>1970-01-01T01:00:00Z</time>
      </trkpt>
      <trkpt lat="60.483973" lon="22.255151">
        <ele>33</ele>
        <time>1970-01-01T01:00:00Z</time>
      </trkpt>
      <trkpt lat="60.483779" lon="22.254769">
        <ele>32.2727</ele>
        <time>1970-01-01T01:00:00Z</time>
      </trkpt>
      <trkpt lat="60.483703" lon="22.254365">
        <ele>31.5455</ele>
        <time>1970-01-01T01:00:00Z</time>
      </trkpt>
      <trkpt lat="60.483642" lon="22.254184">
        <ele>30.8182</ele>
        <time>1970-01-01T01:00:00Z</time>
      </trkpt>
      <trkpt lat="60.483589" lon="22.254034">
        <ele>30.0909</ele>
        <time>1970-01-01T01:00:00Z</time>
      </trkpt>
      <trkpt lat="60.483446" lon="22.254063">
        <ele>29.3636</ele>
        <time>1970-01-01T01:00:00Z</time>
      </trkpt>
      <trkpt lat="60.483314" lon="22.254263">
        <ele>28.6364</ele>
        <time>1970-01-01T01:00:00Z</time>
      </trkpt>
      <trkpt lat="60.483243" lon="22.254362">
        <ele>27.9091</ele>
        <time>1970-01-01T01:00:00Z</time>
      </trkpt>
      <trkpt lat="60.483214" lon="22.254392">
        <ele>27.1818</ele>
        <time>1970-01-01T01:00:00Z</time>
      </trkpt>
      <trkpt lat="60.483066" lon="22.254512">
        <ele>26.4545</ele>
        <time>1970-01-01T01:00:00Z</time>
      </trkpt>
      <trkpt lat="60.482872" lon="22.254585">
        <ele>25.7273</ele>
        <time>1970-01-01T01:00:00Z</time>
      </trkpt>
      <trkpt lat="60.48275" lon="22.254638">
        <ele>25</ele>
        <time>1970-01-01T01:00:00Z</time>
      </trkpt>
      <trkpt lat="60.482719" lon="22.254649">
        <ele>25</ele>
        <time>1970-01-01T01:00:00Z</time>
      </trkpt>
      <trkpt lat="60.482634" lon="22.254666">
        <ele>25</ele>
        <time>1970-01-01T01:00:00Z</time>
      </trkpt>
      <trkpt lat="60.482528" lon="22.254705">
        <ele>25</ele>
        <time>1970-01-01T01:00:00Z</time>
      </trkpt>
      <trkpt lat="60.482469" lon="22.254721">
        <ele>25</ele>
        <time>1970-01-01T01:00:00Z</time>
      </trkpt>
      <trkpt lat="60.482356" lon="22.254592">
        <ele>25</ele>
        <time>1970-01-01T01:00:00Z</time>
      </trkpt>
      <trkpt lat="60.482189" lon="22.25463">
        <ele>25</ele>
        <time>1970-01-01T01:00:00Z</time>
      </trkpt>
      <trkpt lat="60.482106" lon="22.254701">
        <ele>25</ele>
        <time>1970-01-01T01:00:00Z</time>
      </trkpt>
      <trkpt lat="60.481996" lon="22.254681">
        <ele>25</ele>
        <time>1970-01-01T01:00:00Z</time>
      </trkpt>
      <trkpt lat="60.48197" lon="22.254669">
        <ele>25</ele>
        <time>1970-01-01T01:00:00Z</time>
      </trkpt>
      <trkpt lat="60.481858" lon="22.254691">
        <ele>25</ele>
        <time>1970-01-01T01:00:00Z</time>
      </trkpt>
      <trkpt lat="60.48162" lon="22.254442">
        <ele>25</ele>
        <time>1970-01-01T01:00:00Z</time>
      </trkpt>
      <trkpt lat="60.481567" lon="22.254345">
        <ele>25</ele>
        <time>1970-01-01T01:00:00Z</time>
      </trkpt>
      <trkpt lat="60.481468" lon="22.254141">
        <ele>25</ele>
        <time>1970-01-01T01:00:00Z</time>
      </trkpt>
      <trkpt lat="60.481383" lon="22.253668">
        <ele>25</ele>
        <time>1970-01-01T01:00:00Z</time>
      </trkpt>
      <trkpt lat="60.48143" lon="22.253289">
        <ele>25</ele>
        <time>1970-01-01T01:00:00Z</time>
      </trkpt>
      <trkpt lat="60.481539" lon="22.252997">
        <ele>25</ele>
        <time>1970-01-01T01:00:00Z</time>
      </trkpt>
      <trkpt lat="60.48167" lon="22.252725">
        <ele>25</ele>
        <time>1970-01-01T01:00:00Z</time>
      </trkpt>
      <trkpt lat="60.481758" lon="22.252391">
        <ele>25</ele>
        <time>1970-01-01T01:00:00Z</time>
      </trkpt>
      <trkpt lat="60.481892" lon="22.252306">
        <ele>25</ele>
        <time>1970-01-01T01:00:00Z</time>
      </trkpt>
      <trkpt lat="60.482061" lon="22.252361">
        <ele>25</ele>
        <time>1970-01-01T01:00:00Z</time>
      </trkpt>
      <trkpt lat="60.482289" lon="22.252226">
        <ele>25</ele>
        <time>1970-01-01T01:00:00Z</time>
      </trkpt>
      <trkpt lat="60.482368" lon="22.252164">
        <ele>25</ele>
        <time>1970-01-01T01:00:00Z</time>
      </trkpt>
      <trkpt lat="60.482431" lon="22.252093">
        <ele>25</ele>
        <time>1970-01-01T01:00:00Z</time>
      </trkpt>
      <trkpt lat="60.482583" lon="22.251983">
        <ele>25</ele>
        <time>1970-01-01T01:00:00Z</time>
      </trkpt>
      <trkpt lat="60.482669" lon="22.252151">
        <ele>25</ele>
        <time>1970-01-01T01:00:00Z</time>
      </trkpt>
      <trkpt lat="60.482699" lon="22.252286">
        <ele>25</ele>
        <time>1970-01-01T01:00:00Z</time>
      </trkpt>
      <trkpt lat="60.482803" lon="22.252586">
        <ele>25.7273</ele>
        <time>1970-01-01T01:00:00Z</time>
      </trkpt>
      <trkpt lat="60.482902" lon="22.252723">
        <ele>26.4545</ele>
        <time>1970-01-01T01:00:00Z</time>
      </trkpt>
      <trkpt lat="60.483042" lon="22.252797">
        <ele>27.1818</ele>
        <time>1970-01-01T01:00:00Z</time>
      </trkpt>
      <trkpt lat="60.483193" lon="22.252751">
        <ele>27.9091</ele>
        <time>1970-01-01T01:00:00Z</time>
      </trkpt>
      <trkpt lat="60.48329" lon="22.252701">
        <ele>28.6364</ele>
        <time>1970-01-01T01:00:00Z</time>
      </trkpt>
      <trkpt lat="60.483473" lon="22.252417">
        <ele>29.3636</ele>
        <time>1970-01-01T01:00:00Z</time>
      </trkpt>
      <trkpt lat="60.483566" lon="22.252288">
        <ele>30.0909</ele>
        <time>1970-01-01T01:00:00Z</time>
      </trkpt>
      <trkpt lat="60.483598" lon="22.252224">
        <ele>30.0909</ele>
        <time>1970-01-01T01:00:00Z</time>
      </trkpt>
      <trkpt lat="60.483648" lon="22.251858">
        <ele>30.0909</ele>
        <time>1970-01-01T01:00:00Z</time>
      </trkpt>
      <trkpt lat="60.483592" lon="22.251602">
        <ele>30.0909</ele>
        <time>1970-01-01T01:00:00Z</time>
      </trkpt>
      <trkpt lat="60.483487" lon="22.251399">
        <ele>30.0909</ele>
        <time>1970-01-01T01:00:00Z</time>
      </trkpt>
      <trkpt lat="60.483361" lon="22.251312">
        <ele>29.3636</ele>
        <time>1970-01-01T01:00:00Z</time>
      </trkpt>
      <trkpt lat="60.483207" lon="22.251369">
        <ele>28.6364</ele>
        <time>1970-01-01T01:00:00Z</time>
      </trkpt>
      <trkpt lat="60.483071" lon="22.251547">
        <ele>27.9091</ele>
        <time>1970-01-01T01:00:00Z</time>
      </trkpt>
      <trkpt lat="60.482998" lon="22.251637">
        <ele>27.1818</ele>
        <time>1970-01-01T01:00:00Z</time>
      </trkpt>
      <trkpt lat="60.482877" lon="22.251786">
        <ele>26.4545</ele>
        <time>1970-01-01T01:00:00Z</time>
      </trkpt>
      <trkpt lat="60.482816" lon="22.25185">
        <ele>25.7273</ele>
        <time>1970-01-01T01:00:00Z</time>
      </trkpt>
      <trkpt lat="60.482664" lon="22.252015">
        <ele>25</ele>
        <time>1970-01-01T01:00:00Z</time>
      </trkpt>
      <trkpt lat="60.482569" lon="22.252028">
        <ele>25</ele>
        <time>1970-01-01T01:00:00Z</time>
      </trkpt>
      <trkpt lat="60.482442" lon="22.252064">
        <ele>25</ele>
        <time>1970-01-01T01:00:00Z</time>
      </trkpt>
      <trkpt lat="60.482301" lon="22.25231">
        <ele>25</ele>
        <time>1970-01-01T01:00:00Z</time>
      </trkpt>
      <trkpt lat="60.482216" lon="22.252379">
        <ele>25</ele>
        <time>1970-01-01T01:00:00Z</time>
      </trkpt>
      <trkpt lat="60.482143" lon="22.252365">
        <ele>25</ele>
        <time>1970-01-01T01:00:00Z</time>
      </trkpt>
      <trkpt lat="60.4821" lon="22.252176">
        <ele>25</ele>
        <time>1970-01-01T01:00:00Z</time>
      </trkpt>
      <trkpt lat="60.482123" lon="22.252151">
        <ele>25</ele>
        <time>1970-01-01T01:00:00Z</time>
      </trkpt>
      <trkpt lat="60.482298" lon="22.252058">
        <ele>25</ele>
        <time>1970-01-01T01:00:00Z</time>
      </trkpt>
      <trkpt lat="60.482444" lon="22.25189">
        <ele>25</ele>
        <time>1970-01-01T01:00:00Z</time>
      </trkpt>
      <trkpt lat="60.482507" lon="22.251657">
        <ele>25</ele>
        <time>1970-01-01T01:00:00Z</time>
      </trkpt>
      <trkpt lat="60.482572" lon="22.251442">
        <ele>25</ele>
        <time>1970-01-01T01:00:00Z</time>
      </trkpt>
      <trkpt lat="60.482636" lon="22.251258">
        <ele>25</ele>
        <time>1970-01-01T01:00:00Z</time>
      </trkpt>
      <trkpt lat="60.482757" lon="22.250994">
        <ele>25.8182</ele>
        <time>1970-01-01T01:00:00Z</time>
      </trkpt>
      <trkpt lat="60.482897" lon="22.250631">
        <ele>26.6364</ele>
        <time>1970-01-01T01:00:00Z</time>
      </trkpt>
      <trkpt lat="60.482927" lon="22.250402">
        <ele>27.4545</ele>
        <time>1970-01-01T01:00:00Z</time>
      </trkpt>
      <trkpt lat="60.482938" lon="22.250207">
        <ele>28.2727</ele>
        <time>1970-01-01T01:00:00Z</time>
      </trkpt>
      <trkpt lat="60.482947" lon="22.250109">
        <ele>29.8182</ele>
        <time>1970-01-01T01:00:00Z</time>
      </trkpt>
      <trkpt lat="60.483006" lon="22.249954">
        <ele>31.3636</ele>
        <time>1970-01-01T01:00:00Z</time>
      </trkpt>
      <trkpt lat="60.483105" lon="22.249794">
        <ele>32.9091</ele>
        <time>1970-01-01T01:00:00Z</time>
      </trkpt>
      <trkpt lat="60.483196" lon="22.249627">
        <ele>34.4545</ele>
        <time>1970-01-01T01:00:00Z</time>
      </trkpt>
      <trkpt lat="60.483294" lon="22.249411">
        <ele>36</ele>
        <time>1970-01-01T01:00:00Z</time>
      </trkpt>
      <trkpt lat="60.483343" lon="22.249245">
        <ele>37.5455</ele>
        <time>1970-01-01T01:00:00Z</time>
      </trkpt>
      <trkpt lat="60.48346" lon="22.249035">
        <ele>39.0909</ele>
        <time>1970-01-01T01:00:00Z</time>
      </trkpt>
      <trkpt lat="60.483591" lon="22.248861">
        <ele>39.8182</ele>
        <time>1970-01-01T01:00:00Z</time>
      </trkpt>
      <trkpt lat="60.483748" lon="22.24889">
        <ele>40.5455</ele>
        <time>1970-01-01T01:00:00Z</time>
      </trkpt>
      <trkpt lat="60.483897" lon="22.249027">
        <ele>41.2727</ele>
        <time>1970-01-01T01:00:00Z</time>
      </trkpt>
      <trkpt lat="60.484038" lon="22.249043">
        <ele>42</ele>
        <time>1970-01-01T01:00:00Z</time>
      </trkpt>
      <trkpt lat="60.484164" lon="22.248979">
        <ele>42</ele>
        <time>1970-01-01T01:00:00Z</time>
      </trkpt>
      <trkpt lat="60.484244" lon="22.248933">
        <ele>42</ele>
        <time>1970-01-01T01:00:00Z</time>
      </trkpt>
      <trkpt lat="60.484327" lon="22.248857">
        <ele>42</ele>
        <time>1970-01-01T01:00:00Z</time>
      </trkpt>
      <trkpt lat="60.484521" lon="22.248779">
        <ele>42</ele>
        <time>1970-01-01T01:00:00Z</time>
      </trkpt>
      <trkpt lat="60.484715" lon="22.248875">
        <ele>42</ele>
        <time>1970-01-01T01:00:00Z</time>
      </trkpt>
      <trkpt lat="60.48476" lon="22.248904">
        <ele>42</ele>
        <time>1970-01-01T01:00:00Z</time>
      </trkpt>
      <trkpt lat="60.484896" lon="22.249002">
        <ele>42</ele>
        <time>1970-01-01T01:00:00Z</time>
      </trkpt>
      <trkpt lat="60.485057" lon="22.24909">
        <ele>42</ele>
        <time>1970-01-01T01:00:00Z</time>
      </trkpt>
      <trkpt lat="60.48519" lon="22.249046">
        <ele>42</ele>
        <time>1970-01-01T01:00:00Z</time>
      </trkpt>
      <trkpt lat="60.485262" lon="22.248965">
        <ele>42</ele>
        <time>1970-01-01T01:00:00Z</time>
      </trkpt>
      <trkpt lat="60.485394" lon="22.248776">
        <ele>42</ele>
        <time>1970-01-01T01:00:00Z</time>
      </trkpt>
      <trkpt lat="60.485508" lon="22.248634">
        <ele>42</ele>
        <time>1970-01-01T01:00:00Z</time>
      </trkpt>
      <trkpt lat="60.485602" lon="22.248502">
        <ele>42</ele>
        <time>1970-01-01T01:00:00Z</time>
      </trkpt>
      <trkpt lat="60.485688" lon="22.248459">
        <ele>42</ele>
        <time>1970-01-01T01:00:00Z</time>
      </trkpt>
      <trkpt lat="60.485726" lon="22.248448">
        <ele>42</ele>
        <time>1970-01-01T01:00:00Z</time>
      </trkpt>
      <trkpt lat="60.485834" lon="22.248473">
        <ele>42</ele>
        <time>1970-01-01T01:00:00Z</time>
      </trkpt>
      <trkpt lat="60.485949" lon="22.248552">
        <ele>42</ele>
        <time>1970-01-01T01:00:00Z</time>
      </trkpt>
      <trkpt lat="60.486046" lon="22.248634">
        <ele>42</ele>
        <time>1970-01-01T01:00:00Z</time>
      </trkpt>
      <trkpt lat="60.486119" lon="22.248703">
        <ele>42</ele>
        <time>1970-01-01T01:00:00Z</time>
      </trkpt>
      <trkpt lat="60.486201" lon="22.248796">
        <ele>42</ele>
        <time>1970-01-01T01:00:00Z</time>
      </trkpt>
      <trkpt lat="60.486363" lon="22.248921">
        <ele>42</ele>
        <time>1970-01-01T01:00:00Z</time>
      </trkpt>
      <trkpt lat="60.486464" lon="22.249016">
        <ele>42</ele>
        <time>1970-01-01T01:00:00Z</time>
      </trkpt>
      <trkpt lat="60.486521" lon="22.249053">
        <ele>42</ele>
        <time>1970-01-01T01:00:00Z</time>
      </trkpt>
      <trkpt lat="60.486595" lon="22.24911">
        <ele>42</ele>
        <time>1970-01-01T01:00:00Z</time>
      </trkpt>
      <trkpt lat="60.486634" lon="22.24915">
        <ele>42</ele>
        <time>1970-01-01T01:00:00Z</time>
      </trkpt>
      <trkpt lat="60.486667" lon="22.249215">
        <ele>42</ele>
        <time>1970-01-01T01:00:00Z</time>
      </trkpt>
      <trkpt lat="60.486823" lon="22.249346">
        <ele>42</ele>
        <time>1970-01-01T01:00:00Z</time>
      </trkpt>
      <trkpt lat="60.486903" lon="22.249389">
        <ele>42</ele>
        <time>1970-01-01T01:00:00Z</time>
      </trkpt>
      <trkpt lat="60.487026" lon="22.249381">
        <ele>42</ele>
        <time>1970-01-01T01:00:00Z</time>
      </trkpt>
      <trkpt lat="60.487146" lon="22.249323">
        <ele>42</ele>
        <time>1970-01-01T01:00:00Z</time>
      </trkpt>
      <trkpt lat="60.487255" lon="22.249301">
        <ele>42</ele>
        <time>1970-01-01T01:00:00Z</time>
      </trkpt>
      <trkpt lat="60.487284" lon="22.24929">
        <ele>42</ele>
        <time>1970-01-01T01:00:00Z</time>
      </trkpt>
      <trkpt lat="60.487434" lon="22.249278">
        <ele>42</ele>
        <time>1970-01-01T01:00:00Z</time>
      </trkpt>
      <trkpt lat="60.487625" lon="22.249415">
        <ele>42</ele>
        <time>1970-01-01T01:00:00Z</time>
      </trkpt>
      <trkpt lat="60.487766" lon="22.249564">
        <ele>41.1818</ele>
        <time>1970-01-01T01:00:00Z</time>
      </trkpt>
      <trkpt lat="60.487881" lon="22.24968">
        <ele>40.3636</ele>
        <time>1970-01-01T01:00:00Z</time>
      </trkpt>
      <trkpt lat="60.488067" lon="22.249807">
        <ele>39.5455</ele>
        <time>1970-01-01T01:00:00Z</time>
      </trkpt>
      <trkpt lat="60.488191" lon="22.249927">
        <ele>38.7273</ele>
        <time>1970-01-01T01:00:00Z</time>
      </trkpt>
      <trkpt lat="60.4883" lon="22.250042">
        <ele>37.9091</ele>
        <time>1970-01-01T01:00:00Z</time>
      </trkpt>
      <trkpt lat="60.488479" lon="22.250254">
        <ele>37.9091</ele>
        <time>1970-01-01T01:00:00Z</time>
      </trkpt>
      <trkpt lat="60.488697" lon="22.25048">
        <ele>37.9091</ele>
        <time>1970-01-01T01:00:00Z</time>
      </trkpt>
      <trkpt lat="60.489017" lon="22.250402">
        <ele>37.9091</ele>
        <time>1970-01-01T01:00:00Z</time>
      </trkpt>
      <trkpt lat="60.489315" lon="22.250135">
        <ele>37.9091</ele>
        <time>1970-01-01T01:00:00Z</time>
      </trkpt>
      <trkpt lat="60.489409" lon="22.250087">
        <ele>37.9091</ele>
        <time>1970-01-01T01:00:00Z</time>
      </trkpt>
      <trkpt lat="60.48969" lon="22.250044">
        <ele>37.9091</ele>
        <time>1970-01-01T01:00:00Z</time>
      </trkpt>
      <trkpt lat="60.489834" lon="22.249847">
        <ele>38.7273</ele>
        <time>1970-01-01T01:00:00Z</time>
      </trkpt>
      <trkpt lat="60.489864" lon="22.249775">
        <ele>39.5455</ele>
        <time>1970-01-01T01:00:00Z</time>
      </trkpt>
      <trkpt lat="60.490025" lon="22.249446">
        <ele>40.3636</ele>
        <time>1970-01-01T01:00:00Z</time>
      </trkpt>
      <trkpt lat="60.490049" lon="22.249405">
        <ele>41.1818</ele>
        <time>1970-01-01T01:00:00Z</time>
      </trkpt>
      <trkpt lat="60.490162" lon="22.249228">
        <ele>42</ele>
        <time>1970-01-01T01:00:00Z</time>
      </trkpt>
      <trkpt lat="60.49026" lon="22.24908">
        <ele>42</ele>
        <time>1970-01-01T01:00:00Z</time>
      </trkpt>
      <trkpt lat="60.490337" lon="22.248986">
        <ele>42</ele>
        <time>1970-01-01T01:00:00Z</time>
      </trkpt>
      <trkpt lat="60.49043" lon="22.248931">
        <ele>42</ele>
        <time>1970-01-01T01:00:00Z</time>
      </trkpt>
      <trkpt lat="60.490589" lon="22.248905">
        <ele>42</ele>
        <time>1970-01-01T01:00:00Z</time>
      </trkpt>
      <trkpt lat="60.490659" lon="22.248863">
        <ele>42</ele>
        <time>1970-01-01T01:00:00Z</time>
      </trkpt>
      <trkpt lat="60.490777" lon="22.248842">
        <ele>42.0909</ele>
        <time>1970-01-01T01:00:00Z</time>
      </trkpt>
      <trkpt lat="60.490907" lon="22.248765">
        <ele>42.1818</ele>
        <time>1970-01-01T01:00:00Z</time>
      </trkpt>
      <trkpt lat="60.491124" lon="22.248704">
        <ele>42.2727</ele>
        <time>1970-01-01T01:00:00Z</time>
      </trkpt>
      <trkpt lat="60.491171" lon="22.248665">
        <ele>42.3636</ele>
        <time>1970-01-01T01:00:00Z</time>
      </trkpt>
      <trkpt lat="60.491457" lon="22.248219">
        <ele>42.4545</ele>
        <time>1970-01-01T01:00:00Z</time>
      </trkpt>
      <trkpt lat="60.491715" lon="22.247435">
        <ele>42.5455</ele>
        <time>1970-01-01T01:00:00Z</time>
      </trkpt>
      <trkpt lat="60.491852" lon="22.246994">
        <ele>42.6364</ele>
        <time>1970-01-01T01:00:00Z</time>
      </trkpt>
      <trkpt lat="60.491965" lon="22.246769">
        <ele>42.7273</ele>
        <time>1970-01-01T01:00:00Z</time>
      </trkpt>
      <trkpt lat="60.492114" lon="22.246061">
        <ele>42.8182</ele>
        <time>1970-01-01T01:00:00Z</time>
      </trkpt>
      <trkpt lat="60.492154" lon="22.245776">
        <ele>42.9091</ele>
        <time>1970-01-01T01:00:00Z</time>
      </trkpt>
      <trkpt lat="60.492131" lon="22.245168">
        <ele>43</ele>
        <time>1970-01-01T01:00:00Z</time>
      </trkpt>
      <trkpt lat="60.492115" lon="22.245069">
        <ele>43</ele>
        <time>1970-01-01T01:00:00Z</time>
      </trkpt>
      <trkpt lat="60.492051" lon="22.244803">
        <ele>43</ele>
        <time>1970-01-01T01:00:00Z</time>
      </trkpt>
      <trkpt lat="60.491968" lon="22.244584">
        <ele>43</ele>
        <time>1970-01-01T01:00:00Z</time>
      </trkpt>
      <trkpt lat="60.491921" lon="22.24442">
        <ele>43</ele>
        <time>1970-01-01T01:00:00Z</time>
      </trkpt>
      <trkpt lat="60.491891" lon="22.244071">
        <ele>43</ele>
        <time>1970-01-01T01:00:00Z</time>
      </trkpt>
      <trkpt lat="60.491885" lon="22.243884">
        <ele>43</ele>
        <time>1970-01-01T01:00:00Z</time>
      </trkpt>
      <trkpt lat="60.49189" lon="22.243721">
        <ele>43</ele>
        <time>1970-01-01T01:00:00Z</time>
      </trkpt>
      <trkpt lat="60.491898" lon="22.243503">
        <ele>42.9091</ele>
        <time>1970-01-01T01:00:00Z</time>
      </trkpt>
      <trkpt lat="60.491981" lon="22.24295">
        <ele>42.8182</ele>
        <time>1970-01-01T01:00:00Z</time>
      </trkpt>
      <trkpt lat="60.491889" lon="22.242658">
        <ele>43.3636</ele>
        <time>1970-01-01T01:00:00Z</time>
      </trkpt>
      <trkpt lat="60.491779" lon="22.242478">
        <ele>43.9091</ele>
        <time>1970-01-01T01:00:00Z</time>
      </trkpt>
      <trkpt lat="60.491717" lon="22.242399">
        <ele>44.4545</ele>
        <time>1970-01-01T01:00:00Z</time>
      </trkpt>
      <trkpt lat="60.491562" lon="22.242123">
        <ele>45</ele>
        <time>1970-01-01T01:00:00Z</time>
      </trkpt>
      <trkpt lat="60.491443" lon="22.241737">
        <ele>45.5455</ele>
        <time>1970-01-01T01:00:00Z</time>
      </trkpt>
      <trkpt lat="60.491367" lon="22.241598">
        <ele>46.0909</ele>
        <time>1970-01-01T01:00:00Z</time>
      </trkpt>
      <trkpt lat="60.491194" lon="22.241313">
        <ele>46.6364</ele>
        <time>1970-01-01T01:00:00Z</time>
      </trkpt>
      <trkpt lat="60.49117" lon="22.241242">
        <ele>47.1818</ele>
        <time>1970-01-01T01:00:00Z</time>
      </trkpt>
      <trkpt lat="60.491141" lon="22.241169">
        <ele>47.7273</ele>
        <time>1970-01-01T01:00:00Z</time>
      </trkpt>
      <trkpt lat="60.491035" lon="22.240919">
        <ele>48.3636</ele>
        <time>1970-01-01T01:00:00Z</time>
      </trkpt>
      <trkpt lat="60.490963" lon="22.240788">
        <ele>49</ele>
        <time>1970-01-01T01:00:00Z</time>
      </trkpt>
      <trkpt lat="60.490887" lon="22.240628">
        <ele>49</ele>
        <time>1970-01-01T01:00:00Z</time>
      </trkpt>
      <trkpt lat="60.490785" lon="22.24035">
        <ele>49</ele>
        <time>1970-01-01T01:00:00Z</time>
      </trkpt>
      <trkpt lat="60.490697" lon="22.240055">
        <ele>49</ele>
        <time>1970-01-01T01:00:00Z</time>
      </trkpt>
      <trkpt lat="60.490631" lon="22.239875">
        <ele>49</ele>
        <time>1970-01-01T01:00:00Z</time>
      </trkpt>
      <trkpt lat="60.490522" lon="22.239508">
        <ele>49</ele>
        <time>1970-01-01T01:00:00Z</time>
      </trkpt>
      <trkpt lat="60.490493" lon="22.239418">
        <ele>49</ele>
        <time>1970-01-01T01:00:00Z</time>
      </trkpt>
      <trkpt lat="60.490428" lon="22.239161">
        <ele>49</ele>
        <time>1970-01-01T01:00:00Z</time>
      </trkpt>
      <trkpt lat="60.490363" lon="22.238923">
        <ele>49</ele>
        <time>1970-01-01T01:00:00Z</time>
      </trkpt>
      <trkpt lat="60.490292" lon="22.238583">
        <ele>49</ele>
        <time>1970-01-01T01:00:00Z</time>
      </trkpt>
      <trkpt lat="60.490247" lon="22.238307">
        <ele>49</ele>
        <time>1970-01-01T01:00:00Z</time>
      </trkpt>
      <trkpt lat="60.490235" lon="22.238221">
        <ele>49</ele>
        <time>1970-01-01T01:00:00Z</time>
      </trkpt>
      <trkpt lat="60.490208" lon="22.237747">
        <ele>49</ele>
        <time>1970-01-01T01:00:00Z</time>
      </trkpt>
      <trkpt lat="60.490204" lon="22.237655">
        <ele>49</ele>
        <time>1970-01-01T01:00:00Z</time>
      </trkpt>
      <trkpt lat="60.490173" lon="22.237409">
        <ele>49</ele>
        <time>1970-01-01T01:00:00Z</time>
      </trkpt>
      <trkpt lat="60.49012" lon="22.23701">
        <ele>49</ele>
        <time>1970-01-01T01:00:00Z</time>
      </trkpt>
      <trkpt lat="60.490068" lon="22.236607">
        <ele>49</ele>
        <time>1970-01-01T01:00:00Z</time>
      </trkpt>
      <trkpt lat="60.490052" lon="22.236529">
        <ele>49</ele>
        <time>1970-01-01T01:00:00Z</time>
      </trkpt>
      <trkpt lat="60.489991" lon="22.236213">
        <ele>49</ele>
        <time>1970-01-01T01:00:00Z</time>
      </trkpt>
      <trkpt lat="60.489928" lon="22.235823">
        <ele>49</ele>
        <time>1970-01-01T01:00:00Z</time>
      </trkpt>
      <trkpt lat="60.489855" lon="22.235545">
        <ele>49</ele>
        <time>1970-01-01T01:00:00Z</time>
      </trkpt>
      <trkpt lat="60.489825" lon="22.235468">
        <ele>49</ele>
        <time>1970-01-01T01:00:00Z</time>
      </trkpt>
      <trkpt lat="60.489713" lon="22.235118">
        <ele>49</ele>
        <time>1970-01-01T01:00:00Z</time>
      </trkpt>
      <trkpt lat="60.489706" lon="22.235052">
        <ele>49</ele>
        <time>1970-01-01T01:00:00Z</time>
      </trkpt>
      <trkpt lat="60.489694" lon="22.234834">
        <ele>49</ele>
        <time>1970-01-01T01:00:00Z</time>
      </trkpt>
      <trkpt lat="60.489662" lon="22.234576">
        <ele>47.8182</ele>
        <time>1970-01-01T01:00:00Z</time>
      </trkpt>
      <trkpt lat="60.489652" lon="22.234396">
        <ele>46.6364</ele>
        <time>1970-01-01T01:00:00Z</time>
      </trkpt>
      <trkpt lat="60.489579" lon="22.234167">
        <ele>45.4545</ele>
        <time>1970-01-01T01:00:00Z</time>
      </trkpt>
      <trkpt lat="60.48949" lon="22.233864">
        <ele>44.2727</ele>
        <time>1970-01-01T01:00:00Z</time>
      </trkpt>
      <trkpt lat="60.489452" lon="22.233541">
        <ele>43.0909</ele>
        <time>1970-01-01T01:00:00Z</time>
      </trkpt>
      <trkpt lat="60.489441" lon="22.233052">
        <ele>41.9091</ele>
        <time>1970-01-01T01:00:00Z</time>
      </trkpt>
      <trkpt lat="60.489511" lon="22.232585">
        <ele>40.7273</ele>
        <time>1970-01-01T01:00:00Z</time>
      </trkpt>
      <trkpt lat="60.489542" lon="22.232181">
        <ele>39.5455</ele>
        <time>1970-01-01T01:00:00Z</time>
      </trkpt>
      <trkpt lat="60.489505" lon="22.232038">
        <ele>38.3636</ele>
        <time>1970-01-01T01:00:00Z</time>
      </trkpt>
      <trkpt lat="60.489434" lon="22.231685">
        <ele>37.1818</ele>
        <time>1970-01-01T01:00:00Z</time>
      </trkpt>
      <trkpt lat="60.489378" lon="22.231372">
        <ele>36</ele>
        <time>1970-01-01T01:00:00Z</time>
      </trkpt>
      <trkpt lat="60.489331" lon="22.231258">
        <ele>36</ele>
        <time>1970-01-01T01:00:00Z</time>
      </trkpt>
      <trkpt lat="60.489092" lon="22.230986">
        <ele>36</ele>
        <time>1970-01-01T01:00:00Z</time>
      </trkpt>
      <trkpt lat="60.488901" lon="22.230792">
        <ele>36</ele>
        <time>1970-01-01T01:00:00Z</time>
      </trkpt>
      <trkpt lat="60.488845" lon="22.23071">
        <ele>36</ele>
        <time>1970-01-01T01:00:00Z</time>
      </trkpt>
      <trkpt lat="60.48862" lon="22.230369">
        <ele>36</ele>
        <time>1970-01-01T01:00:00Z</time>
      </trkpt>
      <trkpt lat="60.488523" lon="22.230178">
        <ele>36</ele>
        <time>1970-01-01T01:00:00Z</time>
      </trkpt>
      <trkpt lat="60.488469" lon="22.230027">
        <ele>36</ele>
        <time>1970-01-01T01:00:00Z</time>
      </trkpt>
      <trkpt lat="60.488436" lon="22.229706">
        <ele>36</ele>
        <time>1970-01-01T01:00:00Z</time>
      </trkpt>
      <trkpt lat="60.488496" lon="22.229512">
        <ele>36</ele>
        <time>1970-01-01T01:00:00Z</time>
      </trkpt>
      <trkpt lat="60.488553" lon="22.229092">
        <ele>36</ele>
        <time>1970-01-01T01:00:00Z</time>
      </trkpt>
      <trkpt lat="60.488486" lon="22.228767">
        <ele>36</ele>
        <time>1970-01-01T01:00:00Z</time>
      </trkpt>
      <trkpt lat="60.488442" lon="22.228632">
        <ele>36</ele>
        <time>1970-01-01T01:00:00Z</time>
      </trkpt>
      <trkpt lat="60.488413" lon="22.228469">
        <ele>36</ele>
        <time>1970-01-01T01:00:00Z</time>
      </trkpt>
      <trkpt lat="60.488303" lon="22.228149">
        <ele>36</ele>
        <time>1970-01-01T01:00:00Z</time>
      </trkpt>
      <trkpt lat="60.488203" lon="22.228012">
        <ele>36</ele>
        <time>1970-01-01T01:00:00Z</time>
      </trkpt>
      <trkpt lat="60.48818" lon="22.227912">
        <ele>36</ele>
        <time>1970-01-01T01:00:00Z</time>
      </trkpt>
      <trkpt lat="60.488155" lon="22.22768">
        <ele>36</ele>
        <time>1970-01-01T01:00:00Z</time>
      </trkpt>
      <trkpt lat="60.488111" lon="22.227354">
        <ele>36</ele>
        <time>1970-01-01T01:00:00Z</time>
      </trkpt>
      <trkpt lat="60.488074" lon="22.227216">
        <ele>36</ele>
        <time>1970-01-01T01:00:00Z</time>
      </trkpt>
      <trkpt lat="60.487993" lon="22.227068">
        <ele>36</ele>
        <time>1970-01-01T01:00:00Z</time>
      </trkpt>
      <trkpt lat="60.487932" lon="22.226955">
        <ele>36</ele>
        <time>1970-01-01T01:00:00Z</time>
      </trkpt>
      <trkpt lat="60.487865" lon="22.226818">
        <ele>36</ele>
        <time>1970-01-01T01:00:00Z</time>
      </trkpt>
      <trkpt lat="60.487748" lon="22.226429">
        <ele>36</ele>
        <time>1970-01-01T01:00:00Z</time>
      </trkpt>
      <trkpt lat="60.487716" lon="22.226259">
        <ele>34</ele>
        <time>1970-01-01T01:00:00Z</time>
      </trkpt>
      <trkpt lat="60.487603" lon="22.225852">
        <ele>32</ele>
        <time>1970-01-01T01:00:00Z</time>
      </trkpt>
      <trkpt lat="60.48754" lon="22.225619">
        <ele>30</ele>
        <time>1970-01-01T01:00:00Z</time>
      </trkpt>
      <trkpt lat="60.487418" lon="22.225321">
        <ele>28</ele>
        <time>1970-01-01T01:00:00Z</time>
      </trkpt>
      <trkpt lat="60.487341" lon="22.22519">
        <ele>26</ele>
        <time>1970-01-01T01:00:00Z</time>
      </trkpt>
      <trkpt lat="60.487207" lon="22.224974">
        <ele>24</ele>
        <time>1970-01-01T01:00:00Z</time>
      </trkpt>
      <trkpt lat="60.48712" lon="22.224838">
        <ele>22</ele>
        <time>1970-01-01T01:00:00Z</time>
      </trkpt>
      <trkpt lat="60.487006" lon="22.224567">
        <ele>20</ele>
        <time>1970-01-01T01:00:00Z</time>
      </trkpt>
      <trkpt lat="60.486978" lon="22.224353">
        <ele>18</ele>
        <time>1970-01-01T01:00:00Z</time>
      </trkpt>
      <trkpt lat="60.486891" lon="22.22411">
        <ele>16</ele>
        <time>1970-01-01T01:00:00Z</time>
      </trkpt>
      <trkpt lat="60.486791" lon="22.223829">
        <ele>14</ele>
        <time>1970-01-01T01:00:00Z</time>
      </trkpt>
      <trkpt lat="60.486712" lon="22.223637">
        <ele>14</ele>
        <time>1970-01-01T01:00:00Z</time>
      </trkpt>
      <trkpt lat="60.48663" lon="22.223433">
        <ele>14</ele>
        <time>1970-01-01T01:00:00Z</time>
      </trkpt>
      <trkpt lat="60.486542" lon="22.223245">
        <ele>14</ele>
        <time>1970-01-01T01:00:00Z</time>
      </trkpt>
      <trkpt lat="60.48645" lon="22.223042">
        <ele>14</ele>
        <time>1970-01-01T01:00:00Z</time>
      </trkpt>
      <trkpt lat="60.4864" lon="22.222939">
        <ele>14</ele>
        <time>1970-01-01T01:00:00Z</time>
      </trkpt>
      <trkpt lat="60.486308" lon="22.222841">
        <ele>14</ele>
        <time>1970-01-01T01:00:00Z</time>
      </trkpt>
      <trkpt lat="60.486224" lon="22.222666">
        <ele>14</ele>
        <time>1970-01-01T01:00:00Z</time>
      </trkpt>
      <trkpt lat="60.486169" lon="22.22254">
        <ele>14</ele>
        <time>1970-01-01T01:00:00Z</time>
      </trkpt>
      <trkpt lat="60.486084" lon="22.222262">
        <ele>14</ele>
        <time>1970-01-01T01:00:00Z</time>
      </trkpt>
      <trkpt lat="60.486068" lon="22.222041">
        <ele>14</ele>
        <time>1970-01-01T01:00:00Z</time>
      </trkpt>
      <trkpt lat="60.486167" lon="22.221852">
        <ele>14</ele>
        <time>1970-01-01T01:00:00Z</time>
      </trkpt>
      <trkpt lat="60.486275" lon="22.221719">
        <ele>14</ele>
        <time>1970-01-01T01:00:00Z</time>
      </trkpt>
      <trkpt lat="60.48648" lon="22.221499">
        <ele>14</ele>
        <time>1970-01-01T01:00:00Z</time>
      </trkpt>
      <trkpt lat="60.486604" lon="22.221444">
        <ele>14</ele>
        <time>1970-01-01T01:00:00Z</time>
      </trkpt>
      <trkpt lat="60.486738" lon="22.221295">
        <ele>14</ele>
        <time>1970-01-01T01:00:00Z</time>
      </trkpt>
      <trkpt lat="60.486847" lon="22.221138">
        <ele>14</ele>
        <time>1970-01-01T01:00:00Z</time>
      </trkpt>
      <trkpt lat="60.48697" lon="22.220926">
        <ele>14</ele>
        <time>1970-01-01T01:00:00Z</time>
      </trkpt>
      <trkpt lat="60.487081" lon="22.220761">
        <ele>14</ele>
        <time>1970-01-01T01:00:00Z</time>
      </trkpt>
      <trkpt lat="60.487192" lon="22.220665">
        <ele>14</ele>
        <time>1970-01-01T01:00:00Z</time>
      </trkpt>
      <trkpt lat="60.487219" lon="22.220659">
        <ele>14</ele>
        <time>1970-01-01T01:00:00Z</time>
      </trkpt>
      <trkpt lat="60.487304" lon="22.22051">
        <ele>14</ele>
        <time>1970-01-01T01:00:00Z</time>
      </trkpt>
      <trkpt lat="60.487392" lon="22.220402">
        <ele>14</ele>
        <time>1970-01-01T01:00:00Z</time>
      </trkpt>
      <trkpt lat="60.487484" lon="22.220209">
        <ele>14</ele>
        <time>1970-01-01T01:00:00Z</time>
      </trkpt>
      <trkpt lat="60.48754" lon="22.220125">
        <ele>14</ele>
        <time>1970-01-01T01:00:00Z</time>
      </trkpt>
      <trkpt lat="60.487627" lon="22.219909">
        <ele>14</ele>
        <time>1970-01-01T01:00:00Z</time>
      </trkpt>
      <trkpt lat="60.48767" lon="22.21981">
        <ele>14</ele>
        <time>1970-01-01T01:00:00Z</time>
      </trkpt>
      <trkpt lat="60.487744" lon="22.219597">
        <ele>14</ele>
        <time>1970-01-01T01:00:00Z</time>
      </trkpt>
      <trkpt lat="60.487775" lon="22.219534">
        <ele>14</ele>
        <time>1970-01-01T01:00:00Z</time>
      </trkpt>
      <trkpt lat="60.4879" lon="22.219365">
        <ele>14</ele>
        <time>1970-01-01T01:00:00Z</time>
      </trkpt>
      <trkpt lat="60.487946" lon="22.219104">
        <ele>14</ele>
        <time>1970-01-01T01:00:00Z</time>
      </trkpt>
      <trkpt lat="60.488045" lon="22.218319">
        <ele>15.5455</ele>
        <time>1970-01-01T01:00:00Z</time>
      </trkpt>
      <trkpt lat="60.488083" lon="22.217781">
        <ele>17.0909</ele>
        <time>1970-01-01T01:00:00Z</time>
      </trkpt>
      <trkpt lat="60.488096" lon="22.217486">
        <ele>18.6364</ele>
        <time>1970-01-01T01:00:00Z</time>
      </trkpt>
      <trkpt lat="60.488172" lon="22.217008">
        <ele>20.1818</ele>
        <time>1970-01-01T01:00:00Z</time>
      </trkpt>
      <trkpt lat="60.488191" lon="22.216922">
        <ele>21.7273</ele>
        <time>1970-01-01T01:00:00Z</time>
      </trkpt>
      <trkpt lat="60.488234" lon="22.216668">
        <ele>23.2727</ele>
        <time>1970-01-01T01:00:00Z</time>
      </trkpt>
      <trkpt lat="60.488212" lon="22.21633">
        <ele>24.8182</ele>
        <time>1970-01-01T01:00:00Z</time>
      </trkpt>
      <trkpt lat="60.488151" lon="22.21623">
        <ele>26.3636</ele>
        <time>1970-01-01T01:00:00Z</time>
      </trkpt>
      <trkpt lat="60.488033" lon="22.216176">
        <ele>27.9091</ele>
        <time>1970-01-01T01:00:00Z</time>
      </trkpt>
      <trkpt lat="60.487959" lon="22.21615">
        <ele>29.4545</ele>
        <time>1970-01-01T01:00:00Z</time>
      </trkpt>
      <trkpt lat="60.487743" lon="22.216051">
        <ele>31</ele>
        <time>1970-01-01T01:00:00Z</time>
      </trkpt>
      <trkpt lat="60.487622" lon="22.21604">
        <ele>31</ele>
        <time>1970-01-01T01:00:00Z</time>
      </trkpt>
      <trkpt lat="60.487589" lon="22.216026">
        <ele>31</ele>
        <time>1970-01-01T01:00:00Z</time>
      </trkpt>
      <trkpt lat="60.487472" lon="22.215778">
        <ele>31</ele>
        <time>1970-01-01T01:00:00Z</time>
      </trkpt>
      <trkpt lat="60.487402" lon="22.215519">
        <ele>31</ele>
        <time>1970-01-01T01:00:00Z</time>
      </trkpt>
      <trkpt lat="60.487287" lon="22.215241">
        <ele>31</ele>
        <time>1970-01-01T01:00:00Z</time>
      </trkpt>
      <trkpt lat="60.487179" lon="22.215038">
        <ele>31</ele>
        <time>1970-01-01T01:00:00Z</time>
      </trkpt>
      <trkpt lat="60.487109" lon="22.214744">
        <ele>31</ele>
        <time>1970-01-01T01:00:00Z</time>
      </trkpt>
      <trkpt lat="60.487111" lon="22.214506">
        <ele>31</ele>
        <time>1970-01-01T01:00:00Z</time>
      </trkpt>
      <trkpt lat="60.48709" lon="22.214073">
        <ele>31</ele>
        <time>1970-01-01T01:00:00Z</time>
      </trkpt>
      <trkpt lat="60.48716" lon="22.213706">
        <ele>31</ele>
        <time>1970-01-01T01:00:00Z</time>
      </trkpt>
      <trkpt lat="60.487175" lon="22.213626">
        <ele>31</ele>
        <time>1970-01-01T01:00:00Z</time>
      </trkpt>
      <trkpt lat="60.487228" lon="22.21326">
        <ele>31</ele>
        <time>1970-01-01T01:00:00Z</time>
      </trkpt>
      <trkpt lat="60.487255" lon="22.213065">
        <ele>31</ele>
        <time>1970-01-01T01:00:00Z</time>
      </trkpt>
      <trkpt lat="60.487334" lon="22.212764">
        <ele>31</ele>
        <time>1970-01-01T01:00:00Z</time>
      </trkpt>
      <trkpt lat="60.487408" lon="22.212438">
        <ele>31</ele>
        <time>1970-01-01T01:00:00Z</time>
      </trkpt>
      <trkpt lat="60.487496" lon="22.212101">
        <ele>31</ele>
        <time>1970-01-01T01:00:00Z</time>
      </trkpt>
      <trkpt lat="60.487551" lon="22.211817">
        <ele>31</ele>
        <time>1970-01-01T01:00:00Z</time>
      </trkpt>
      <trkpt lat="60.487622" lon="22.211545">
        <ele>31</ele>
        <time>1970-01-01T01:00:00Z</time>
      </trkpt>
      <trkpt lat="60.487636" lon="22.211254">
        <ele>31</ele>
        <time>1970-01-01T01:00:00Z</time>
      </trkpt>
      <trkpt lat="60.487651" lon="22.211108">
        <ele>31</ele>
        <time>1970-01-01T01:00:00Z</time>
      </trkpt>
      <trkpt lat="60.487649" lon="22.210965">
        <ele>31</ele>
        <time>1970-01-01T01:00:00Z</time>
      </trkpt>
      <trkpt lat="60.487655" lon="22.210722">
        <ele>31</ele>
        <time>1970-01-01T01:00:00Z</time>
      </trkpt>
      <trkpt lat="60.487554" lon="22.21041">
        <ele>31</ele>
        <time>1970-01-01T01:00:00Z</time>
      </trkpt>
      <trkpt lat="60.487431" lon="22.209925">
        <ele>30.7273</ele>
        <time>1970-01-01T01:00:00Z</time>
      </trkpt>
      <trkpt lat="60.487343" lon="22.209583">
        <ele>30.4545</ele>
        <time>1970-01-01T01:00:00Z</time>
      </trkpt>
      <trkpt lat="60.487261" lon="22.209262">
        <ele>30.1818</ele>
        <time>1970-01-01T01:00:00Z</time>
      </trkpt>
      <trkpt lat="60.48722" lon="22.209068">
        <ele>29.9091</ele>
        <time>1970-01-01T01:00:00Z</time>
      </trkpt>
      <trkpt lat="60.487172" lon="22.208791">
        <ele>29.6364</ele>
        <time>1970-01-01T01:00:00Z</time>
      </trkpt>
      <trkpt lat="60.487077" lon="22.208395">
        <ele>29.3636</ele>
        <time>1970-01-01T01:00:00Z</time>
      </trkpt>
      <trkpt lat="60.487059" lon="22.208323">
        <ele>29.3636</ele>
        <time>1970-01-01T01:00:00Z</time>
      </trkpt>
      <trkpt lat="60.486928" lon="22.208077">
        <ele>29.3636</ele>
        <time>1970-01-01T01:00:00Z</time>
      </trkpt>
      <trkpt lat="60.4868" lon="22.208123">
        <ele>29.3636</ele>
        <time>1970-01-01T01:00:00Z</time>
      </trkpt>
      <trkpt lat="60.486753" lon="22.208168">
        <ele>29.3636</ele>
        <time>1970-01-01T01:00:00Z</time>
      </trkpt>
      <trkpt lat="60.48655" lon="22.208366">
        <ele>29.3636</ele>
        <time>1970-01-01T01:00:00Z</time>
      </trkpt>
      <trkpt lat="60.486417" lon="22.208487">
        <ele>29.6364</ele>
        <time>1970-01-01T01:00:00Z</time>
      </trkpt>
      <trkpt lat="60.48635" lon="22.208537">
        <ele>29.9091</ele>
        <time>1970-01-01T01:00:00Z</time>
      </trkpt>
      <trkpt lat="60.486262" lon="22.208583">
        <ele>30.1818</ele>
        <time>1970-01-01T01:00:00Z</time>
      </trkpt>
      <trkpt lat="60.486129" lon="22.208744">
        <ele>30.4545</ele>
        <time>1970-01-01T01:00:00Z</time>
      </trkpt>
      <trkpt lat="60.486037" lon="22.208732">
        <ele>30.7273</ele>
        <time>1970-01-01T01:00:00Z</time>
      </trkpt>
      <trkpt lat="60.485884" lon="22.208687">
        <ele>31</ele>
        <time>1970-01-01T01:00:00Z</time>
      </trkpt>
      <trkpt lat="60.485815" lon="22.208653">
        <ele>31</ele>
        <time>1970-01-01T01:00:00Z</time>
      </trkpt>
      <trkpt lat="60.485691" lon="22.208689">
        <ele>31</ele>
        <time>1970-01-01T01:00:00Z</time>
      </trkpt>
      <trkpt lat="60.485581" lon="22.208773">
        <ele>30.7273</ele>
        <time>1970-01-01T01:00:00Z</time>
      </trkpt>
      <trkpt lat="60.485435" lon="22.208889">
        <ele>30.4545</ele>
        <time>1970-01-01T01:00:00Z</time>
      </trkpt>
      <trkpt lat="60.485257" lon="22.208867">
        <ele>30.1818</ele>
        <time>1970-01-01T01:00:00Z</time>
      </trkpt>
      <trkpt lat="60.485152" lon="22.208818">
        <ele>29.9091</ele>
        <time>1970-01-01T01:00:00Z</time>
      </trkpt>
      <trkpt lat="60.485032" lon="22.208655">
        <ele>29.6364</ele>
        <time>1970-01-01T01:00:00Z</time>
      </trkpt>
      <trkpt lat="60.484983" lon="22.208323">
        <ele>29.3636</ele>
        <time>1970-01-01T01:00:00Z</time>
      </trkpt>
      <trkpt lat="60.484983" lon="22.208061">
        <ele>29.0909</ele>
        <time>1970-01-01T01:00:00Z</time>
      </trkpt>
      <trkpt lat="60.48497" lon="22.207922">
        <ele>28.8182</ele>
        <time>1970-01-01T01:00:00Z</time>
      </trkpt>
      <trkpt lat="60.484931" lon="22.207625">
        <ele>28.5455</ele>
        <time>1970-01-01T01:00:00Z</time>
      </trkpt>
      <trkpt lat="60.484833" lon="22.207204">
        <ele>28.2727</ele>
        <time>1970-01-01T01:00:00Z</time>
      </trkpt>
      <trkpt lat="60.484664" lon="22.207076">
        <ele>28</ele>
        <time>1970-01-01T01:00:00Z</time>
      </trkpt>
      <trkpt lat="60.484505" lon="22.207027">
        <ele>28</ele>
        <time>1970-01-01T01:00:00Z</time>
      </trkpt>
      <trkpt lat="60.484445" lon="22.207003">
        <ele>28</ele>
        <time>1970-01-01T01:00:00Z</time>
      </trkpt>
      <trkpt lat="60.484358" lon="22.207006">
        <ele>28</ele>
        <time>1970-01-01T01:00:00Z</time>
      </trkpt>
      <trkpt lat="60.484283" lon="22.207029">
        <ele>28</ele>
        <time>1970-01-01T01:00:00Z</time>
      </trkpt>
      <trkpt lat="60.484139" lon="22.207241">
        <ele>28</ele>
        <time>1970-01-01T01:00:00Z</time>
      </trkpt>
      <trkpt lat="60.484083" lon="22.207597">
        <ele>28.2727</ele>
        <time>1970-01-01T01:00:00Z</time>
      </trkpt>
      <trkpt lat="60.484078" lon="22.207805">
        <ele>28.5455</ele>
        <time>1970-01-01T01:00:00Z</time>
      </trkpt>
      <trkpt lat="60.484031" lon="22.208137">
        <ele>28.8182</ele>
        <time>1970-01-01T01:00:00Z</time>
      </trkpt>
      <trkpt lat="60.483902" lon="22.208355">
        <ele>29</ele>
        <time>1970-01-01T01:00:00Z</time>
      </trkpt>
      <trkpt lat="60.483872" lon="22.208381">
        <ele>29.1818</ele>
        <time>1970-01-01T01:00:00Z</time>
      </trkpt>
      <trkpt lat="60.483652" lon="22.208597">
        <ele>29.3636</ele>
        <time>1970-01-01T01:00:00Z</time>
      </trkpt>
      <trkpt lat="60.483512" lon="22.208681">
        <ele>30.1818</ele>
        <time>1970-01-01T01:00:00Z</time>
      </trkpt>
      <trkpt lat="60.483386" lon="22.208783">
        <ele>31</ele>
        <time>1970-01-01T01:00:00Z</time>
      </trkpt>
      <trkpt lat="60.483246" lon="22.208914">
        <ele>31.8182</ele>
        <time>1970-01-01T01:00:00Z</time>
      </trkpt>
      <trkpt lat="60.483079" lon="22.208741">
        <ele>32.6364</ele>
        <time>1970-01-01T01:00:00Z</time>
      </trkpt>
      <trkpt lat="60.482969" lon="22.208495">
        <ele>33.4545</ele>
        <time>1970-01-01T01:00:00Z</time>
      </trkpt>
      <trkpt lat="60.482841" lon="22.208336">
        <ele>34</ele>
        <time>1970-01-01T01:00:00Z</time>
      </trkpt>
      <trkpt lat="60.482715" lon="22.208233">
        <ele>34.5455</ele>
        <time>1970-01-01T01:00:00Z</time>
      </trkpt>
      <trkpt lat="60.482642" lon="22.208094">
        <ele>35.0909</ele>
        <time>1970-01-01T01:00:00Z</time>
      </trkpt>
      <trkpt lat="60.48249" lon="22.207721">
        <ele>35.7273</ele>
        <time>1970-01-01T01:00:00Z</time>
      </trkpt>
      <trkpt lat="60.482459" lon="22.207636">
        <ele>36.3636</ele>
        <time>1970-01-01T01:00:00Z</time>
      </trkpt>
      <trkpt lat="60.482392" lon="22.207431">
        <ele>37</ele>
        <time>1970-01-01T01:00:00Z</time>
      </trkpt>
      <trkpt lat="60.482305" lon="22.207232">
        <ele>37</ele>
        <time>1970-01-01T01:00:00Z</time>
      </trkpt>
      <trkpt lat="60.482222" lon="22.206991">
        <ele>37</ele>
        <time>1970-01-01T01:00:00Z</time>
      </trkpt>
      <trkpt lat="60.48215" lon="22.206765">
        <ele>37</ele>
        <time>1970-01-01T01:00:00Z</time>
      </trkpt>
      <trkpt lat="60.482078" lon="22.206607">
        <ele>37</ele>
        <time>1970-01-01T01:00:00Z</time>
      </trkpt>
      <trkpt lat="60.481991" lon="22.206562">
        <ele>37</ele>
        <time>1970-01-01T01:00:00Z</time>
      </trkpt>
      <trkpt lat="60.48194" lon="22.206484">
        <ele>37</ele>
        <time>1970-01-01T01:00:00Z</time>
      </trkpt>
      <trkpt lat="60.481887" lon="22.206334">
        <ele>37</ele>
        <time>1970-01-01T01:00:00Z</time>
      </trkpt>
      <trkpt lat="60.481825" lon="22.206302">
        <ele>37</ele>
        <time>1970-01-01T01:00:00Z</time>
      </trkpt>
      <trkpt lat="60.481701" lon="22.20629">
        <ele>37</ele>
        <time>1970-01-01T01:00:00Z</time>
      </trkpt>
      <trkpt lat="60.481678" lon="22.206279">
        <ele>37</ele>
        <time>1970-01-01T01:00:00Z</time>
      </trkpt>
      <trkpt lat="60.481594" lon="22.206231">
        <ele>37</ele>
        <time>1970-01-01T01:00:00Z</time>
      </trkpt>
      <trkpt lat="60.481543" lon="22.206179">
        <ele>37</ele>
        <time>1970-01-01T01:00:00Z</time>
      </trkpt>
      <trkpt lat="60.481439" lon="22.206075">
        <ele>37</ele>
        <time>1970-01-01T01:00:00Z</time>
      </trkpt>
      <trkpt lat="60.481411" lon="22.20606">
        <ele>37</ele>
        <time>1970-01-01T01:00:00Z</time>
      </trkpt>
      <trkpt lat="60.481341" lon="22.206022">
        <ele>37</ele>
        <time>1970-01-01T01:00:00Z</time>
      </trkpt>
      <trkpt lat="60.481218" lon="22.205909">
        <ele>37</ele>
        <time>1970-01-01T01:00:00Z</time>
      </trkpt>
      <trkpt lat="60.481067" lon="22.20578">
        <ele>37</ele>
        <time>1970-01-01T01:00:00Z</time>
      </trkpt>
      <trkpt lat="60.480973" lon="22.205645">
        <ele>37</ele>
        <time>1970-01-01T01:00:00Z</time>
      </trkpt>
      <trkpt lat="60.480856" lon="22.205441">
        <ele>37</ele>
        <time>1970-01-01T01:00:00Z</time>
      </trkpt>
      <trkpt lat="60.480765" lon="22.205263">
        <ele>37</ele>
        <time>1970-01-01T01:00:00Z</time>
      </trkpt>
      <trkpt lat="60.480643" lon="22.205116">
        <ele>37</ele>
        <time>1970-01-01T01:00:00Z</time>
      </trkpt>
      <trkpt lat="60.480545" lon="22.205107">
        <ele>37</ele>
        <time>1970-01-01T01:00:00Z</time>
      </trkpt>
      <trkpt lat="60.480386" lon="22.205249">
        <ele>37</ele>
        <time>1970-01-01T01:00:00Z</time>
      </trkpt>
      <trkpt lat="60.480323" lon="22.205306">
        <ele>37</ele>
        <time>1970-01-01T01:00:00Z</time>
      </trkpt>
      <trkpt lat="60.480065" lon="22.205527">
        <ele>37</ele>
        <time>1970-01-01T01:00:00Z</time>
      </trkpt>
      <trkpt lat="60.480019" lon="22.205574">
        <ele>37</ele>
        <time>1970-01-01T01:00:00Z</time>
      </trkpt>
      <trkpt lat="60.479854" lon="22.205711">
        <ele>37</ele>
        <time>1970-01-01T01:00:00Z</time>
      </trkpt>
      <trkpt lat="60.479714" lon="22.205822">
        <ele>37</ele>
        <time>1970-01-01T01:00:00Z</time>
      </trkpt>
      <trkpt lat="60.479564" lon="22.205969">
        <ele>37</ele>
        <time>1970-01-01T01:00:00Z</time>
      </trkpt>
      <trkpt lat="60.479532" lon="22.206154">
        <ele>37</ele>
        <time>1970-01-01T01:00:00Z</time>
      </trkpt>
      <trkpt lat="60.479552" lon="22.206778">
        <ele>37</ele>
        <time>1970-01-01T01:00:00Z</time>
      </trkpt>
      <trkpt lat="60.479588" lon="22.207183">
        <ele>37</ele>
        <time>1970-01-01T01:00:00Z</time>
      </trkpt>
      <trkpt lat="60.479593" lon="22.207251">
        <ele>37</ele>
        <time>1970-01-01T01:00:00Z</time>
      </trkpt>
      <trkpt lat="60.479607" lon="22.207392">
        <ele>36.3636</ele>
        <time>1970-01-01T01:00:00Z</time>
      </trkpt>
      <trkpt lat="60.479606" lon="22.207666">
        <ele>35.7273</ele>
        <time>1970-01-01T01:00:00Z</time>
      </trkpt>
      <trkpt lat="60.479591" lon="22.207828">
        <ele>35.0909</ele>
        <time>1970-01-01T01:00:00Z</time>
      </trkpt>
      <trkpt lat="60.479539" lon="22.20812">
        <ele>34.4545</ele>
        <time>1970-01-01T01:00:00Z</time>
      </trkpt>
      <trkpt lat="60.479523" lon="22.208156">
        <ele>33.8182</ele>
        <time>1970-01-01T01:00:00Z</time>
      </trkpt>
      <trkpt lat="60.479484" lon="22.208441">
        <ele>33.1818</ele>
        <time>1970-01-01T01:00:00Z</time>
      </trkpt>
      <trkpt lat="60.479464" lon="22.208681">
        <ele>32.5455</ele>
        <time>1970-01-01T01:00:00Z</time>
      </trkpt>
      <trkpt lat="60.479446" lon="22.209075">
        <ele>31.9091</ele>
        <time>1970-01-01T01:00:00Z</time>
      </trkpt>
      <trkpt lat="60.479423" lon="22.209299">
        <ele>31.2727</ele>
        <time>1970-01-01T01:00:00Z</time>
      </trkpt>
      <trkpt lat="60.479365" lon="22.209544">
        <ele>30.6364</ele>
        <time>1970-01-01T01:00:00Z</time>
      </trkpt>
      <trkpt lat="60.47931" lon="22.209634">
        <ele>30</ele>
        <time>1970-01-01T01:00:00Z</time>
      </trkpt>
      <trkpt lat="60.479207" lon="22.209959">
        <ele>30</ele>
        <time>1970-01-01T01:00:00Z</time>
      </trkpt>
      <trkpt lat="60.479184" lon="22.210153">
        <ele>30</ele>
        <time>1970-01-01T01:00:00Z</time>
      </trkpt>
      <trkpt lat="60.479162" lon="22.21035">
        <ele>30</ele>
        <time>1970-01-01T01:00:00Z</time>
      </trkpt>
      <trkpt lat="60.479168" lon="22.210426">
        <ele>30</ele>
        <time>1970-01-01T01:00:00Z</time>
      </trkpt>
      <trkpt lat="60.479192" lon="22.210716">
        <ele>30</ele>
        <time>1970-01-01T01:00:00Z</time>
      </trkpt>
      <trkpt lat="60.479225" lon="22.21087">
        <ele>30</ele>
        <time>1970-01-01T01:00:00Z</time>
      </trkpt>
      <trkpt lat="60.479268" lon="22.210996">
        <ele>30</ele>
        <time>1970-01-01T01:00:00Z</time>
      </trkpt>
      <trkpt lat="60.479354" lon="22.21117">
        <ele>30</ele>
        <time>1970-01-01T01:00:00Z</time>
      </trkpt>
      <trkpt lat="60.479429" lon="22.211346">
        <ele>30</ele>
        <time>1970-01-01T01:00:00Z</time>
      </trkpt>
      <trkpt lat="60.479455" lon="22.211365">
        <ele>30</ele>
        <time>1970-01-01T01:00:00Z</time>
      </trkpt>
      <trkpt lat="60.479559" lon="22.211452">
        <ele>30</ele>
        <time>1970-01-01T01:00:00Z</time>
      </trkpt>
      <trkpt lat="60.479717" lon="22.211642">
        <ele>30</ele>
        <time>1970-01-01T01:00:00Z</time>
      </trkpt>
      <trkpt lat="60.479846" lon="22.211944">
        <ele>30</ele>
        <time>1970-01-01T01:00:00Z</time>
      </trkpt>
      <trkpt lat="60.479892" lon="22.21209">
        <ele>30</ele>
        <time>1970-01-01T01:00:00Z</time>
      </trkpt>
      <trkpt lat="60.480019" lon="22.212373">
        <ele>30</ele>
        <time>1970-01-01T01:00:00Z</time>
      </trkpt>
      <trkpt lat="60.480135" lon="22.212455">
        <ele>30</ele>
        <time>1970-01-01T01:00:00Z</time>
      </trkpt>
      <trkpt lat="60.480166" lon="22.212455">
        <ele>30</ele>
        <time>1970-01-01T01:00:00Z</time>
      </trkpt>
      <trkpt lat="60.480346" lon="22.212493">
        <ele>30</ele>
        <time>1970-01-01T01:00:00Z</time>
      </trkpt>
      <trkpt lat="60.480491" lon="22.212454">
        <ele>30</ele>
        <time>1970-01-01T01:00:00Z</time>
      </trkpt>
      <trkpt lat="60.480617" lon="22.212434">
        <ele>30</ele>
        <time>1970-01-01T01:00:00Z</time>
      </trkpt>
      <trkpt lat="60.480738" lon="22.212408">
        <ele>30</ele>
        <time>1970-01-01T01:00:00Z</time>
      </trkpt>
      <trkpt lat="60.480855" lon="22.212413">
        <ele>30</ele>
        <time>1970-01-01T01:00:00Z</time>
      </trkpt>
      <trkpt lat="60.481009" lon="22.212456">
        <ele>30</ele>
        <time>1970-01-01T01:00:00Z</time>
      </trkpt>
      <trkpt lat="60.481166" lon="22.212638">
        <ele>30</ele>
        <time>1970-01-01T01:00:00Z</time>
      </trkpt>
      <trkpt lat="60.481325" lon="22.212806">
        <ele>30</ele>
        <time>1970-01-01T01:00:00Z</time>
      </trkpt>
      <trkpt lat="60.481396" lon="22.21286">
        <ele>30</ele>
        <time>1970-01-01T01:00:00Z</time>
      </trkpt>
      <trkpt lat="60.481496" lon="22.212921">
        <ele>30</ele>
        <time>1970-01-01T01:00:00Z</time>
      </trkpt>
      <trkpt lat="60.481636" lon="22.21295">
        <ele>30</ele>
        <time>1970-01-01T01:00:00Z</time>
      </trkpt>
      <trkpt lat="60.481756" lon="22.212831">
        <ele>30</ele>
        <time>1970-01-01T01:00:00Z</time>
      </trkpt>
      <trkpt lat="60.481857" lon="22.212627">
        <ele>30</ele>
        <time>1970-01-01T01:00:00Z</time>
      </trkpt>
      <trkpt lat="60.481986" lon="22.212387">
        <ele>30</ele>
        <time>1970-01-01T01:00:00Z</time>
      </trkpt>
      <trkpt lat="60.482097" lon="22.212064">
        <ele>30</ele>
        <time>1970-01-01T01:00:00Z</time>
      </trkpt>
      <trkpt lat="60.482211" lon="22.211876">
        <ele>30</ele>
        <time>1970-01-01T01:00:00Z</time>
      </trkpt>
      <trkpt lat="60.482346" lon="22.211762">
        <ele>30</ele>
        <time>1970-01-01T01:00:00Z</time>
      </trkpt>
      <trkpt lat="60.4825" lon="22.211702">
        <ele>30</ele>
        <time>1970-01-01T01:00:00Z</time>
      </trkpt>
      <trkpt lat="60.482744" lon="22.211778">
        <ele>30</ele>
        <time>1970-01-01T01:00:00Z</time>
      </trkpt>
      <trkpt lat="60.482816" lon="22.211925">
        <ele>30</ele>
        <time>1970-01-01T01:00:00Z</time>
      </trkpt>
      <trkpt lat="60.482913" lon="22.21218">
        <ele>30.0909</ele>
        <time>1970-01-01T01:00:00Z</time>
      </trkpt>
      <trkpt lat="60.483001" lon="22.21234">
        <ele>30.1818</ele>
        <time>1970-01-01T01:00:00Z</time>
      </trkpt>
      <trkpt lat="60.483142" lon="22.21248">
        <ele>30.2727</ele>
        <time>1970-01-01T01:00:00Z</time>
      </trkpt>
      <trkpt lat="60.483274" lon="22.212561">
        <ele>30.3636</ele>
        <time>1970-01-01T01:00:00Z</time>
      </trkpt>
      <trkpt lat="60.483338" lon="22.212578">
        <ele>30.4545</ele>
        <time>1970-01-01T01:00:00Z</time>
      </trkpt>
      <trkpt lat="60.483461" lon="22.212589">
        <ele>30.5455</ele>
        <time>1970-01-01T01:00:00Z</time>
      </trkpt>
      <trkpt lat="60.483547" lon="22.212615">
        <ele>30.6364</ele>
        <time>1970-01-01T01:00:00Z</time>
      </trkpt>
      <trkpt lat="60.483695" lon="22.212588">
        <ele>30.7273</ele>
        <time>1970-01-01T01:00:00Z</time>
      </trkpt>
      <trkpt lat="60.483775" lon="22.212602">
        <ele>30.8182</ele>
        <time>1970-01-01T01:00:00Z</time>
      </trkpt>
      <trkpt lat="60.483877" lon="22.212628">
        <ele>30.9091</ele>
        <time>1970-01-01T01:00:00Z</time>
      </trkpt>
      <trkpt lat="60.483979" lon="22.212839">
        <ele>31</ele>
        <time>1970-01-01T01:00:00Z</time>
      </trkpt>
      <trkpt lat="60.484095" lon="22.213119">
        <ele>31</ele>
        <time>1970-01-01T01:00:00Z</time>
      </trkpt>
      <trkpt lat="60.484114" lon="22.213206">
        <ele>31</ele>
        <time>1970-01-01T01:00:00Z</time>
      </trkpt>
      <trkpt lat="60.484183" lon="22.213516">
        <ele>31</ele>
        <time>1970-01-01T01:00:00Z</time>
      </trkpt>
      <trkpt lat="60.484246" lon="22.213698">
        <ele>31</ele>
        <time>1970-01-01T01:00:00Z</time>
      </trkpt>
      <trkpt lat="60.484288" lon="22.213905">
        <ele>31</ele>
        <time>1970-01-01T01:00:00Z</time>
      </trkpt>
      <trkpt lat="60.484335" lon="22.214402">
        <ele>31</ele>
        <time>1970-01-01T01:00:00Z</time>
      </trkpt>
      <trkpt lat="60.484336" lon="22.214507">
        <ele>31</ele>
        <time>1970-01-01T01:00:00Z</time>
      </trkpt>
      <trkpt lat="60.484307" lon="22.214915">
        <ele>31</ele>
        <time>1970-01-01T01:00:00Z</time>
      </trkpt>
      <trkpt lat="60.484293" lon="22.215083">
        <ele>31</ele>
        <time>1970-01-01T01:00:00Z</time>
      </trkpt>
      <trkpt lat="60.484268" lon="22.215469">
        <ele>31</ele>
        <time>1970-01-01T01:00:00Z</time>
      </trkpt>
      <trkpt lat="60.484321" lon="22.215699">
        <ele>29.4545</ele>
        <time>1970-01-01T01:00:00Z</time>
      </trkpt>
      <trkpt lat="60.484367" lon="22.21583">
        <ele>27.9091</ele>
        <time>1970-01-01T01:00:00Z</time>
      </trkpt>
      <trkpt lat="60.484437" lon="22.21603">
        <ele>26.3636</ele>
        <time>1970-01-01T01:00:00Z</time>
      </trkpt>
      <trkpt lat="60.484539" lon="22.216408">
        <ele>24.8182</ele>
        <time>1970-01-01T01:00:00Z</time>
      </trkpt>
      <trkpt lat="60.484762" lon="22.216785">
        <ele>23.2727</ele>
        <time>1970-01-01T01:00:00Z</time>
      </trkpt>
      <trkpt lat="60.485048" lon="22.216973">
        <ele>21.7273</ele>
        <time>1970-01-01T01:00:00Z</time>
      </trkpt>
      <trkpt lat="60.485143" lon="22.217216">
        <ele>20.1818</ele>
        <time>1970-01-01T01:00:00Z</time>
      </trkpt>
      <trkpt lat="60.485186" lon="22.217579">
        <ele>18.6364</ele>
        <time>1970-01-01T01:00:00Z</time>
      </trkpt>
      <trkpt lat="60.485151" lon="22.217855">
        <ele>17.0909</ele>
        <time>1970-01-01T01:00:00Z</time>
      </trkpt>
      <trkpt lat="60.48514" lon="22.218062">
        <ele>15.5455</ele>
        <time>1970-01-01T01:00:00Z</time>
      </trkpt>
      <trkpt lat="60.485133" lon="22.218182">
        <ele>14</ele>
        <time>1970-01-01T01:00:00Z</time>
      </trkpt>
      <trkpt lat="60.485113" lon="22.218311">
        <ele>14</ele>
        <time>1970-01-01T01:00:00Z</time>
      </trkpt>
      <trkpt lat="60.485073" lon="22.218439">
        <ele>14</ele>
        <time>1970-01-01T01:00:00Z</time>
      </trkpt>
      <trkpt lat="60.485126" lon="22.218728">
        <ele>14</ele>
        <time>1970-01-01T01:00:00Z</time>
      </trkpt>
      <trkpt lat="60.485219" lon="22.218928">
        <ele>14</ele>
        <time>1970-01-01T01:00:00Z</time>
      </trkpt>
      <trkpt lat="60.485363" lon="22.219043">
        <ele>14</ele>
        <time>1970-01-01T01:00:00Z</time>
      </trkpt>
      <trkpt lat="60.48543" lon="22.219229">
        <ele>14</ele>
        <time>1970-01-01T01:00:00Z</time>
      </trkpt>
      <trkpt lat="60.485567" lon="22.219481">
        <ele>14</ele>
        <time>1970-01-01T01:00:00Z</time>
      </trkpt>
      <trkpt lat="60.485701" lon="22.219673">
        <ele>14</ele>
        <time>1970-01-01T01:00:00Z</time>
      </trkpt>
      <trkpt lat="60.485821" lon="22.219914">
        <ele>14</ele>
        <time>1970-01-01T01:00:00Z</time>
      </trkpt>
      <trkpt lat="60.485882" lon="22.220095">
        <ele>14</ele>
        <time>1970-01-01T01:00:00Z</time>
      </trkpt>
      <trkpt lat="60.485914" lon="22.220496">
        <ele>14</ele>
        <time>1970-01-01T01:00:00Z</time>
      </trkpt>
      <trkpt lat="60.485941" lon="22.220635">
        <ele>14</ele>
        <time>1970-01-01T01:00:00Z</time>
      </trkpt>
      <trkpt lat="60.485958" lon="22.220791">
        <ele>14</ele>
        <time>1970-01-01T01:00:00Z</time>
      </trkpt>
      <trkpt lat="60.486028" lon="22.221046">
        <ele>14</ele>
        <time>1970-01-01T01:00:00Z</time>
      </trkpt>
      <trkpt lat="60.486077" lon="22.221436">
        <ele>14</ele>
        <time>1970-01-01T01:00:00Z</time>
      </trkpt>
      <trkpt lat="60.486077" lon="22.2217">
        <ele>14</ele>
        <time>1970-01-01T01:00:00Z</time>
      </trkpt>
      <trkpt lat="60.48611" lon="22.221927">
        <ele>14</ele>
        <time>1970-01-01T01:00:00Z</time>
      </trkpt>
      <trkpt lat="60.486246" lon="22.221939">
        <ele>14</ele>
        <time>1970-01-01T01:00:00Z</time>
      </trkpt>
      <trkpt lat="60.486362" lon="22.221741">
        <ele>14</ele>
        <time>1970-01-01T01:00:00Z</time>
      </trkpt>
      <trkpt lat="60.486395" lon="22.221674">
        <ele>14</ele>
        <time>1970-01-01T01:00:00Z</time>
      </trkpt>
      <trkpt lat="60.486553" lon="22.221447">
        <ele>14</ele>
        <time>1970-01-01T01:00:00Z</time>
      </trkpt>
      <trkpt lat="60.486721" lon="22.221242">
        <ele>14</ele>
        <time>1970-01-01T01:00:00Z</time>
      </trkpt>
      <trkpt lat="60.486837" lon="22.221052">
        <ele>14</ele>
        <time>1970-01-01T01:00:00Z</time>
      </trkpt>
      <trkpt lat="60.486943" lon="22.220922">
        <ele>14</ele>
        <time>1970-01-01T01:00:00Z</time>
      </trkpt>
      <trkpt lat="60.487058" lon="22.220802">
        <ele>14</ele>
        <time>1970-01-01T01:00:00Z</time>
      </trkpt>
      <trkpt lat="60.487152" lon="22.220691">
        <ele>14</ele>
        <time>1970-01-01T01:00:00Z</time>
      </trkpt>
      <trkpt lat="60.48722" lon="22.220607">
        <ele>14</ele>
        <time>1970-01-01T01:00:00Z</time>
      </trkpt>
      <trkpt lat="60.487277" lon="22.220502">
        <ele>14</ele>
        <time>1970-01-01T01:00:00Z</time>
      </trkpt>
      <trkpt lat="60.487363" lon="22.220416">
        <ele>14</ele>
        <time>1970-01-01T01:00:00Z</time>
      </trkpt>
      <trkpt lat="60.487451" lon="22.220262">
        <ele>14</ele>
        <time>1970-01-01T01:00:00Z</time>
      </trkpt>
      <trkpt lat="60.487523" lon="22.220131">
        <ele>14</ele>
        <time>1970-01-01T01:00:00Z</time>
      </trkpt>
      <trkpt lat="60.487601" lon="22.220021">
        <ele>14</ele>
        <time>1970-01-01T01:00:00Z</time>
      </trkpt>
      <trkpt lat="60.487649" lon="22.219921">
        <ele>14</ele>
        <time>1970-01-01T01:00:00Z</time>
      </trkpt>
      <trkpt lat="60.487692" lon="22.219824">
        <ele>14</ele>
        <time>1970-01-01T01:00:00Z</time>
      </trkpt>
      <trkpt lat="60.487789" lon="22.219656">
        <ele>14</ele>
        <time>1970-01-01T01:00:00Z</time>
      </trkpt>
      <trkpt lat="60.487871" lon="22.219439">
        <ele>14</ele>
        <time>1970-01-01T01:00:00Z</time>
      </trkpt>
      <trkpt lat="60.487959" lon="22.218923">
        <ele>15.5455</ele>
        <time>1970-01-01T01:00:00Z</time>
      </trkpt>
      <trkpt lat="60.488054" lon="22.218188">
        <ele>17.0909</ele>
        <time>1970-01-01T01:00:00Z</time>
      </trkpt>
      <trkpt lat="60.488073" lon="22.217695">
        <ele>18.6364</ele>
        <time>1970-01-01T01:00:00Z</time>
      </trkpt>
      <trkpt lat="60.488089" lon="22.217423">
        <ele>20.1818</ele>
        <time>1970-01-01T01:00:00Z</time>
      </trkpt>
      <trkpt lat="60.488157" lon="22.216888">
        <ele>21.7273</ele>
        <time>1970-01-01T01:00:00Z</time>
      </trkpt>
      <trkpt lat="60.488186" lon="22.216701">
        <ele>23.2727</ele>
        <time>1970-01-01T01:00:00Z</time>
      </trkpt>
      <trkpt lat="60.488145" lon="22.216357">
        <ele>24.8182</ele>
        <time>1970-01-01T01:00:00Z</time>
      </trkpt>
      <trkpt lat="60.488083" lon="22.21622">
        <ele>26.3636</ele>
        <time>1970-01-01T01:00:00Z</time>
      </trkpt>
      <trkpt lat="60.487932" lon="22.216082">
        <ele>27.9091</ele>
        <time>1970-01-01T01:00:00Z</time>
      </trkpt>
      <trkpt lat="60.487894" lon="22.216065">
        <ele>29.4545</ele>
        <time>1970-01-01T01:00:00Z</time>
      </trkpt>
      <trkpt lat="60.487737" lon="22.216024">
        <ele>31</ele>
        <time>1970-01-01T01:00:00Z</time>
      </trkpt>
      <trkpt lat="60.487585" lon="22.215991">
        <ele>31</ele>
        <time>1970-01-01T01:00:00Z</time>
      </trkpt>
      <trkpt lat="60.487455" lon="22.215865">
        <ele>31</ele>
        <time>1970-01-01T01:00:00Z</time>
      </trkpt>
      <trkpt lat="60.487345" lon="22.215648">
        <ele>31</ele>
        <time>1970-01-01T01:00:00Z</time>
      </trkpt>
      <trkpt lat="60.487219" lon="22.215387">
        <ele>31</ele>
        <time>1970-01-01T01:00:00Z</time>
      </trkpt>
      <trkpt lat="60.487165" lon="22.215218">
        <ele>31</ele>
        <time>1970-01-01T01:00:00Z</time>
      </trkpt>
      <trkpt lat="60.487129" lon="22.215073">
        <ele>31</ele>
        <time>1970-01-01T01:00:00Z</time>
      </trkpt>
      <trkpt lat="60.487054" lon="22.214707">
        <ele>31</ele>
        <time>1970-01-01T01:00:00Z</time>
      </trkpt>
      <trkpt lat="60.487052" lon="22.214481">
        <ele>31</ele>
        <time>1970-01-01T01:00:00Z</time>
      </trkpt>
      <trkpt lat="60.48707" lon="22.213995">
        <ele>31</ele>
        <time>1970-01-01T01:00:00Z</time>
      </trkpt>
      <trkpt lat="60.487146" lon="22.213762">
        <ele>31</ele>
        <time>1970-01-01T01:00:00Z</time>
      </trkpt>
      <trkpt lat="60.48716" lon="22.213708">
        <ele>31</ele>
        <time>1970-01-01T01:00:00Z</time>
      </trkpt>
      <trkpt lat="60.487231" lon="22.213247">
        <ele>31</ele>
        <time>1970-01-01T01:00:00Z</time>
      </trkpt>
      <trkpt lat="60.487278" lon="22.212947">
        <ele>31</ele>
        <time>1970-01-01T01:00:00Z</time>
      </trkpt>
      <trkpt lat="60.487323" lon="22.212723">
        <ele>31</ele>
        <time>1970-01-01T01:00:00Z</time>
      </trkpt>
      <trkpt lat="60.487363" lon="22.212393">
        <ele>31</ele>
        <time>1970-01-01T01:00:00Z</time>
      </trkpt>
      <trkpt lat="60.487425" lon="22.212203">
        <ele>31</ele>
        <time>1970-01-01T01:00:00Z</time>
      </trkpt>
      <trkpt lat="60.48753" lon="22.211772">
        <ele>31</ele>
        <time>1970-01-01T01:00:00Z</time>
      </trkpt>
      <trkpt lat="60.48767" lon="22.211359">
        <ele>31</ele>
        <time>1970-01-01T01:00:00Z</time>
      </trkpt>
      <trkpt lat="60.487692" lon="22.210975">
        <ele>31</ele>
        <time>1970-01-01T01:00:00Z</time>
      </trkpt>
      <trkpt lat="60.487668" lon="22.210678">
        <ele>31</ele>
        <time>1970-01-01T01:00:00Z</time>
      </trkpt>
      <trkpt lat="60.487528" lon="22.210368">
        <ele>31</ele>
        <time>1970-01-01T01:00:00Z</time>
      </trkpt>
      <trkpt lat="60.487458" lon="22.210129">
        <ele>31</ele>
        <time>1970-01-01T01:00:00Z</time>
      </trkpt>
      <trkpt lat="60.487324" lon="22.209411">
        <ele>30.7273</ele>
        <time>1970-01-01T01:00:00Z</time>
      </trkpt>
      <trkpt lat="60.487289" lon="22.20924">
        <ele>30.4545</ele>
        <time>1970-01-01T01:00:00Z</time>
      </trkpt>
      <trkpt lat="60.487251" lon="22.208953">
        <ele>30.1818</ele>
        <time>1970-01-01T01:00:00Z</time>
      </trkpt>
      <trkpt lat="60.487175" lon="22.208562">
        <ele>29.9091</ele>
        <time>1970-01-01T01:00:00Z</time>
      </trkpt>
      <trkpt lat="60.487158" lon="22.208494">
        <ele>29.6364</ele>
        <time>1970-01-01T01:00:00Z</time>
      </trkpt>
      <trkpt lat="60.487062" lon="22.20827">
        <ele>29.3636</ele>
        <time>1970-01-01T01:00:00Z</time>
      </trkpt>
      <trkpt lat="60.486974" lon="22.208123">
        <ele>29.0909</ele>
        <time>1970-01-01T01:00:00Z</time>
      </trkpt>
      <trkpt lat="60.486868" lon="22.208051">
        <ele>28.8182</ele>
        <time>1970-01-01T01:00:00Z</time>
      </trkpt>
      <trkpt lat="60.486741" lon="22.208126">
        <ele>28.8182</ele>
        <time>1970-01-01T01:00:00Z</time>
      </trkpt>
      <trkpt lat="60.486608" lon="22.208248">
        <ele>28.8182</ele>
        <time>1970-01-01T01:00:00Z</time>
      </trkpt>
      <trkpt lat="60.486548" lon="22.208298">
        <ele>28.8182</ele>
        <time>1970-01-01T01:00:00Z</time>
      </trkpt>
      <trkpt lat="60.486438" lon="22.20837">
        <ele>29.0909</ele>
        <time>1970-01-01T01:00:00Z</time>
      </trkpt>
      <trkpt lat="60.486324" lon="22.208423">
        <ele>29.3636</ele>
        <time>1970-01-01T01:00:00Z</time>
      </trkpt>
      <trkpt lat="60.486258" lon="22.208458">
        <ele>29.6364</ele>
        <time>1970-01-01T01:00:00Z</time>
      </trkpt>
      <trkpt lat="60.486105" lon="22.208644">
        <ele>29.9091</ele>
        <time>1970-01-01T01:00:00Z</time>
      </trkpt>
      <trkpt lat="60.486028" lon="22.20865">
        <ele>30.1818</ele>
        <time>1970-01-01T01:00:00Z</time>
      </trkpt>
      <trkpt lat="60.485885" lon="22.208642">
        <ele>30.4545</ele>
        <time>1970-01-01T01:00:00Z</time>
      </trkpt>
      <trkpt lat="60.485764" lon="22.208628">
        <ele>30.7273</ele>
        <time>1970-01-01T01:00:00Z</time>
      </trkpt>
      <trkpt lat="60.485662" lon="22.208672">
        <ele>31</ele>
        <time>1970-01-01T01:00:00Z</time>
      </trkpt>
      <trkpt lat="60.485625" lon="22.208689">
        <ele>30.7273</ele>
        <time>1970-01-01T01:00:00Z</time>
      </trkpt>
      <trkpt lat="60.485519" lon="22.208826">
        <ele>30.4545</ele>
        <time>1970-01-01T01:00:00Z</time>
      </trkpt>
      <trkpt lat="60.485489" lon="22.208841">
        <ele>30.1818</ele>
        <time>1970-01-01T01:00:00Z</time>
      </trkpt>
      <trkpt lat="60.485222" lon="22.20881">
        <ele>29.9091</ele>
        <time>1970-01-01T01:00:00Z</time>
      </trkpt>
      <trkpt lat="60.48508" lon="22.208743">
        <ele>29.6364</ele>
        <time>1970-01-01T01:00:00Z</time>
      </trkpt>
      <trkpt lat="60.484974" lon="22.208417">
        <ele>29.3636</ele>
        <time>1970-01-01T01:00:00Z</time>
      </trkpt>
      <trkpt lat="60.484963" lon="22.207935">
        <ele>29.0909</ele>
        <time>1970-01-01T01:00:00Z</time>
      </trkpt>
      <trkpt lat="60.484926" lon="22.207703">
        <ele>28.8182</ele>
        <time>1970-01-01T01:00:00Z</time>
      </trkpt>
      <trkpt lat="60.484864" lon="22.207371">
        <ele>28.5455</ele>
        <time>1970-01-01T01:00:00Z</time>
      </trkpt>
      <trkpt lat="60.484787" lon="22.207189">
        <ele>28.2727</ele>
        <time>1970-01-01T01:00:00Z</time>
      </trkpt>
      <trkpt lat="60.48467" lon="22.207056">
        <ele>28</ele>
        <time>1970-01-01T01:00:00Z</time>
      </trkpt>
      <trkpt lat="60.484583" lon="22.207011">
        <ele>28</ele>
        <time>1970-01-01T01:00:00Z</time>
      </trkpt>
      <trkpt lat="60.484533" lon="22.207007">
        <ele>28</ele>
        <time>1970-01-01T01:00:00Z</time>
      </trkpt>
      <trkpt lat="60.484475" lon="22.206977">
        <ele>28</ele>
        <time>1970-01-01T01:00:00Z</time>
      </trkpt>
      <trkpt lat="60.484416" lon="22.206951">
        <ele>28</ele>
        <time>1970-01-01T01:00:00Z</time>
      </trkpt>
      <trkpt lat="60.48437" lon="22.206944">
        <ele>28</ele>
        <time>1970-01-01T01:00:00Z</time>
      </trkpt>
      <trkpt lat="60.484269" lon="22.207034">
        <ele>28.2727</ele>
        <time>1970-01-01T01:00:00Z</time>
      </trkpt>
      <trkpt lat="60.484146" lon="22.207376">
        <ele>28.5455</ele>
        <time>1970-01-01T01:00:00Z</time>
      </trkpt>
      <trkpt lat="60.484084" lon="22.207813">
        <ele>28.8182</ele>
        <time>1970-01-01T01:00:00Z</time>
      </trkpt>
      <trkpt lat="60.483986" lon="22.208247">
        <ele>29</ele>
        <time>1970-01-01T01:00:00Z</time>
      </trkpt>
      <trkpt lat="60.483933" lon="22.208358">
        <ele>29.1818</ele>
        <time>1970-01-01T01:00:00Z</time>
      </trkpt>
      <trkpt lat="60.483712" lon="22.208528">
        <ele>29.3636</ele>
        <time>1970-01-01T01:00:00Z</time>
      </trkpt>
      <trkpt lat="60.483548" lon="22.208666">
        <ele>30.1818</ele>
        <time>1970-01-01T01:00:00Z</time>
      </trkpt>
      <trkpt lat="60.483374" lon="22.208785">
        <ele>31</ele>
        <time>1970-01-01T01:00:00Z</time>
      </trkpt>
      <trkpt lat="60.483126" lon="22.208861">
        <ele>31.8182</ele>
        <time>1970-01-01T01:00:00Z</time>
      </trkpt>
      <trkpt lat="60.483015" lon="22.208695">
        <ele>32.6364</ele>
        <time>1970-01-01T01:00:00Z</time>
      </trkpt>
      <trkpt lat="60.482888" lon="22.208454">
        <ele>33.4545</ele>
        <time>1970-01-01T01:00:00Z</time>
      </trkpt>
      <trkpt lat="60.482757" lon="22.208256">
        <ele>34</ele>
        <time>1970-01-01T01:00:00Z</time>
      </trkpt>
      <trkpt lat="60.482639" lon="22.208155">
        <ele>34.5455</ele>
        <time>1970-01-01T01:00:00Z</time>
      </trkpt>
      <trkpt lat="60.482515" lon="22.207783">
        <ele>35.0909</ele>
        <time>1970-01-01T01:00:00Z</time>
      </trkpt>
      <trkpt lat="60.482406" lon="22.207466">
        <ele>35.7273</ele>
        <time>1970-01-01T01:00:00Z</time>
      </trkpt>
      <trkpt lat="60.482306" lon="22.207232">
        <ele>36.3636</ele>
        <time>1970-01-01T01:00:00Z</time>
      </trkpt>
      <trkpt lat="60.48225" lon="22.207007">
        <ele>37</ele>
        <time>1970-01-01T01:00:00Z</time>
      </trkpt>
      <trkpt lat="60.482209" lon="22.206915">
        <ele>37</ele>
        <time>1970-01-01T01:00:00Z</time>
      </trkpt>
      <trkpt lat="60.482138" lon="22.206791">
        <ele>37</ele>
        <time>1970-01-01T01:00:00Z</time>
      </trkpt>
      <trkpt lat="60.482019" lon="22.20668">
        <ele>37</ele>
        <time>1970-01-01T01:00:00Z</time>
      </trkpt>
      <trkpt lat="60.481862" lon="22.206513">
        <ele>37</ele>
        <time>1970-01-01T01:00:00Z</time>
      </trkpt>
      <trkpt lat="60.481813" lon="22.206414">
        <ele>37</ele>
        <time>1970-01-01T01:00:00Z</time>
      </trkpt>
      <trkpt lat="60.48177" lon="22.206375">
        <ele>37</ele>
        <time>1970-01-01T01:00:00Z</time>
      </trkpt>
      <trkpt lat="60.481671" lon="22.206435">
        <ele>37</ele>
        <time>1970-01-01T01:00:00Z</time>
      </trkpt>
      <trkpt lat="60.481623" lon="22.20637">
        <ele>37</ele>
        <time>1970-01-01T01:00:00Z</time>
      </trkpt>
      <trkpt lat="60.481603" lon="22.206349">
        <ele>37</ele>
        <time>1970-01-01T01:00:00Z</time>
      </trkpt>
      <trkpt lat="60.481484" lon="22.2062">
        <ele>37</ele>
        <time>1970-01-01T01:00:00Z</time>
      </trkpt>
      <trkpt lat="60.481339" lon="22.206097">
        <ele>37</ele>
        <time>1970-01-01T01:00:00Z</time>
      </trkpt>
      <trkpt lat="60.481243" lon="22.206006">
        <ele>37</ele>
        <time>1970-01-01T01:00:00Z</time>
      </trkpt>
      <trkpt lat="60.481141" lon="22.205876">
        <ele>37</ele>
        <time>1970-01-01T01:00:00Z</time>
      </trkpt>
      <trkpt lat="60.481052" lon="22.205742">
        <ele>37</ele>
        <time>1970-01-01T01:00:00Z</time>
      </trkpt>
      <trkpt lat="60.480954" lon="22.20549">
        <ele>37</ele>
        <time>1970-01-01T01:00:00Z</time>
      </trkpt>
      <trkpt lat="60.480909" lon="22.205318">
        <ele>37</ele>
        <time>1970-01-01T01:00:00Z</time>
      </trkpt>
      <trkpt lat="60.480831" lon="22.205132">
        <ele>37</ele>
        <time>1970-01-01T01:00:00Z</time>
      </trkpt>
      <trkpt lat="60.480715" lon="22.205013">
        <ele>37</ele>
        <time>1970-01-01T01:00:00Z</time>
      </trkpt>
      <trkpt lat="60.480546" lon="22.205048">
        <ele>37</ele>
        <time>1970-01-01T01:00:00Z</time>
      </trkpt>
      <trkpt lat="60.480425" lon="22.205175">
        <ele>37</ele>
        <time>1970-01-01T01:00:00Z</time>
      </trkpt>
      <trkpt lat="60.480234" lon="22.205364">
        <ele>37</ele>
        <time>1970-01-01T01:00:00Z</time>
      </trkpt>
      <trkpt lat="60.480073" lon="22.205516">
        <ele>37</ele>
        <time>1970-01-01T01:00:00Z</time>
      </trkpt>
      <trkpt lat="60.479851" lon="22.205749">
        <ele>37</ele>
        <time>1970-01-01T01:00:00Z</time>
      </trkpt>
      <trkpt lat="60.479808" lon="22.205781">
        <ele>37</ele>
        <time>1970-01-01T01:00:00Z</time>
      </trkpt>
      <trkpt lat="60.479664" lon="22.205904">
        <ele>37</ele>
        <time>1970-01-01T01:00:00Z</time>
      </trkpt>
      <trkpt lat="60.479533" lon="22.206116">
        <ele>37</ele>
        <time>1970-01-01T01:00:00Z</time>
      </trkpt>
      <trkpt lat="60.479528" lon="22.206328">
        <ele>37</ele>
        <time>1970-01-01T01:00:00Z</time>
      </trkpt>
      <trkpt lat="60.479569" lon="22.206793">
        <ele>37</ele>
        <time>1970-01-01T01:00:00Z</time>
      </trkpt>
      <trkpt lat="60.479605" lon="22.20701">
        <ele>37</ele>
        <time>1970-01-01T01:00:00Z</time>
      </trkpt>
      <trkpt lat="60.479643" lon="22.207314">
        <ele>36.3636</ele>
        <time>1970-01-01T01:00:00Z</time>
      </trkpt>
      <trkpt lat="60.479642" lon="22.20754">
        <ele>35.7273</ele>
        <time>1970-01-01T01:00:00Z</time>
      </trkpt>
      <trkpt lat="60.479594" lon="22.207909">
        <ele>35.0909</ele>
        <time>1970-01-01T01:00:00Z</time>
      </trkpt>
      <trkpt lat="60.47954" lon="22.208188">
        <ele>34.4545</ele>
        <time>1970-01-01T01:00:00Z</time>
      </trkpt>
      <trkpt lat="60.479499" lon="22.208409">
        <ele>33.8182</ele>
        <time>1970-01-01T01:00:00Z</time>
      </trkpt>
      <trkpt lat="60.479413" lon="22.208761">
        <ele>33.1818</ele>
        <time>1970-01-01T01:00:00Z</time>
      </trkpt>
      <trkpt lat="60.479401" lon="22.209082">
        <ele>32.5455</ele>
        <time>1970-01-01T01:00:00Z</time>
      </trkpt>
      <trkpt lat="60.479374" lon="22.209399">
        <ele>31.9091</ele>
        <time>1970-01-01T01:00:00Z</time>
      </trkpt>
      <trkpt lat="60.479303" lon="22.20962">
        <ele>31.2727</ele>
        <time>1970-01-01T01:00:00Z</time>
      </trkpt>
      <trkpt lat="60.479281" lon="22.209757">
        <ele>30.6364</ele>
        <time>1970-01-01T01:00:00Z</time>
      </trkpt>
      <trkpt lat="60.479276" lon="22.209838">
        <ele>30</ele>
        <time>1970-01-01T01:00:00Z</time>
      </trkpt>
      <trkpt lat="60.479226" lon="22.209975">
        <ele>30</ele>
        <time>1970-01-01T01:00:00Z</time>
      </trkpt>
      <trkpt lat="60.479197" lon="22.210105">
        <ele>30</ele>
        <time>1970-01-01T01:00:00Z</time>
      </trkpt>
      <trkpt lat="60.479189" lon="22.210151">
        <ele>30</ele>
        <time>1970-01-01T01:00:00Z</time>
      </trkpt>
      <trkpt lat="60.47917" lon="22.210248">
        <ele>30</ele>
        <time>1970-01-01T01:00:00Z</time>
      </trkpt>
      <trkpt lat="60.479157" lon="22.210433">
        <ele>30</ele>
        <time>1970-01-01T01:00:00Z</time>
      </trkpt>
      <trkpt lat="60.479163" lon="22.21072">
        <ele>30</ele>
        <time>1970-01-01T01:00:00Z</time>
      </trkpt>
      <trkpt lat="60.479146" lon="22.21089">
        <ele>30</ele>
        <time>1970-01-01T01:00:00Z</time>
      </trkpt>
      <trkpt lat="60.479167" lon="22.210923">
        <ele>30</ele>
        <time>1970-01-01T01:00:00Z</time>
      </trkpt>
      <trkpt lat="60.479215" lon="22.210989">
        <ele>30</ele>
        <time>1970-01-01T01:00:00Z</time>
      </trkpt>
      <trkpt lat="60.479235" lon="22.211124">
        <ele>30</ele>
        <time>1970-01-01T01:00:00Z</time>
      </trkpt>
      <trkpt lat="60.479284" lon="22.211192">
        <ele>30</ele>
        <time>1970-01-01T01:00:00Z</time>
      </trkpt>
      <trkpt lat="60.479363" lon="22.211323">
        <ele>30</ele>
        <time>1970-01-01T01:00:00Z</time>
      </trkpt>
      <trkpt lat="60.479387" lon="22.211383">
        <ele>30</ele>
        <time>1970-01-01T01:00:00Z</time>
      </trkpt>
      <trkpt lat="60.479467" lon="22.211483">
        <ele>30</ele>
        <time>1970-01-01T01:00:00Z</time>
      </trkpt>
      <trkpt lat="60.479634" lon="22.211618">
        <ele>30</ele>
        <time>1970-01-01T01:00:00Z</time>
      </trkpt>
      <trkpt lat="60.479792" lon="22.211831">
        <ele>30</ele>
        <time>1970-01-01T01:00:00Z</time>
      </trkpt>
      <trkpt lat="60.479983" lon="22.21216">
        <ele>30</ele>
        <time>1970-01-01T01:00:00Z</time>
      </trkpt>
      <trkpt lat="60.480063" lon="22.212285">
        <ele>30</ele>
        <time>1970-01-01T01:00:00Z</time>
      </trkpt>
      <trkpt lat="60.480161" lon="22.212377">
        <ele>30</ele>
        <time>1970-01-01T01:00:00Z</time>
      </trkpt>
      <trkpt lat="60.480379" lon="22.21239">
        <ele>30</ele>
        <time>1970-01-01T01:00:00Z</time>
      </trkpt>
      <trkpt lat="60.480496" lon="22.212371">
        <ele>30</ele>
        <time>1970-01-01T01:00:00Z</time>
      </trkpt>
      <trkpt lat="60.480644" lon="22.212291">
        <ele>30</ele>
        <time>1970-01-01T01:00:00Z</time>
      </trkpt>
      <trkpt lat="60.480787" lon="22.212344">
        <ele>30</ele>
        <time>1970-01-01T01:00:00Z</time>
      </trkpt>
      <trkpt lat="60.480968" lon="22.21244">
        <ele>30</ele>
        <time>1970-01-01T01:00:00Z</time>
      </trkpt>
      <trkpt lat="60.481081" lon="22.212505">
        <ele>30</ele>
        <time>1970-01-01T01:00:00Z</time>
      </trkpt>
      <trkpt lat="60.481246" lon="22.212651">
        <ele>30</ele>
        <time>1970-01-01T01:00:00Z</time>
      </trkpt>
      <trkpt lat="60.481427" lon="22.212799">
        <ele>30</ele>
        <time>1970-01-01T01:00:00Z</time>
      </trkpt>
      <trkpt lat="60.481537" lon="22.212958">
        <ele>30</ele>
        <time>1970-01-01T01:00:00Z</time>
      </trkpt>
      <trkpt lat="60.481652" lon="22.21295">
        <ele>30</ele>
        <time>1970-01-01T01:00:00Z</time>
      </trkpt>
      <trkpt lat="60.481736" lon="22.212855">
        <ele>30</ele>
        <time>1970-01-01T01:00:00Z</time>
      </trkpt>
      <trkpt lat="60.481821" lon="22.212671">
        <ele>30</ele>
        <time>1970-01-01T01:00:00Z</time>
      </trkpt>
      <trkpt lat="60.48192" lon="22.212375">
        <ele>30</ele>
        <time>1970-01-01T01:00:00Z</time>
      </trkpt>
      <trkpt lat="60.482035" lon="22.212107">
        <ele>30</ele>
        <time>1970-01-01T01:00:00Z</time>
      </trkpt>
      <trkpt lat="60.482158" lon="22.211927">
        <ele>30</ele>
        <time>1970-01-01T01:00:00Z</time>
      </trkpt>
      <trkpt lat="60.482191" lon="22.211882">
        <ele>30</ele>
        <time>1970-01-01T01:00:00Z</time>
      </trkpt>
      <trkpt lat="60.48242" lon="22.211715">
        <ele>30</ele>
        <time>1970-01-01T01:00:00Z</time>
      </trkpt>
      <trkpt lat="60.482468" lon="22.211686">
        <ele>30</ele>
        <time>1970-01-01T01:00:00Z</time>
      </trkpt>
      <trkpt lat="60.482552" lon="22.21165">
        <ele>30</ele>
        <time>1970-01-01T01:00:00Z</time>
      </trkpt>
      <trkpt lat="60.482734" lon="22.211743">
        <ele>30</ele>
        <time>1970-01-01T01:00:00Z</time>
      </trkpt>
      <trkpt lat="60.48289" lon="22.212041">
        <ele>30</ele>
        <time>1970-01-01T01:00:00Z</time>
      </trkpt>
      <trkpt lat="60.482961" lon="22.212228">
        <ele>30.0909</ele>
        <time>1970-01-01T01:00:00Z</time>
      </trkpt>
      <trkpt lat="60.48297" lon="22.212265">
        <ele>30.1818</ele>
        <time>1970-01-01T01:00:00Z</time>
      </trkpt>
      <trkpt lat="60.483059" lon="22.212411">
        <ele>30.2727</ele>
        <time>1970-01-01T01:00:00Z</time>
      </trkpt>
      <trkpt lat="60.483169" lon="22.212518">
        <ele>30.3636</ele>
        <time>1970-01-01T01:00:00Z</time>
      </trkpt>
      <trkpt lat="60.483309" lon="22.212629">
        <ele>30.4545</ele>
        <time>1970-01-01T01:00:00Z</time>
      </trkpt>
      <trkpt lat="60.483448" lon="22.212657">
        <ele>30.5455</ele>
        <time>1970-01-01T01:00:00Z</time>
      </trkpt>
      <trkpt lat="60.483586" lon="22.212676">
        <ele>30.6364</ele>
        <time>1970-01-01T01:00:00Z</time>
      </trkpt>
      <trkpt lat="60.483646" lon="22.212666">
        <ele>30.7273</ele>
        <time>1970-01-01T01:00:00Z</time>
      </trkpt>
      <trkpt lat="60.483757" lon="22.212709">
        <ele>30.8182</ele>
        <time>1970-01-01T01:00:00Z</time>
      </trkpt>
      <trkpt lat="60.483841" lon="22.212696">
        <ele>30.9091</ele>
        <time>1970-01-01T01:00:00Z</time>
      </trkpt>
      <trkpt lat="60.48395" lon="22.212835">
        <ele>31</ele>
        <time>1970-01-01T01:00:00Z</time>
      </trkpt>
      <trkpt lat="60.484055" lon="22.213129">
        <ele>31</ele>
        <time>1970-01-01T01:00:00Z</time>
      </trkpt>
      <trkpt lat="60.484101" lon="22.213376">
        <ele>31</ele>
        <time>1970-01-01T01:00:00Z</time>
      </trkpt>
      <trkpt lat="60.484134" lon="22.213539">
        <ele>31</ele>
        <time>1970-01-01T01:00:00Z</time>
      </trkpt>
      <trkpt lat="60.484214" lon="22.213834">
        <ele>31</ele>
        <time>1970-01-01T01:00:00Z</time>
      </trkpt>
      <trkpt lat="60.484273" lon="22.214202">
        <ele>31</ele>
        <time>1970-01-01T01:00:00Z</time>
      </trkpt>
      <trkpt lat="60.484279" lon="22.214535">
        <ele>31</ele>
        <time>1970-01-01T01:00:00Z</time>
      </trkpt>
      <trkpt lat="60.484215" lon="22.214995">
        <ele>31</ele>
        <time>1970-01-01T01:00:00Z</time>
      </trkpt>
      <trkpt lat="60.484202" lon="22.215133">
        <ele>31</ele>
        <time>1970-01-01T01:00:00Z</time>
      </trkpt>
      <trkpt lat="60.484243" lon="22.215461">
        <ele>29.4545</ele>
        <time>1970-01-01T01:00:00Z</time>
      </trkpt>
      <trkpt lat="60.484356" lon="22.215733">
        <ele>27.9091</ele>
        <time>1970-01-01T01:00:00Z</time>
      </trkpt>
      <trkpt lat="60.484469" lon="22.216026">
        <ele>26.3636</ele>
        <time>1970-01-01T01:00:00Z</time>
      </trkpt>
      <trkpt lat="60.48457" lon="22.216414">
        <ele>24.8182</ele>
        <time>1970-01-01T01:00:00Z</time>
      </trkpt>
      <trkpt lat="60.484757" lon="22.216754">
        <ele>23.2727</ele>
        <time>1970-01-01T01:00:00Z</time>
      </trkpt>
      <trkpt lat="60.485028" lon="22.216899">
        <ele>21.7273</ele>
        <time>1970-01-01T01:00:00Z</time>
      </trkpt>
      <trkpt lat="60.48518" lon="22.217185">
        <ele>20.1818</ele>
        <time>1970-01-01T01:00:00Z</time>
      </trkpt>
      <trkpt lat="60.485144" lon="22.217556">
        <ele>18.6364</ele>
        <time>1970-01-01T01:00:00Z</time>
      </trkpt>
      <trkpt lat="60.485111" lon="22.217752">
        <ele>17.0909</ele>
        <time>1970-01-01T01:00:00Z</time>
      </trkpt>
      <trkpt lat="60.485102" lon="22.218122">
        <ele>15.5455</ele>
        <time>1970-01-01T01:00:00Z</time>
      </trkpt>
      <trkpt lat="60.485087" lon="22.218374">
        <ele>14</ele>
        <time>1970-01-01T01:00:00Z</time>
      </trkpt>
      <trkpt lat="60.48514" lon="22.218624">
        <ele>14</ele>
        <time>1970-01-01T01:00:00Z</time>
      </trkpt>
      <trkpt lat="60.485212" lon="22.218818">
        <ele>14</ele>
        <time>1970-01-01T01:00:00Z</time>
      </trkpt>
      <trkpt lat="60.485295" lon="22.21888">
        <ele>14</ele>
        <time>1970-01-01T01:00:00Z</time>
      </trkpt>
      <trkpt lat="60.485373" lon="22.218949">
        <ele>14</ele>
        <time>1970-01-01T01:00:00Z</time>
      </trkpt>
      <trkpt lat="60.485419" lon="22.219092">
        <ele>14</ele>
        <time>1970-01-01T01:00:00Z</time>
      </trkpt>
      <trkpt lat="60.485525" lon="22.219374">
        <ele>14</ele>
        <time>1970-01-01T01:00:00Z</time>
      </trkpt>
      <trkpt lat="60.485643" lon="22.219617">
        <ele>14</ele>
        <time>1970-01-01T01:00:00Z</time>
      </trkpt>
      <trkpt lat="60.485815" lon="22.219837">
        <ele>14</ele>
        <time>1970-01-01T01:00:00Z</time>
      </trkpt>
      <trkpt lat="60.485862" lon="22.219933">
        <ele>14</ele>
        <time>1970-01-01T01:00:00Z</time>
      </trkpt>
      <trkpt lat="60.485914" lon="22.220256">
        <ele>14</ele>
        <time>1970-01-01T01:00:00Z</time>
      </trkpt>
      <trkpt lat="60.485939" lon="22.220481">
        <ele>14</ele>
        <time>1970-01-01T01:00:00Z</time>
      </trkpt>
      <trkpt lat="60.485951" lon="22.220553">
        <ele>14</ele>
        <time>1970-01-01T01:00:00Z</time>
      </trkpt>
      <trkpt lat="60.486025" lon="22.220972">
        <ele>14</ele>
        <time>1970-01-01T01:00:00Z</time>
      </trkpt>
      <trkpt lat="60.486077" lon="22.221158">
        <ele>14</ele>
        <time>1970-01-01T01:00:00Z</time>
      </trkpt>
      <trkpt lat="60.486084" lon="22.221397">
        <ele>14</ele>
        <time>1970-01-01T01:00:00Z</time>
      </trkpt>
      <trkpt lat="60.486077" lon="22.221639">
        <ele>14</ele>
        <time>1970-01-01T01:00:00Z</time>
      </trkpt>
      <trkpt lat="60.486081" lon="22.221841">
        <ele>14</ele>
        <time>1970-01-01T01:00:00Z</time>
      </trkpt>
      <trkpt lat="60.486188" lon="22.221961">
        <ele>14</ele>
        <time>1970-01-01T01:00:00Z</time>
      </trkpt>
      <trkpt lat="60.486228" lon="22.221937">
        <ele>14</ele>
        <time>1970-01-01T01:00:00Z</time>
      </trkpt>
      <trkpt lat="60.486453" lon="22.221602">
        <ele>14</ele>
        <time>1970-01-01T01:00:00Z</time>
      </trkpt>
      <trkpt lat="60.486624" lon="22.221412">
        <ele>14</ele>
        <time>1970-01-01T01:00:00Z</time>
      </trkpt>
      <trkpt lat="60.486692" lon="22.221363">
        <ele>14</ele>
        <time>1970-01-01T01:00:00Z</time>
      </trkpt>
      <trkpt lat="60.486812" lon="22.221223">
        <ele>14</ele>
        <time>1970-01-01T01:00:00Z</time>
      </trkpt>
      <trkpt lat="60.486951" lon="22.220974">
        <ele>14</ele>
        <time>1970-01-01T01:00:00Z</time>
      </trkpt>
      <trkpt lat="60.48707" lon="22.220821">
        <ele>14</ele>
        <time>1970-01-01T01:00:00Z</time>
      </trkpt>
      <trkpt lat="60.487173" lon="22.220688">
        <ele>14</ele>
        <time>1970-01-01T01:00:00Z</time>
      </trkpt>
      <trkpt lat="60.487253" lon="22.220573">
        <ele>14</ele>
        <time>1970-01-01T01:00:00Z</time>
      </trkpt>
      <trkpt lat="60.487331" lon="22.220481">
        <ele>14</ele>
        <time>1970-01-01T01:00:00Z</time>
      </trkpt>
      <trkpt lat="60.487422" lon="22.220352">
        <ele>14</ele>
        <time>1970-01-01T01:00:00Z</time>
      </trkpt>
      <trkpt lat="60.487463" lon="22.220223">
        <ele>14</ele>
        <time>1970-01-01T01:00:00Z</time>
      </trkpt>
      <trkpt lat="60.487568" lon="22.220007">
        <ele>14</ele>
        <time>1970-01-01T01:00:00Z</time>
      </trkpt>
      <trkpt lat="60.487606" lon="22.219947">
        <ele>14</ele>
        <time>1970-01-01T01:00:00Z</time>
      </trkpt>
      <trkpt lat="60.487704" lon="22.219736">
        <ele>14</ele>
        <time>1970-01-01T01:00:00Z</time>
      </trkpt>
      <trkpt lat="60.487791" lon="22.219545">
        <ele>14</ele>
        <time>1970-01-01T01:00:00Z</time>
      </trkpt>
      <trkpt lat="60.48787" lon="22.21929">
        <ele>14</ele>
        <time>1970-01-01T01:00:00Z</time>
      </trkpt>
      <trkpt lat="60.48794" lon="22.218897">
        <ele>14</ele>
        <time>1970-01-01T01:00:00Z</time>
      </trkpt>
      <trkpt lat="60.48804" lon="22.218168">
        <ele>15.5455</ele>
        <time>1970-01-01T01:00:00Z</time>
      </trkpt>
      <trkpt lat="60.488051" lon="22.218057">
        <ele>17.0909</ele>
        <time>1970-01-01T01:00:00Z</time>
      </trkpt>
      <trkpt lat="60.488108" lon="22.217629">
        <ele>18.6364</ele>
        <time>1970-01-01T01:00:00Z</time>
      </trkpt>
      <trkpt lat="60.488161" lon="22.217275">
        <ele>20.1818</ele>
        <time>1970-01-01T01:00:00Z</time>
      </trkpt>
      <trkpt lat="60.488179" lon="22.216847">
        <ele>21.7273</ele>
        <time>1970-01-01T01:00:00Z</time>
      </trkpt>
      <trkpt lat="60.488197" lon="22.216597">
        <ele>23.2727</ele>
        <time>1970-01-01T01:00:00Z</time>
      </trkpt>
      <trkpt lat="60.488129" lon="22.216274">
        <ele>24.8182</ele>
        <time>1970-01-01T01:00:00Z</time>
      </trkpt>
      <trkpt lat="60.488097" lon="22.216233">
        <ele>26.3636</ele>
        <time>1970-01-01T01:00:00Z</time>
      </trkpt>
      <trkpt lat="60.487906" lon="22.21611">
        <ele>27.9091</ele>
        <time>1970-01-01T01:00:00Z</time>
      </trkpt>
      <trkpt lat="60.487877" lon="22.216094">
        <ele>29.4545</ele>
        <time>1970-01-01T01:00:00Z</time>
      </trkpt>
      <trkpt lat="60.487695" lon="22.216008">
        <ele>31</ele>
        <time>1970-01-01T01:00:00Z</time>
      </trkpt>
      <trkpt lat="60.487525" lon="22.215977">
        <ele>31</ele>
        <time>1970-01-01T01:00:00Z</time>
      </trkpt>
      <trkpt lat="60.487461" lon="22.215756">
        <ele>31</ele>
        <time>1970-01-01T01:00:00Z</time>
      </trkpt>
      <trkpt lat="60.487436" lon="22.215701">
        <ele>31</ele>
        <time>1970-01-01T01:00:00Z</time>
      </trkpt>
      <trkpt lat="60.487338" lon="22.215471">
        <ele>31</ele>
        <time>1970-01-01T01:00:00Z</time>
      </trkpt>
      <trkpt lat="60.487238" lon="22.21522">
        <ele>31</ele>
        <time>1970-01-01T01:00:00Z</time>
      </trkpt>
      <trkpt lat="60.487081" lon="22.214927">
        <ele>31</ele>
        <time>1970-01-01T01:00:00Z</time>
      </trkpt>
      <trkpt lat="60.487034" lon="22.21446">
        <ele>31</ele>
        <time>1970-01-01T01:00:00Z</time>
      </trkpt>
      <trkpt lat="60.487029" lon="22.21437">
        <ele>31</ele>
        <time>1970-01-01T01:00:00Z</time>
      </trkpt>
      <trkpt lat="60.487037" lon="22.214205">
        <ele>31</ele>
        <time>1970-01-01T01:00:00Z</time>
      </trkpt>
      <trkpt lat="60.487126" lon="22.213842">
        <ele>31</ele>
        <time>1970-01-01T01:00:00Z</time>
      </trkpt>
      <trkpt lat="60.487216" lon="22.213406">
        <ele>31</ele>
        <time>1970-01-01T01:00:00Z</time>
      </trkpt>
      <trkpt lat="60.487268" lon="22.213022">
        <ele>31</ele>
        <time>1970-01-01T01:00:00Z</time>
      </trkpt>
      <trkpt lat="60.487294" lon="22.212851">
        <ele>31</ele>
        <time>1970-01-01T01:00:00Z</time>
      </trkpt>
      <trkpt lat="60.487327" lon="22.212613">
        <ele>31</ele>
        <time>1970-01-01T01:00:00Z</time>
      </trkpt>
      <trkpt lat="60.487353" lon="22.212381">
        <ele>31</ele>
        <time>1970-01-01T01:00:00Z</time>
      </trkpt>
      <trkpt lat="60.487431" lon="22.21198">
        <ele>31</ele>
        <time>1970-01-01T01:00:00Z</time>
      </trkpt>
      <trkpt lat="60.487464" lon="22.211821">
        <ele>31</ele>
        <time>1970-01-01T01:00:00Z</time>
      </trkpt>
      <trkpt lat="60.48752" lon="22.211594">
        <ele>31</ele>
        <time>1970-01-01T01:00:00Z</time>
      </trkpt>
      <trkpt lat="60.487545" lon="22.211391">
        <ele>31</ele>
        <time>1970-01-01T01:00:00Z</time>
      </trkpt>
      <trkpt lat="60.487582" lon="22.211016">
        <ele>31</ele>
        <time>1970-01-01T01:00:00Z</time>
      </trkpt>
      <trkpt lat="60.487567" lon="22.210681">
        <ele>31</ele>
        <time>1970-01-01T01:00:00Z</time>
      </trkpt>
      <trkpt lat="60.4875" lon="22.21028">
        <ele>31</ele>
        <time>1970-01-01T01:00:00Z</time>
      </trkpt>
      <trkpt lat="60.487451" lon="22.209937">
        <ele>31</ele>
        <time>1970-01-01T01:00:00Z</time>
      </trkpt>
      <trkpt lat="60.487363" lon="22.209497">
        <ele>30.7273</ele>
        <time>1970-01-01T01:00:00Z</time>
      </trkpt>
      <trkpt lat="60.487331" lon="22.209313">
        <ele>30.4545</ele>
        <time>1970-01-01T01:00:00Z</time>
      </trkpt>
      <trkpt lat="60.487298" lon="22.209022">
        <ele>30.1818</ele>
        <time>1970-01-01T01:00:00Z</time>
      </trkpt>
      <trkpt lat="60.487257" lon="22.208744">
        <ele>29.9091</ele>
        <time>1970-01-01T01:00:00Z</time>
      </trkpt>
      <trkpt lat="60.487207" lon="22.208513">
        <ele>29.6364</ele>
        <time>1970-01-01T01:00:00Z</time>
      </trkpt>
      <trkpt lat="60.487114" lon="22.208271">
        <ele>29.3636</ele>
        <time>1970-01-01T01:00:00Z</time>
      </trkpt>
      <trkpt lat="60.486953" lon="22.208068">
        <ele>29.0909</ele>
        <time>1970-01-01T01:00:00Z</time>
      </trkpt>
      <trkpt lat="60.486861" lon="22.208057">
        <ele>29.0909</ele>
        <time>1970-01-01T01:00:00Z</time>
      </trkpt>
      <trkpt lat="60.486692" lon="22.208188">
        <ele>29.0909</ele>
        <time>1970-01-01T01:00:00Z</time>
      </trkpt>
      <trkpt lat="60.486614" lon="22.208249">
        <ele>29.0909</ele>
        <time>1970-01-01T01:00:00Z</time>
      </trkpt>
      <trkpt lat="60.486555" lon="22.2083">
        <ele>29.0909</ele>
        <time>1970-01-01T01:00:00Z</time>
      </trkpt>
      <trkpt lat="60.486438" lon="22.208413">
        <ele>29.3636</ele>
        <time>1970-01-01T01:00:00Z</time>
      </trkpt>
      <trkpt lat="60.486405" lon="22.208437">
        <ele>29.6364</ele>
        <time>1970-01-01T01:00:00Z</time>
      </trkpt>
      <trkpt lat="60.486334" lon="22.20849">
        <ele>29.9091</ele>
        <time>1970-01-01T01:00:00Z</time>
      </trkpt>
      <trkpt lat="60.48622" lon="22.208576">
        <ele>30.1818</ele>
        <time>1970-01-01T01:00:00Z</time>
      </trkpt>
      <trkpt lat="60.486078" lon="22.208699">
        <ele>30.4545</ele>
        <time>1970-01-01T01:00:00Z</time>
      </trkpt>
      <trkpt lat="60.485952" lon="22.208665">
        <ele>30.7273</ele>
        <time>1970-01-01T01:00:00Z</time>
      </trkpt>
      <trkpt lat="60.48585" lon="22.208612">
        <ele>31</ele>
        <time>1970-01-01T01:00:00Z</time>
      </trkpt>
      <trkpt lat="60.485816" lon="22.208579">
        <ele>31</ele>
        <time>1970-01-01T01:00:00Z</time>
      </trkpt>
      <trkpt lat="60.485748" lon="22.20856">
        <ele>31</ele>
        <time>1970-01-01T01:00:00Z</time>
      </trkpt>
      <trkpt lat="60.485626" lon="22.208646">
        <ele>30.7273</ele>
        <time>1970-01-01T01:00:00Z</time>
      </trkpt>
      <trkpt lat="60.485536" lon="22.208739">
        <ele>30.4545</ele>
        <time>1970-01-01T01:00:00Z</time>
      </trkpt>
      <trkpt lat="60.485415" lon="22.208832">
        <ele>30.1818</ele>
        <time>1970-01-01T01:00:00Z</time>
      </trkpt>
      <trkpt lat="60.48522" lon="22.208777">
        <ele>29.9091</ele>
        <time>1970-01-01T01:00:00Z</time>
      </trkpt>
      <trkpt lat="60.485033" lon="22.208597">
        <ele>29.6364</ele>
        <time>1970-01-01T01:00:00Z</time>
      </trkpt>
      <trkpt lat="60.484974" lon="22.208389">
        <ele>29.3636</ele>
        <time>1970-01-01T01:00:00Z</time>
      </trkpt>
      <trkpt lat="60.484999" lon="22.208198">
        <ele>29.0909</ele>
        <time>1970-01-01T01:00:00Z</time>
      </trkpt>
      <trkpt lat="60.485003" lon="22.208106">
        <ele>28.8182</ele>
        <time>1970-01-01T01:00:00Z</time>
      </trkpt>
      <trkpt lat="60.484982" lon="22.207808">
        <ele>28.5455</ele>
        <time>1970-01-01T01:00:00Z</time>
      </trkpt>
      <trkpt lat="60.484945" lon="22.207507">
        <ele>28.2727</ele>
        <time>1970-01-01T01:00:00Z</time>
      </trkpt>
      <trkpt lat="60.484928" lon="22.207431">
        <ele>28</ele>
        <time>1970-01-01T01:00:00Z</time>
      </trkpt>
      <trkpt lat="60.484801" lon="22.207196">
        <ele>28</ele>
        <time>1970-01-01T01:00:00Z</time>
      </trkpt>
      <trkpt lat="60.484667" lon="22.207012">
        <ele>28</ele>
        <time>1970-01-01T01:00:00Z</time>
      </trkpt>
      <trkpt lat="60.484543" lon="22.20695">
        <ele>28</ele>
        <time>1970-01-01T01:00:00Z</time>
      </trkpt>
      <trkpt lat="60.484456" lon="22.206937">
        <ele>28</ele>
        <time>1970-01-01T01:00:00Z</time>
      </trkpt>
      <trkpt lat="60.48444" lon="22.206939">
        <ele>28</ele>
        <time>1970-01-01T01:00:00Z</time>
      </trkpt>
      <trkpt lat="60.484375" lon="22.206944">
        <ele>28</ele>
        <time>1970-01-01T01:00:00Z</time>
      </trkpt>
      <trkpt lat="60.484308" lon="22.206982">
        <ele>28</ele>
        <time>1970-01-01T01:00:00Z</time>
      </trkpt>
      <trkpt lat="60.484237" lon="22.207234">
        <ele>28.2727</ele>
        <time>1970-01-01T01:00:00Z</time>
      </trkpt>
      <trkpt lat="60.484192" lon="22.207601">
        <ele>28.5455</ele>
        <time>1970-01-01T01:00:00Z</time>
      </trkpt>
      <trkpt lat="60.484133" lon="22.207898">
        <ele>28.8182</ele>
        <time>1970-01-01T01:00:00Z</time>
      </trkpt>
      <trkpt lat="60.484006" lon="22.208222">
        <ele>29.0909</ele>
        <time>1970-01-01T01:00:00Z</time>
      </trkpt>
      <trkpt lat="60.483853" lon="22.208387">
        <ele>29.2727</ele>
        <time>1970-01-01T01:00:00Z</time>
      </trkpt>
      <trkpt lat="60.48378" lon="22.208462">
        <ele>29.4545</ele>
        <time>1970-01-01T01:00:00Z</time>
      </trkpt>
      <trkpt lat="60.483709" lon="22.208529">
        <ele>29.6364</ele>
        <time>1970-01-01T01:00:00Z</time>
      </trkpt>
      <trkpt lat="60.483525" lon="22.208664">
        <ele>29.8182</ele>
        <time>1970-01-01T01:00:00Z</time>
      </trkpt>
      <trkpt lat="60.483468" lon="22.208702">
        <ele>30.6364</ele>
        <time>1970-01-01T01:00:00Z</time>
      </trkpt>
      <trkpt lat="60.483283" lon="22.208855">
        <ele>31.4545</ele>
        <time>1970-01-01T01:00:00Z</time>
      </trkpt>
      <trkpt lat="60.483233" lon="22.208871">
        <ele>32.2727</ele>
        <time>1970-01-01T01:00:00Z</time>
      </trkpt>
      <trkpt lat="60.483126" lon="22.208712">
        <ele>32.8182</ele>
        <time>1970-01-01T01:00:00Z</time>
      </trkpt>
      <trkpt lat="60.483097" lon="22.208597">
        <ele>33.3636</ele>
        <time>1970-01-01T01:00:00Z</time>
      </trkpt>
      <trkpt lat="60.482941" lon="22.208296">
        <ele>33.9091</ele>
        <time>1970-01-01T01:00:00Z</time>
      </trkpt>
      <trkpt lat="60.482751" lon="22.208131">
        <ele>34.4545</ele>
        <time>1970-01-01T01:00:00Z</time>
      </trkpt>
      <trkpt lat="60.48272" lon="22.208077">
        <ele>35.0909</ele>
        <time>1970-01-01T01:00:00Z</time>
      </trkpt>
      <trkpt lat="60.482547" lon="22.207686">
        <ele>35.7273</ele>
        <time>1970-01-01T01:00:00Z</time>
      </trkpt>
      <trkpt lat="60.482433" lon="22.207462">
        <ele>36.3636</ele>
        <time>1970-01-01T01:00:00Z</time>
      </trkpt>
      <trkpt lat="60.48241" lon="22.207412">
        <ele>37</ele>
        <time>1970-01-01T01:00:00Z</time>
      </trkpt>
      <trkpt lat="60.482265" lon="22.207041">
        <ele>37</ele>
        <time>1970-01-01T01:00:00Z</time>
      </trkpt>
      <trkpt lat="60.482176" lon="22.206793">
        <ele>37</ele>
        <time>1970-01-01T01:00:00Z</time>
      </trkpt>
      <trkpt lat="60.482092" lon="22.206641">
        <ele>37</ele>
        <time>1970-01-01T01:00:00Z</time>
      </trkpt>
      <trkpt lat="60.481959" lon="22.206458">
        <ele>37</ele>
        <time>1970-01-01T01:00:00Z</time>
      </trkpt>
      <trkpt lat="60.481865" lon="22.206386">
        <ele>37</ele>
        <time>1970-01-01T01:00:00Z</time>
      </trkpt>
      <trkpt lat="60.481847" lon="22.206373">
        <ele>37</ele>
        <time>1970-01-01T01:00:00Z</time>
      </trkpt>
      <trkpt lat="60.481725" lon="22.206388">
        <ele>37</ele>
        <time>1970-01-01T01:00:00Z</time>
      </trkpt>
      <trkpt lat="60.481622" lon="22.206364">
        <ele>37</ele>
        <time>1970-01-01T01:00:00Z</time>
      </trkpt>
      <trkpt lat="60.481515" lon="22.206266">
        <ele>37</ele>
        <time>1970-01-01T01:00:00Z</time>
      </trkpt>
      <trkpt lat="60.481397" lon="22.20611">
        <ele>37</ele>
        <time>1970-01-01T01:00:00Z</time>
      </trkpt>
      <trkpt lat="60.481246" lon="22.205985">
        <ele>37</ele>
        <time>1970-01-01T01:00:00Z</time>
      </trkpt>
      <trkpt lat="60.481077" lon="22.205828">
        <ele>37</ele>
        <time>1970-01-01T01:00:00Z</time>
      </trkpt>
      <trkpt lat="60.480954" lon="22.205637">
        <ele>37</ele>
        <time>1970-01-01T01:00:00Z</time>
      </trkpt>
      <trkpt lat="60.480858" lon="22.205404">
        <ele>37</ele>
        <time>1970-01-01T01:00:00Z</time>
      </trkpt>
      <trkpt lat="60.480775" lon="22.205155">
        <ele>37</ele>
        <time>1970-01-01T01:00:00Z</time>
      </trkpt>
      <trkpt lat="60.480687" lon="22.205069">
        <ele>37</ele>
        <time>1970-01-01T01:00:00Z</time>
      </trkpt>
      <trkpt lat="60.480545" lon="22.205047">
        <ele>37</ele>
        <time>1970-01-01T01:00:00Z</time>
      </trkpt>
      <trkpt lat="60.480355" lon="22.205152">
        <ele>37</ele>
        <time>1970-01-01T01:00:00Z</time>
      </trkpt>
      <trkpt lat="60.480154" lon="22.205332">
        <ele>37</ele>
        <time>1970-01-01T01:00:00Z</time>
      </trkpt>
      <trkpt lat="60.479971" lon="22.205529">
        <ele>37</ele>
        <time>1970-01-01T01:00:00Z</time>
      </trkpt>
      <trkpt lat="60.47977" lon="22.205733">
        <ele>37</ele>
        <time>1970-01-01T01:00:00Z</time>
      </trkpt>
      <trkpt lat="60.479736" lon="22.205768">
        <ele>37</ele>
        <time>1970-01-01T01:00:00Z</time>
      </trkpt>
      <trkpt lat="60.479578" lon="22.205919">
        <ele>37</ele>
        <time>1970-01-01T01:00:00Z</time>
      </trkpt>
      <trkpt lat="60.479534" lon="22.206238">
        <ele>37</ele>
        <time>1970-01-01T01:00:00Z</time>
      </trkpt>
      <trkpt lat="60.479533" lon="22.206474">
        <ele>37</ele>
        <time>1970-01-01T01:00:00Z</time>
      </trkpt>
      <trkpt lat="60.479555" lon="22.206954">
        <ele>37</ele>
        <time>1970-01-01T01:00:00Z</time>
      </trkpt>
      <trkpt lat="60.479604" lon="22.207202">
        <ele>37</ele>
        <time>1970-01-01T01:00:00Z</time>
      </trkpt>
      <trkpt lat="60.47962" lon="22.207448">
        <ele>37</ele>
        <time>1970-01-01T01:00:00Z</time>
      </trkpt>
      <trkpt lat="60.479591" lon="22.207837">
        <ele>36.3636</ele>
        <time>1970-01-01T01:00:00Z</time>
      </trkpt>
      <trkpt lat="60.479553" lon="22.208003">
        <ele>35.7273</ele>
        <time>1970-01-01T01:00:00Z</time>
      </trkpt>
      <trkpt lat="60.479496" lon="22.208174">
        <ele>35.0909</ele>
        <time>1970-01-01T01:00:00Z</time>
      </trkpt>
      <trkpt lat="60.479453" lon="22.208346">
        <ele>34.4545</ele>
        <time>1970-01-01T01:00:00Z</time>
      </trkpt>
      <trkpt lat="60.479439" lon="22.208415">
        <ele>33.8182</ele>
        <time>1970-01-01T01:00:00Z</time>
      </trkpt>
      <trkpt lat="60.479401" lon="22.208706">
        <ele>33.1818</ele>
        <time>1970-01-01T01:00:00Z</time>
      </trkpt>
      <trkpt lat="60.479381" lon="22.209122">
        <ele>32.5455</ele>
        <time>1970-01-01T01:00:00Z</time>
      </trkpt>
      <trkpt lat="60.479356" lon="22.209292">
        <ele>31.9091</ele>
        <time>1970-01-01T01:00:00Z</time>
      </trkpt>
      <trkpt lat="60.479298" lon="22.209603">
        <ele>31.2727</ele>
        <time>1970-01-01T01:00:00Z</time>
      </trkpt>
      <trkpt lat="60.479277" lon="22.209853">
        <ele>30.6364</ele>
        <time>1970-01-01T01:00:00Z</time>
      </trkpt>
      <trkpt lat="60.479256" lon="22.210028">
        <ele>30</ele>
        <time>1970-01-01T01:00:00Z</time>
      </trkpt>
      <trkpt lat="60.479218" lon="22.210264">
        <ele>30</ele>
        <time>1970-01-01T01:00:00Z</time>
      </trkpt>
      <trkpt lat="60.479211" lon="22.210344">
        <ele>30</ele>
        <time>1970-01-01T01:00:00Z</time>
      </trkpt>
      <trkpt lat="60.479186" lon="22.210536">
        <ele>30</ele>
        <time>1970-01-01T01:00:00Z</time>
      </trkpt>
      <trkpt lat="60.479193" lon="22.210716">
        <ele>30</ele>
        <time>1970-01-01T01:00:00Z</time>
      </trkpt>
      <trkpt lat="60.479226" lon="22.210882">
        <ele>30</ele>
        <time>1970-01-01T01:00:00Z</time>
      </trkpt>
      <trkpt lat="60.479238" lon="22.211004">
        <ele>30</ele>
        <time>1970-01-01T01:00:00Z</time>
      </trkpt>
      <trkpt lat="60.479264" lon="22.211087">
        <ele>30</ele>
        <time>1970-01-01T01:00:00Z</time>
      </trkpt>
      <trkpt lat="60.479315" lon="22.211293">
        <ele>30</ele>
        <time>1970-01-01T01:00:00Z</time>
      </trkpt>
      <trkpt lat="60.479352" lon="22.211387">
        <ele>30</ele>
        <time>1970-01-01T01:00:00Z</time>
      </trkpt>
      <trkpt lat="60.479389" lon="22.2115">
        <ele>30</ele>
        <time>1970-01-01T01:00:00Z</time>
      </trkpt>
      <trkpt lat="60.479425" lon="22.211555">
        <ele>30</ele>
        <time>1970-01-01T01:00:00Z</time>
      </trkpt>
      <trkpt lat="60.479628" lon="22.211708">
        <ele>30</ele>
        <time>1970-01-01T01:00:00Z</time>
      </trkpt>
      <trkpt lat="60.479792" lon="22.211898">
        <ele>30</ele>
        <time>1970-01-01T01:00:00Z</time>
      </trkpt>
      <trkpt lat="60.479928" lon="22.212345">
        <ele>30</ele>
        <time>1970-01-01T01:00:00Z</time>
      </trkpt>
      <trkpt lat="60.479979" lon="22.212415">
        <ele>30</ele>
        <time>1970-01-01T01:00:00Z</time>
      </trkpt>
      <trkpt lat="60.480135" lon="22.212476">
        <ele>30</ele>
        <time>1970-01-01T01:00:00Z</time>
      </trkpt>
      <trkpt lat="60.480314" lon="22.212458">
        <ele>30</ele>
        <time>1970-01-01T01:00:00Z</time>
      </trkpt>
      <trkpt lat="60.480448" lon="22.212405">
        <ele>30</ele>
        <time>1970-01-01T01:00:00Z</time>
      </trkpt>
      <trkpt lat="60.48062" lon="22.212316">
        <ele>30</ele>
        <time>1970-01-01T01:00:00Z</time>
      </trkpt>
      <trkpt lat="60.480793" lon="22.212358">
        <ele>30</ele>
        <time>1970-01-01T01:00:00Z</time>
      </trkpt>
      <trkpt lat="60.480925" lon="22.212463">
        <ele>30</ele>
        <time>1970-01-01T01:00:00Z</time>
      </trkpt>
      <trkpt lat="60.481074" lon="22.212496">
        <ele>30</ele>
        <time>1970-01-01T01:00:00Z</time>
      </trkpt>
      <trkpt lat="60.481191" lon="22.212578">
        <ele>30</ele>
        <time>1970-01-01T01:00:00Z</time>
      </trkpt>
      <trkpt lat="60.481344" lon="22.212743">
        <ele>30</ele>
        <time>1970-01-01T01:00:00Z</time>
      </trkpt>
      <trkpt lat="60.481408" lon="22.212805">
        <ele>30</ele>
        <time>1970-01-01T01:00:00Z</time>
      </trkpt>
      <trkpt lat="60.481581" lon="22.212886">
        <ele>30</ele>
        <time>1970-01-01T01:00:00Z</time>
      </trkpt>
      <trkpt lat="60.481702" lon="22.212838">
        <ele>30</ele>
        <time>1970-01-01T01:00:00Z</time>
      </trkpt>
      <trkpt lat="60.48183" lon="22.212681">
        <ele>30</ele>
        <time>1970-01-01T01:00:00Z</time>
      </trkpt>
      <trkpt lat="60.481857" lon="22.212655">
        <ele>30</ele>
        <time>1970-01-01T01:00:00Z</time>
      </trkpt>
      <trkpt lat="60.481919" lon="22.212454">
        <ele>30</ele>
        <time>1970-01-01T01:00:00Z</time>
      </trkpt>
      <trkpt lat="60.482014" lon="22.212231">
        <ele>30</ele>
        <time>1970-01-01T01:00:00Z</time>
      </trkpt>
      <trkpt lat="60.482034" lon="22.21219">
        <ele>30</ele>
        <time>1970-01-01T01:00:00Z</time>
      </trkpt>
      <trkpt lat="60.482165" lon="22.211938">
        <ele>30</ele>
        <time>1970-01-01T01:00:00Z</time>
      </trkpt>
      <trkpt lat="60.482306" lon="22.211821">
        <ele>30</ele>
        <time>1970-01-01T01:00:00Z</time>
      </trkpt>
      <trkpt lat="60.482538" lon="22.211713">
        <ele>30</ele>
        <time>1970-01-01T01:00:00Z</time>
      </trkpt>
      <trkpt lat="60.482747" lon="22.211835">
        <ele>30</ele>
        <time>1970-01-01T01:00:00Z</time>
      </trkpt>
      <trkpt lat="60.482774" lon="22.211898">
        <ele>30</ele>
        <time>1970-01-01T01:00:00Z</time>
      </trkpt>
      <trkpt lat="60.482898" lon="22.212188">
        <ele>30</ele>
        <time>1970-01-01T01:00:00Z</time>
      </trkpt>
      <trkpt lat="60.482958" lon="22.212287">
        <ele>30.0909</ele>
        <time>1970-01-01T01:00:00Z</time>
      </trkpt>
      <trkpt lat="60.483017" lon="22.212396">
        <ele>30.1818</ele>
        <time>1970-01-01T01:00:00Z</time>
      </trkpt>
      <trkpt lat="60.483036" lon="22.212424">
        <ele>30.2727</ele>
        <time>1970-01-01T01:00:00Z</time>
      </trkpt>
      <trkpt lat="60.48315" lon="22.212495">
        <ele>30.3636</ele>
        <time>1970-01-01T01:00:00Z</time>
      </trkpt>
      <trkpt lat="60.483306" lon="22.212548">
        <ele>30.4545</ele>
        <time>1970-01-01T01:00:00Z</time>
      </trkpt>
      <trkpt lat="60.483482" lon="22.21257">
        <ele>30.5455</ele>
        <time>1970-01-01T01:00:00Z</time>
      </trkpt>
      <trkpt lat="60.483596" lon="22.212626">
        <ele>30.6364</ele>
        <time>1970-01-01T01:00:00Z</time>
      </trkpt>
      <trkpt lat="60.483735" lon="22.212658">
        <ele>30.7273</ele>
        <time>1970-01-01T01:00:00Z</time>
      </trkpt>
      <trkpt lat="60.483855" lon="22.212631">
        <ele>30.8182</ele>
        <time>1970-01-01T01:00:00Z</time>
      </trkpt>
      <trkpt lat="60.483966" lon="22.212659">
        <ele>30.9091</ele>
        <time>1970-01-01T01:00:00Z</time>
      </trkpt>
      <trkpt lat="60.484116" lon="22.213072">
        <ele>31</ele>
        <time>1970-01-01T01:00:00Z</time>
      </trkpt>
      <trkpt lat="60.484183" lon="22.213346">
        <ele>31</ele>
        <time>1970-01-01T01:00:00Z</time>
      </trkpt>
      <trkpt lat="60.484199" lon="22.213583">
        <ele>31</ele>
        <time>1970-01-01T01:00:00Z</time>
      </trkpt>
      <trkpt lat="60.484224" lon="22.213789">
        <ele>31</ele>
        <time>1970-01-01T01:00:00Z</time>
      </trkpt>
      <trkpt lat="60.484239" lon="22.213857">
        <ele>31</ele>
        <time>1970-01-01T01:00:00Z</time>
      </trkpt>
      <trkpt lat="60.484339" lon="22.214343">
        <ele>31</ele>
        <time>1970-01-01T01:00:00Z</time>
      </trkpt>
      <trkpt lat="60.484342" lon="22.21475">
        <ele>31</ele>
        <time>1970-01-01T01:00:00Z</time>
      </trkpt>
      <trkpt lat="60.484329" lon="22.214832">
        <ele>31</ele>
        <time>1970-01-01T01:00:00Z</time>
      </trkpt>
      <trkpt lat="60.484287" lon="22.21521">
        <ele>31</ele>
        <time>1970-01-01T01:00:00Z</time>
      </trkpt>
      <trkpt lat="60.484319" lon="22.215443">
        <ele>31</ele>
        <time>1970-01-01T01:00:00Z</time>
      </trkpt>
      <trkpt lat="60.484381" lon="22.215649">
        <ele>29.4545</ele>
        <time>1970-01-01T01:00:00Z</time>
      </trkpt>
      <trkpt lat="60.484575" lon="22.21619">
        <ele>27.9091</ele>
        <time>1970-01-01T01:00:00Z</time>
      </trkpt>
      <trkpt lat="60.484646" lon="22.216435">
        <ele>26.3636</ele>
        <time>1970-01-01T01:00:00Z</time>
      </trkpt>
      <trkpt lat="60.484712" lon="22.216611">
        <ele>24.8182</ele>
        <time>1970-01-01T01:00:00Z</time>
      </trkpt>
      <trkpt lat="60.484935" lon="22.216782">
        <ele>23.2727</ele>
        <time>1970-01-01T01:00:00Z</time>
      </trkpt>
      <trkpt lat="60.485057" lon="22.216843">
        <ele>21.7273</ele>
        <time>1970-01-01T01:00:00Z</time>
      </trkpt>
      <trkpt lat="60.485244" lon="22.21713">
        <ele>20.1818</ele>
        <time>1970-01-01T01:00:00Z</time>
      </trkpt>
      <trkpt lat="60.485311" lon="22.217298">
        <ele>18.6364</ele>
        <time>1970-01-01T01:00:00Z</time>
      </trkpt>
      <trkpt lat="60.485234" lon="22.217538">
        <ele>17.0909</ele>
        <time>1970-01-01T01:00:00Z</time>
      </trkpt>
      <trkpt lat="60.485197" lon="22.217732">
        <ele>15.5455</ele>
        <time>1970-01-01T01:00:00Z</time>
      </trkpt>
      <trkpt lat="60.485162" lon="22.218085">
        <ele>14</ele>
        <time>1970-01-01T01:00:00Z</time>
      </trkpt>
      <trkpt lat="60.485129" lon="22.218454">
        <ele>14</ele>
        <time>1970-01-01T01:00:00Z</time>
      </trkpt>
      <trkpt lat="60.48518" lon="22.218773">
        <ele>14</ele>
        <time>1970-01-01T01:00:00Z</time>
      </trkpt>
      <trkpt lat="60.485289" lon="22.21891">
        <ele>14</ele>
        <time>1970-01-01T01:00:00Z</time>
      </trkpt>
      <trkpt lat="60.485313" lon="22.218919">
        <ele>14</ele>
        <time>1970-01-01T01:00:00Z</time>
      </trkpt>
      <trkpt lat="60.485367" lon="22.21905">
        <ele>14</ele>
        <time>1970-01-01T01:00:00Z</time>
      </trkpt>
      <trkpt lat="60.485451" lon="22.219202">
        <ele>14</ele>
        <time>1970-01-01T01:00:00Z</time>
      </trkpt>
      <trkpt lat="60.485584" lon="22.219369">
        <ele>14</ele>
        <time>1970-01-01T01:00:00Z</time>
      </trkpt>
      <trkpt lat="60.48571" lon="22.219569">
        <ele>14</ele>
        <time>1970-01-01T01:00:00Z</time>
      </trkpt>
      <trkpt lat="60.485828" lon="22.219795">
        <ele>14</ele>
        <time>1970-01-01T01:00:00Z</time>
      </trkpt>
      <trkpt lat="60.485859" lon="22.219871">
        <ele>14</ele>
        <time>1970-01-01T01:00:00Z</time>
      </trkpt>
      <trkpt lat="60.485971" lon="22.220097">
        <ele>14</ele>
        <time>1970-01-01T01:00:00Z</time>
      </trkpt>
      <trkpt lat="60.486062" lon="22.220245">
        <ele>14</ele>
        <time>1970-01-01T01:00:00Z</time>
      </trkpt>
      <trkpt lat="60.486061" lon="22.220438">
        <ele>14</ele>
        <time>1970-01-01T01:00:00Z</time>
      </trkpt>
      <trkpt lat="60.48606" lon="22.220684">
        <ele>14</ele>
        <time>1970-01-01T01:00:00Z</time>
      </trkpt>
      <trkpt lat="60.486063" lon="22.220787">
        <ele>14</ele>
        <time>1970-01-01T01:00:00Z</time>
      </trkpt>
      <trkpt lat="60.486068" lon="22.220839">
        <ele>14</ele>
        <time>1970-01-01T01:00:00Z</time>
      </trkpt>
      <trkpt lat="60.486069" lon="22.221074">
        <ele>14</ele>
        <time>1970-01-01T01:00:00Z</time>
      </trkpt>
      <trkpt lat="60.486071" lon="22.221394">
        <ele>14</ele>
        <time>1970-01-01T01:00:00Z</time>
      </trkpt>
      <trkpt lat="60.486061" lon="22.221565">
        <ele>14</ele>
        <time>1970-01-01T01:00:00Z</time>
      </trkpt>
      <trkpt lat="60.486038" lon="22.221614">
        <ele>14</ele>
        <time>1970-01-01T01:00:00Z</time>
      </trkpt>
      <trkpt lat="60.485998" lon="22.221784">
        <ele>14</ele>
        <time>1970-01-01T01:00:00Z</time>
      </trkpt>
      <trkpt lat="60.486062" lon="22.222137">
        <ele>14</ele>
        <time>1970-01-01T01:00:00Z</time>
      </trkpt>
      <trkpt lat="60.486175" lon="22.222494">
        <ele>14</ele>
        <time>1970-01-01T01:00:00Z</time>
      </trkpt>
      <trkpt lat="60.486301" lon="22.222754">
        <ele>14</ele>
        <time>1970-01-01T01:00:00Z</time>
      </trkpt>
      <trkpt lat="60.486336" lon="22.222831">
        <ele>14</ele>
        <time>1970-01-01T01:00:00Z</time>
      </trkpt>
      <trkpt lat="60.486419" lon="22.22296">
        <ele>14</ele>
        <time>1970-01-01T01:00:00Z</time>
      </trkpt>
      <trkpt lat="60.486573" lon="22.223185">
        <ele>14</ele>
        <time>1970-01-01T01:00:00Z</time>
      </trkpt>
      <trkpt lat="60.486733" lon="22.22351">
        <ele>14</ele>
        <time>1970-01-01T01:00:00Z</time>
      </trkpt>
      <trkpt lat="60.486772" lon="22.223622">
        <ele>14</ele>
        <time>1970-01-01T01:00:00Z</time>
      </trkpt>
      <trkpt lat="60.486843" lon="22.223803">
        <ele>16</ele>
        <time>1970-01-01T01:00:00Z</time>
      </trkpt>
      <trkpt lat="60.486995" lon="22.224093">
        <ele>18</ele>
        <time>1970-01-01T01:00:00Z</time>
      </trkpt>
      <trkpt lat="60.487035" lon="22.224199">
        <ele>20</ele>
        <time>1970-01-01T01:00:00Z</time>
      </trkpt>
      <trkpt lat="60.487152" lon="22.224604">
        <ele>22</ele>
        <time>1970-01-01T01:00:00Z</time>
      </trkpt>
      <trkpt lat="60.487197" lon="22.224901">
        <ele>24</ele>
        <time>1970-01-01T01:00:00Z</time>
      </trkpt>
      <trkpt lat="60.487256" lon="22.225071">
        <ele>26</ele>
        <time>1970-01-01T01:00:00Z</time>
      </trkpt>
      <trkpt lat="60.487361" lon="22.225208">
        <ele>28</ele>
        <time>1970-01-01T01:00:00Z</time>
      </trkpt>
      <trkpt lat="60.487445" lon="22.225338">
        <ele>30</ele>
        <time>1970-01-01T01:00:00Z</time>
      </trkpt>
      <trkpt lat="60.487476" lon="22.22538">
        <ele>32</ele>
        <time>1970-01-01T01:00:00Z</time>
      </trkpt>
      <trkpt lat="60.487586" lon="22.225748">
        <ele>34</ele>
        <time>1970-01-01T01:00:00Z</time>
      </trkpt>
      <trkpt lat="60.487641" lon="22.225904">
        <ele>36</ele>
        <time>1970-01-01T01:00:00Z</time>
      </trkpt>
      <trkpt lat="60.487659" lon="22.226178">
        <ele>36</ele>
        <time>1970-01-01T01:00:00Z</time>
      </trkpt>
      <trkpt lat="60.487681" lon="22.226241">
        <ele>36</ele>
        <time>1970-01-01T01:00:00Z</time>
      </trkpt>
      <trkpt lat="60.487747" lon="22.226374">
        <ele>36</ele>
        <time>1970-01-01T01:00:00Z</time>
      </trkpt>
      <trkpt lat="60.487803" lon="22.226564">
        <ele>36</ele>
        <time>1970-01-01T01:00:00Z</time>
      </trkpt>
      <trkpt lat="60.487866" lon="22.226729">
        <ele>36</ele>
        <time>1970-01-01T01:00:00Z</time>
      </trkpt>
      <trkpt lat="60.487883" lon="22.226763">
        <ele>36</ele>
        <time>1970-01-01T01:00:00Z</time>
      </trkpt>
      <trkpt lat="60.487979" lon="22.227033">
        <ele>36</ele>
        <time>1970-01-01T01:00:00Z</time>
      </trkpt>
      <trkpt lat="60.487992" lon="22.227072">
        <ele>36</ele>
        <time>1970-01-01T01:00:00Z</time>
      </trkpt>
      <trkpt lat="60.488113" lon="22.227525">
        <ele>36</ele>
        <time>1970-01-01T01:00:00Z</time>
      </trkpt>
      <trkpt lat="60.488171" lon="22.227793">
        <ele>36</ele>
        <time>1970-01-01T01:00:00Z</time>
      </trkpt>
      <trkpt lat="60.488226" lon="22.227981">
        <ele>36</ele>
        <time>1970-01-01T01:00:00Z</time>
      </trkpt>
      <trkpt lat="60.488331" lon="22.228196">
        <ele>36</ele>
        <time>1970-01-01T01:00:00Z</time>
      </trkpt>
      <trkpt lat="60.488431" lon="22.228503">
        <ele>36</ele>
        <time>1970-01-01T01:00:00Z</time>
      </trkpt>
      <trkpt lat="60.48846" lon="22.228612">
        <ele>36</ele>
        <time>1970-01-01T01:00:00Z</time>
      </trkpt>
      <trkpt lat="60.488523" lon="22.228855">
        <ele>36</ele>
        <time>1970-01-01T01:00:00Z</time>
      </trkpt>
      <trkpt lat="60.488571" lon="22.229094">
        <ele>36</ele>
        <time>1970-01-01T01:00:00Z</time>
      </trkpt>
      <trkpt lat="60.488593" lon="22.229348">
        <ele>36</ele>
        <time>1970-01-01T01:00:00Z</time>
      </trkpt>
      <trkpt lat="60.488584" lon="22.229467">
        <ele>36</ele>
        <time>1970-01-01T01:00:00Z</time>
      </trkpt>
      <trkpt lat="60.488494" lon="22.22972">
        <ele>36</ele>
        <time>1970-01-01T01:00:00Z</time>
      </trkpt>
      <trkpt lat="60.488502" lon="22.229924">
        <ele>36</ele>
        <time>1970-01-01T01:00:00Z</time>
      </trkpt>
      <trkpt lat="60.488544" lon="22.230099">
        <ele>36</ele>
        <time>1970-01-01T01:00:00Z</time>
      </trkpt>
      <trkpt lat="60.488654" lon="22.23044">
        <ele>36</ele>
        <time>1970-01-01T01:00:00Z</time>
      </trkpt>
      <trkpt lat="60.488702" lon="22.230517">
        <ele>36</ele>
        <time>1970-01-01T01:00:00Z</time>
      </trkpt>
      <trkpt lat="60.488722" lon="22.230558">
        <ele>36</ele>
        <time>1970-01-01T01:00:00Z</time>
      </trkpt>
      <trkpt lat="60.488843" lon="22.230704">
        <ele>36</ele>
        <time>1970-01-01T01:00:00Z</time>
      </trkpt>
      <trkpt lat="60.489004" lon="22.230893">
        <ele>36</ele>
        <time>1970-01-01T01:00:00Z</time>
      </trkpt>
      <trkpt lat="60.489081" lon="22.231002">
        <ele>36</ele>
        <time>1970-01-01T01:00:00Z</time>
      </trkpt>
      <trkpt lat="60.489188" lon="22.231146">
        <ele>36</ele>
        <time>1970-01-01T01:00:00Z</time>
      </trkpt>
      <trkpt lat="60.489272" lon="22.231298">
        <ele>36</ele>
        <time>1970-01-01T01:00:00Z</time>
      </trkpt>
      <trkpt lat="60.489355" lon="22.231507">
        <ele>36</ele>
        <time>1970-01-01T01:00:00Z</time>
      </trkpt>
      <trkpt lat="60.489433" lon="22.231851">
        <ele>36</ele>
        <time>1970-01-01T01:00:00Z</time>
      </trkpt>
      <trkpt lat="60.489458" lon="22.231946">
        <ele>36</ele>
        <time>1970-01-01T01:00:00Z</time>
      </trkpt>
      <trkpt lat="60.489501" lon="22.232202">
        <ele>36</ele>
        <time>1970-01-01T01:00:00Z</time>
      </trkpt>
      <trkpt lat="60.489574" lon="22.232441">
        <ele>37.1818</ele>
        <time>1970-01-01T01:00:00Z</time>
      </trkpt>
      <trkpt lat="60.489531" lon="22.232791">
        <ele>38.3636</ele>
        <time>1970-01-01T01:00:00Z</time>
      </trkpt>
      <trkpt lat="60.489496" lon="22.233091">
        <ele>39.5455</ele>
        <time>1970-01-01T01:00:00Z</time>
      </trkpt>
      <trkpt lat="60.489495" lon="22.233189">
        <ele>40.7273</ele>
        <time>1970-01-01T01:00:00Z</time>
      </trkpt>
      <trkpt lat="60.489491" lon="22.233251">
        <ele>41.9091</ele>
        <time>1970-01-01T01:00:00Z</time>
      </trkpt>
      <trkpt lat="60.489493" lon="22.233408">
        <ele>43.0909</ele>
        <time>1970-01-01T01:00:00Z</time>
      </trkpt>
      <trkpt lat="60.489487" lon="22.23355">
        <ele>44.2727</ele>
        <time>1970-01-01T01:00:00Z</time>
      </trkpt>
      <trkpt lat="60.489514" lon="22.233727">
        <ele>45.4545</ele>
        <time>1970-01-01T01:00:00Z</time>
      </trkpt>
      <trkpt lat="60.489536" lon="22.233865">
        <ele>46.6364</ele>
        <time>1970-01-01T01:00:00Z</time>
      </trkpt>
      <trkpt lat="60.489574" lon="22.234015">
        <ele>47.8182</ele>
        <time>1970-01-01T01:00:00Z</time>
      </trkpt>
      <trkpt lat="60.489637" lon="22.234179">
        <ele>49</ele>
        <time>1970-01-01T01:00:00Z</time>
      </trkpt>
      <trkpt lat="60.489714" lon="22.234334">
        <ele>49</ele>
        <time>1970-01-01T01:00:00Z</time>
      </trkpt>
      <trkpt lat="60.489775" lon="22.234437">
        <ele>49</ele>
        <time>1970-01-01T01:00:00Z</time>
      </trkpt>
      <trkpt lat="60.489812" lon="22.234541">
        <ele>49</ele>
        <time>1970-01-01T01:00:00Z</time>
      </trkpt>
      <trkpt lat="60.489828" lon="22.234801">
        <ele>49</ele>
        <time>1970-01-01T01:00:00Z</time>
      </trkpt>
      <trkpt lat="60.48986" lon="22.235022">
        <ele>49</ele>
        <time>1970-01-01T01:00:00Z</time>
      </trkpt>
      <trkpt lat="60.489891" lon="22.235245">
        <ele>49</ele>
        <time>1970-01-01T01:00:00Z</time>
      </trkpt>
      <trkpt lat="60.489927" lon="22.235409">
        <ele>49</ele>
        <time>1970-01-01T01:00:00Z</time>
      </trkpt>
      <trkpt lat="60.489975" lon="22.235626">
        <ele>49</ele>
        <time>1970-01-01T01:00:00Z</time>
      </trkpt>
      <trkpt lat="60.489987" lon="22.235791">
        <ele>49</ele>
        <time>1970-01-01T01:00:00Z</time>
      </trkpt>
      <trkpt lat="60.490031" lon="22.235969">
        <ele>49</ele>
        <time>1970-01-01T01:00:00Z</time>
      </trkpt>
      <trkpt lat="60.490061" lon="22.236112">
        <ele>49</ele>
        <time>1970-01-01T01:00:00Z</time>
      </trkpt>
      <trkpt lat="60.490088" lon="22.236299">
        <ele>49</ele>
        <time>1970-01-01T01:00:00Z</time>
      </trkpt>
      <trkpt lat="60.490103" lon="22.236434">
        <ele>49</ele>
        <time>1970-01-01T01:00:00Z</time>
      </trkpt>
      <trkpt lat="60.490221" lon="22.236678">
        <ele>49</ele>
        <time>1970-01-01T01:00:00Z</time>
      </trkpt>
      <trkpt lat="60.490235" lon="22.236734">
        <ele>49</ele>
        <time>1970-01-01T01:00:00Z</time>
      </trkpt>
      <trkpt lat="60.490297" lon="22.236963">
        <ele>49</ele>
        <time>1970-01-01T01:00:00Z</time>
      </trkpt>
      <trkpt lat="60.490368" lon="22.237323">
        <ele>49</ele>
        <time>1970-01-01T01:00:00Z</time>
      </trkpt>
      <trkpt lat="60.490426" lon="22.237652">
        <ele>49</ele>
        <time>1970-01-01T01:00:00Z</time>
      </trkpt>
      <trkpt lat="60.490429" lon="22.237957">
        <ele>49</ele>
        <time>1970-01-01T01:00:00Z</time>
      </trkpt>
      <trkpt lat="60.490433" lon="22.238033">
        <ele>49</ele>
        <time>1970-01-01T01:00:00Z</time>
      </trkpt>
      <trkpt lat="60.490403" lon="22.238261">
        <ele>49</ele>
        <time>1970-01-01T01:00:00Z</time>
      </trkpt>
      <trkpt lat="60.490404" lon="22.23839">
        <ele>49</ele>
        <time>1970-01-01T01:00:00Z</time>
      </trkpt>
      <trkpt lat="60.490452" lon="22.238622">
        <ele>49</ele>
        <time>1970-01-01T01:00:00Z</time>
      </trkpt>
      <trkpt lat="60.490516" lon="22.238855">
        <ele>49</ele>
        <time>1970-01-01T01:00:00Z</time>
      </trkpt>
      <trkpt lat="60.49054" lon="22.239002">
        <ele>49</ele>
        <time>1970-01-01T01:00:00Z</time>
      </trkpt>
      <trkpt lat="60.490571" lon="22.23916">
        <ele>49</ele>
        <time>1970-01-01T01:00:00Z</time>
      </trkpt>
      <trkpt lat="60.490606" lon="22.239342">
        <ele>49</ele>
        <time>1970-01-01T01:00:00Z</time>
      </trkpt>
      <trkpt lat="60.490669" lon="22.239609">
        <ele>49</ele>
        <time>1970-01-01T01:00:00Z</time>
      </trkpt>
      <trkpt lat="60.490742" lon="22.239868">
        <ele>49</ele>
        <time>1970-01-01T01:00:00Z</time>
      </trkpt>
      <trkpt lat="60.490832" lon="22.240063">
        <ele>49</ele>
        <time>1970-01-01T01:00:00Z</time>
      </trkpt>
      <trkpt lat="60.49089" lon="22.240207">
        <ele>49</ele>
        <time>1970-01-01T01:00:00Z</time>
      </trkpt>
      <trkpt lat="60.490938" lon="22.240367">
        <ele>49</ele>
        <time>1970-01-01T01:00:00Z</time>
      </trkpt>
      <trkpt lat="60.491047" lon="22.240509">
        <ele>48.3636</ele>
        <time>1970-01-01T01:00:00Z</time>
      </trkpt>
      <trkpt lat="60.491127" lon="22.240683">
        <ele>47.7273</ele>
        <time>1970-01-01T01:00:00Z</time>
      </trkpt>
      <trkpt lat="60.491192" lon="22.24103">
        <ele>47.0909</ele>
        <time>1970-01-01T01:00:00Z</time>
      </trkpt>
      <trkpt lat="60.491264" lon="22.24125">
        <ele>46.5455</ele>
        <time>1970-01-01T01:00:00Z</time>
      </trkpt>
      <trkpt lat="60.49136" lon="22.241516">
        <ele>45.9091</ele>
        <time>1970-01-01T01:00:00Z</time>
      </trkpt>
      <trkpt lat="60.49151" lon="22.241872">
        <ele>45.2727</ele>
        <time>1970-01-01T01:00:00Z</time>
      </trkpt>
      <trkpt lat="60.491542" lon="22.241948">
        <ele>44.6364</ele>
        <time>1970-01-01T01:00:00Z</time>
      </trkpt>
      <trkpt lat="60.491618" lon="22.242044">
        <ele>44</ele>
        <time>1970-01-01T01:00:00Z</time>
      </trkpt>
      <trkpt lat="60.491743" lon="22.242396">
        <ele>43.3636</ele>
        <time>1970-01-01T01:00:00Z</time>
      </trkpt>
      <trkpt lat="60.491641" lon="22.242529">
        <ele>42.7273</ele>
        <time>1970-01-01T01:00:00Z</time>
      </trkpt>
      <trkpt lat="60.491537" lon="22.242612">
        <ele>42.0909</ele>
        <time>1970-01-01T01:00:00Z</time>
      </trkpt>
      <trkpt lat="60.491433" lon="22.242776">
        <ele>42.0909</ele>
        <time>1970-01-01T01:00:00Z</time>
      </trkpt>
      <trkpt lat="60.491363" lon="22.242885">
        <ele>42.0909</ele>
        <time>1970-01-01T01:00:00Z</time>
      </trkpt>
      <trkpt lat="60.49129" lon="22.242989">
        <ele>42.0909</ele>
        <time>1970-01-01T01:00:00Z</time>
      </trkpt>
      <trkpt lat="60.491269" lon="22.243018">
        <ele>42</ele>
        <time>1970-01-01T01:00:00Z</time>
      </trkpt>
      <trkpt lat="60.491127" lon="22.243218">
        <ele>42</ele>
        <time>1970-01-01T01:00:00Z</time>
      </trkpt>
      <trkpt lat="60.491069" lon="22.243298">
        <ele>42</ele>
        <time>1970-01-01T01:00:00Z</time>
      </trkpt>
      <trkpt lat="60.491023" lon="22.243483">
        <ele>42</ele>
        <time>1970-01-01T01:00:00Z</time>
      </trkpt>
      <trkpt lat="60.491012" lon="22.243533">
        <ele>42</ele>
        <time>1970-01-01T01:00:00Z</time>
      </trkpt>
      <trkpt lat="60.490937" lon="22.243778">
        <ele>42</ele>
        <time>1970-01-01T01:00:00Z</time>
      </trkpt>
      <trkpt lat="60.490897" lon="22.243848">
        <ele>42</ele>
        <time>1970-01-01T01:00:00Z</time>
      </trkpt>
      <trkpt lat="60.490796" lon="22.244054">
        <ele>42</ele>
        <time>1970-01-01T01:00:00Z</time>
      </trkpt>
      <trkpt lat="60.490716" lon="22.244261">
        <ele>42</ele>
        <time>1970-01-01T01:00:00Z</time>
      </trkpt>
      <trkpt lat="60.490622" lon="22.244439">
        <ele>42</ele>
        <time>1970-01-01T01:00:00Z</time>
      </trkpt>
      <trkpt lat="60.490527" lon="22.244685">
        <ele>42</ele>
        <time>1970-01-01T01:00:00Z</time>
      </trkpt>
      <trkpt lat="60.490443" lon="22.244957">
        <ele>42</ele>
        <time>1970-01-01T01:00:00Z</time>
      </trkpt>
      <trkpt lat="60.490365" lon="22.245168">
        <ele>42</ele>
        <time>1970-01-01T01:00:00Z</time>
      </trkpt>
      <trkpt lat="60.490296" lon="22.245378">
        <ele>42</ele>
        <time>1970-01-01T01:00:00Z</time>
      </trkpt>
      <trkpt lat="60.490273" lon="22.24568">
        <ele>42</ele>
        <time>1970-01-01T01:00:00Z</time>
      </trkpt>
      <trkpt lat="60.490255" lon="22.245932">
        <ele>42</ele>
        <time>1970-01-01T01:00:00Z</time>
      </trkpt>
      <trkpt lat="60.490211" lon="22.246187">
        <ele>42</ele>
        <time>1970-01-01T01:00:00Z</time>
      </trkpt>
      <trkpt lat="60.490165" lon="22.246318">
        <ele>42</ele>
        <time>1970-01-01T01:00:00Z</time>
      </trkpt>
      <trkpt lat="60.490104" lon="22.246432">
        <ele>42</ele>
        <time>1970-01-01T01:00:00Z</time>
      </trkpt>
      <trkpt lat="60.490035" lon="22.246674">
        <ele>42</ele>
        <time>1970-01-01T01:00:00Z</time>
      </trkpt>
      <trkpt lat="60.490066" lon="22.247">
        <ele>42</ele>
        <time>1970-01-01T01:00:00Z</time>
      </trkpt>
      <trkpt lat="60.490073" lon="22.247315">
        <ele>42</ele>
        <time>1970-01-01T01:00:00Z</time>
      </trkpt>
      <trkpt lat="60.490067" lon="22.24747">
        <ele>42</ele>
        <time>1970-01-01T01:00:00Z</time>
      </trkpt>
      <trkpt lat="60.490061" lon="22.247722">
        <ele>42</ele>
        <time>1970-01-01T01:00:00Z</time>
      </trkpt>
      <trkpt lat="60.490057" lon="22.248022">
        <ele>42</ele>
        <time>1970-01-01T01:00:00Z</time>
      </trkpt>
      <trkpt lat="60.490058" lon="22.248204">
        <ele>42</ele>
        <time>1970-01-01T01:00:00Z</time>
      </trkpt>
      <trkpt lat="60.490067" lon="22.248554">
        <ele>42</ele>
        <time>1970-01-01T01:00:00Z</time>
      </trkpt>
      <trkpt lat="60.490026" lon="22.248814">
        <ele>42</ele>
        <time>1970-01-01T01:00:00Z</time>
      </trkpt>
      <trkpt lat="60.489997" lon="22.249067">
        <ele>42</ele>
        <time>1970-01-01T01:00:00Z</time>
      </trkpt>
      <trkpt lat="60.489992" lon="22.249293">
        <ele>42</ele>
        <time>1970-01-01T01:00:00Z</time>
      </trkpt>
      <trkpt lat="60.489945" lon="22.24951">
        <ele>42</ele>
        <time>1970-01-01T01:00:00Z</time>
      </trkpt>
      <trkpt lat="60.48987" lon="22.249675">
        <ele>42</ele>
        <time>1970-01-01T01:00:00Z</time>
      </trkpt>
      <trkpt lat="60.489803" lon="22.249784">
        <ele>41.1818</ele>
        <time>1970-01-01T01:00:00Z</time>
      </trkpt>
      <trkpt lat="60.489719" lon="22.249995">
        <ele>40.3636</ele>
        <time>1970-01-01T01:00:00Z</time>
      </trkpt>
      <trkpt lat="60.48961" lon="22.250068">
        <ele>39.5455</ele>
        <time>1970-01-01T01:00:00Z</time>
      </trkpt>
      <trkpt lat="60.489511" lon="22.250054">
        <ele>38.7273</ele>
        <time>1970-01-01T01:00:00Z</time>
      </trkpt>
      <trkpt lat="60.489443" lon="22.250055">
        <ele>37.9091</ele>
        <time>1970-01-01T01:00:00Z</time>
      </trkpt>
      <trkpt lat="60.489222" lon="22.250143">
        <ele>37.0909</ele>
        <time>1970-01-01T01:00:00Z</time>
      </trkpt>
      <trkpt lat="60.489111" lon="22.250248">
        <ele>36.2727</ele>
        <time>1970-01-01T01:00:00Z</time>
      </trkpt>
      <trkpt lat="60.488993" lon="22.250358">
        <ele>35.4545</ele>
        <time>1970-01-01T01:00:00Z</time>
      </trkpt>
      <trkpt lat="60.488843" lon="22.250394">
        <ele>35.4545</ele>
        <time>1970-01-01T01:00:00Z</time>
      </trkpt>
      <trkpt lat="60.488724" lon="22.250313">
        <ele>35.4545</ele>
        <time>1970-01-01T01:00:00Z</time>
      </trkpt>
      <trkpt lat="60.488655" lon="22.250261">
        <ele>35.4545</ele>
        <time>1970-01-01T01:00:00Z</time>
      </trkpt>
      <trkpt lat="60.488584" lon="22.25021">
        <ele>36.2727</ele>
        <time>1970-01-01T01:00:00Z</time>
      </trkpt>
      <trkpt lat="60.4885" lon="22.250117">
        <ele>37.0909</ele>
        <time>1970-01-01T01:00:00Z</time>
      </trkpt>
      <trkpt lat="60.488404" lon="22.25">
        <ele>37.9091</ele>
        <time>1970-01-01T01:00:00Z</time>
      </trkpt>
      <trkpt lat="60.488328" lon="22.249905">
        <ele>38.7273</ele>
        <time>1970-01-01T01:00:00Z</time>
      </trkpt>
      <trkpt lat="60.488279" lon="22.249867">
        <ele>39.5455</ele>
        <time>1970-01-01T01:00:00Z</time>
      </trkpt>
      <trkpt lat="60.488175" lon="22.249819">
        <ele>40.3636</ele>
        <time>1970-01-01T01:00:00Z</time>
      </trkpt>
      <trkpt lat="60.488002" lon="22.249706">
        <ele>41.1818</ele>
        <time>1970-01-01T01:00:00Z</time>
      </trkpt>
      <trkpt lat="60.487914" lon="22.249681">
        <ele>42</ele>
        <time>1970-01-01T01:00:00Z</time>
      </trkpt>
      <trkpt lat="60.48788" lon="22.249639">
        <ele>42</ele>
        <time>1970-01-01T01:00:00Z</time>
      </trkpt>
      <trkpt lat="60.487647" lon="22.249393">
        <ele>42</ele>
        <time>1970-01-01T01:00:00Z</time>
      </trkpt>
      <trkpt lat="60.487575" lon="22.249325">
        <ele>42</ele>
        <time>1970-01-01T01:00:00Z</time>
      </trkpt>
      <trkpt lat="60.48743" lon="22.24919">
        <ele>42</ele>
        <time>1970-01-01T01:00:00Z</time>
      </trkpt>
      <trkpt lat="60.487281" lon="22.24923">
        <ele>42</ele>
        <time>1970-01-01T01:00:00Z</time>
      </trkpt>
      <trkpt lat="60.487177" lon="22.249225">
        <ele>42</ele>
        <time>1970-01-01T01:00:00Z</time>
      </trkpt>
      <trkpt lat="60.487148" lon="22.249196">
        <ele>42</ele>
        <time>1970-01-01T01:00:00Z</time>
      </trkpt>
      <trkpt lat="60.486999" lon="22.249221">
        <ele>42</ele>
        <time>1970-01-01T01:00:00Z</time>
      </trkpt>
      <trkpt lat="60.486844" lon="22.249325">
        <ele>42</ele>
        <time>1970-01-01T01:00:00Z</time>
      </trkpt>
      <trkpt lat="60.486732" lon="22.249258">
        <ele>42</ele>
        <time>1970-01-01T01:00:00Z</time>
      </trkpt>
      <trkpt lat="60.486522" lon="22.249066">
        <ele>42</ele>
        <time>1970-01-01T01:00:00Z</time>
      </trkpt>
      <trkpt lat="60.486293" lon="22.248851">
        <ele>42</ele>
        <time>1970-01-01T01:00:00Z</time>
      </trkpt>
      <trkpt lat="60.485981" lon="22.248507">
        <ele>42</ele>
        <time>1970-01-01T01:00:00Z</time>
      </trkpt>
      <trkpt lat="60.485616" lon="22.248413">
        <ele>42</ele>
        <time>1970-01-01T01:00:00Z</time>
      </trkpt>
      <trkpt lat="60.485399" lon="22.248652">
        <ele>42</ele>
        <time>1970-01-01T01:00:00Z</time>
      </trkpt>
      <trkpt lat="60.485276" lon="22.248855">
        <ele>42</ele>
        <time>1970-01-01T01:00:00Z</time>
      </trkpt>
      <trkpt lat="60.48508" lon="22.249047">
        <ele>42</ele>
        <time>1970-01-01T01:00:00Z</time>
      </trkpt>
      <trkpt lat="60.485037" lon="22.24904">
        <ele>42</ele>
        <time>1970-01-01T01:00:00Z</time>
      </trkpt>
      <trkpt lat="60.484788" lon="22.24883">
        <ele>42</ele>
        <time>1970-01-01T01:00:00Z</time>
      </trkpt>
      <trkpt lat="60.484636" lon="22.248706">
        <ele>42</ele>
        <time>1970-01-01T01:00:00Z</time>
      </trkpt>
      <trkpt lat="60.484553" lon="22.248675">
        <ele>42</ele>
        <time>1970-01-01T01:00:00Z</time>
      </trkpt>
      <trkpt lat="60.48441" lon="22.248722">
        <ele>42</ele>
        <time>1970-01-01T01:00:00Z</time>
      </trkpt>
      <trkpt lat="60.484385" lon="22.248754">
        <ele>42</ele>
        <time>1970-01-01T01:00:00Z</time>
      </trkpt>
      <trkpt lat="60.484272" lon="22.248912">
        <ele>42</ele>
        <time>1970-01-01T01:00:00Z</time>
      </trkpt>
      <trkpt lat="60.484137" lon="22.248953">
        <ele>42</ele>
        <time>1970-01-01T01:00:00Z</time>
      </trkpt>
      <trkpt lat="60.48394" lon="22.248839">
        <ele>42</ele>
        <time>1970-01-01T01:00:00Z</time>
      </trkpt>
      <trkpt lat="60.483838" lon="22.248821">
        <ele>42</ele>
        <time>1970-01-01T01:00:00Z</time>
      </trkpt>
      <trkpt lat="60.483691" lon="22.248818">
        <ele>41.2727</ele>
        <time>1970-01-01T01:00:00Z</time>
      </trkpt>
      <trkpt lat="60.483599" lon="22.24882">
        <ele>40.5455</ele>
        <time>1970-01-01T01:00:00Z</time>
      </trkpt>
      <trkpt lat="60.483528" lon="22.24884">
        <ele>39.8182</ele>
        <time>1970-01-01T01:00:00Z</time>
      </trkpt>
      <trkpt lat="60.483422" lon="22.248984">
        <ele>39.0909</ele>
        <time>1970-01-01T01:00:00Z</time>
      </trkpt>
      <trkpt lat="60.483381" lon="22.249119">
        <ele>37.5455</ele>
        <time>1970-01-01T01:00:00Z</time>
      </trkpt>
      <trkpt lat="60.483297" lon="22.249368">
        <ele>36</ele>
        <time>1970-01-01T01:00:00Z</time>
      </trkpt>
      <trkpt lat="60.483245" lon="22.249495">
        <ele>34.4545</ele>
        <time>1970-01-01T01:00:00Z</time>
      </trkpt>
      <trkpt lat="60.483167" lon="22.249667">
        <ele>32.9091</ele>
        <time>1970-01-01T01:00:00Z</time>
      </trkpt>
      <trkpt lat="60.48303" lon="22.249867">
        <ele>31.3636</ele>
        <time>1970-01-01T01:00:00Z</time>
      </trkpt>
      <trkpt lat="60.482947" lon="22.250145">
        <ele>29.8182</ele>
        <time>1970-01-01T01:00:00Z</time>
      </trkpt>
      <trkpt lat="60.482906" lon="22.250506">
        <ele>28.2727</ele>
        <time>1970-01-01T01:00:00Z</time>
      </trkpt>
      <trkpt lat="60.482779" lon="22.250964">
        <ele>27.4545</ele>
        <time>1970-01-01T01:00:00Z</time>
      </trkpt>
      <trkpt lat="60.482691" lon="22.251171">
        <ele>26.6364</ele>
        <time>1970-01-01T01:00:00Z</time>
      </trkpt>
      <trkpt lat="60.482673" lon="22.251211">
        <ele>25.8182</ele>
        <time>1970-01-01T01:00:00Z</time>
      </trkpt>
      <trkpt lat="60.482623" lon="22.251465">
        <ele>25</ele>
        <time>1970-01-01T01:00:00Z</time>
      </trkpt>
      <trkpt lat="60.482523" lon="22.25171">
        <ele>25</ele>
        <time>1970-01-01T01:00:00Z</time>
      </trkpt>
      <trkpt lat="60.48248" lon="22.251762">
        <ele>25</ele>
        <time>1970-01-01T01:00:00Z</time>
      </trkpt>
      <trkpt lat="60.48234" lon="22.251909">
        <ele>25</ele>
        <time>1970-01-01T01:00:00Z</time>
      </trkpt>
      <trkpt lat="60.482165" lon="22.252027">
        <ele>25</ele>
        <time>1970-01-01T01:00:00Z</time>
      </trkpt>
      <trkpt lat="60.482114" lon="22.251758">
        <ele>25</ele>
        <time>1970-01-01T01:00:00Z</time>
      </trkpt>
      <trkpt lat="60.482002" lon="22.251526">
        <ele>25</ele>
        <time>1970-01-01T01:00:00Z</time>
      </trkpt>
      <trkpt lat="60.481925" lon="22.251373">
        <ele>25</ele>
        <time>1970-01-01T01:00:00Z</time>
      </trkpt>
      <trkpt lat="60.481809" lon="22.251214">
        <ele>25</ele>
        <time>1970-01-01T01:00:00Z</time>
      </trkpt>
      <trkpt lat="60.481662" lon="22.251157">
        <ele>25</ele>
        <time>1970-01-01T01:00:00Z</time>
      </trkpt>
      <trkpt lat="60.481583" lon="22.251251">
        <ele>25</ele>
        <time>1970-01-01T01:00:00Z</time>
      </trkpt>
      <trkpt lat="60.481513" lon="22.251358">
        <ele>25</ele>
        <time>1970-01-01T01:00:00Z</time>
      </trkpt>
      <trkpt lat="60.481395" lon="22.25154">
        <ele>25</ele>
        <time>1970-01-01T01:00:00Z</time>
      </trkpt>
      <trkpt lat="60.481274" lon="22.25169">
        <ele>25</ele>
        <time>1970-01-01T01:00:00Z</time>
      </trkpt>
      <trkpt lat="60.481052" lon="22.251899">
        <ele>25</ele>
        <time>1970-01-01T01:00:00Z</time>
      </trkpt>
      <trkpt lat="60.480883" lon="22.252014">
        <ele>25</ele>
        <time>1970-01-01T01:00:00Z</time>
      </trkpt>
      <trkpt lat="60.480693" lon="22.252207">
        <ele>25</ele>
        <time>1970-01-01T01:00:00Z</time>
      </trkpt>
      <trkpt lat="60.480511" lon="22.25238">
        <ele>25</ele>
        <time>1970-01-01T01:00:00Z</time>
      </trkpt>
      <trkpt lat="60.480334" lon="22.252574">
        <ele>25</ele>
        <time>1970-01-01T01:00:00Z</time>
      </trkpt>
      <trkpt lat="60.480193" lon="22.252755">
        <ele>25</ele>
        <time>1970-01-01T01:00:00Z</time>
      </trkpt>
      <trkpt lat="60.480045" lon="22.253001">
        <ele>25</ele>
        <time>1970-01-01T01:00:00Z</time>
      </trkpt>
      <trkpt lat="60.48" lon="22.253222">
        <ele>25</ele>
        <time>1970-01-01T01:00:00Z</time>
      </trkpt>
      <trkpt lat="60.48004" lon="22.253467">
        <ele>25</ele>
        <time>1970-01-01T01:00:00Z</time>
      </trkpt>
      <trkpt lat="60.480135" lon="22.253598">
        <ele>25</ele>
        <time>1970-01-01T01:00:00Z</time>
      </trkpt>
      <trkpt lat="60.480256" lon="22.253614">
        <ele>25</ele>
        <time>1970-01-01T01:00:00Z</time>
      </trkpt>
      <trkpt lat="60.480344" lon="22.25355">
        <ele>25</ele>
        <time>1970-01-01T01:00:00Z</time>
      </trkpt>
      <trkpt lat="60.480473" lon="22.253422">
        <ele>25</ele>
        <time>1970-01-01T01:00:00Z</time>
      </trkpt>
      <trkpt lat="60.480598" lon="22.253304">
        <ele>25</ele>
        <time>1970-01-01T01:00:00Z</time>
      </trkpt>
      <trkpt lat="60.480733" lon="22.253259">
        <ele>25</ele>
        <time>1970-01-01T01:00:00Z</time>
      </trkpt>
      <trkpt lat="60.480837" lon="22.253324">
        <ele>25</ele>
        <time>1970-01-01T01:00:00Z</time>
      </trkpt>
      <trkpt lat="60.480924" lon="22.253398">
        <ele>25</ele>
        <time>1970-01-01T01:00:00Z</time>
      </trkpt>
      <trkpt lat="60.480982" lon="22.253454">
        <ele>25</ele>
        <time>1970-01-01T01:00:00Z</time>
      </trkpt>
      <trkpt lat="60.481081" lon="22.253533">
        <ele>25</ele>
        <time>1970-01-01T01:00:00Z</time>
      </trkpt>
      <trkpt lat="60.48119" lon="22.253666">
        <ele>25</ele>
        <time>1970-01-01T01:00:00Z</time>
      </trkpt>
      <trkpt lat="60.481236" lon="22.253783">
        <ele>25</ele>
        <time>1970-01-01T01:00:00Z</time>
      </trkpt>
      <trkpt lat="60.481315" lon="22.253954">
        <ele>25</ele>
        <time>1970-01-01T01:00:00Z</time>
      </trkpt>
      <trkpt lat="60.4814" lon="22.254157">
        <ele>25</ele>
        <time>1970-01-01T01:00:00Z</time>
      </trkpt>
      <trkpt lat="60.481469" lon="22.254259">
        <ele>25</ele>
        <time>1970-01-01T01:00:00Z</time>
      </trkpt>
      <trkpt lat="60.481525" lon="22.254381">
        <ele>25</ele>
        <time>1970-01-01T01:00:00Z</time>
      </trkpt>
      <trkpt lat="60.48155" lon="22.254608">
        <ele>25</ele>
        <time>1970-01-01T01:00:00Z</time>
      </trkpt>
      <trkpt lat="60.481441" lon="22.254772">
        <ele>25</ele>
        <time>1970-01-01T01:00:00Z</time>
      </trkpt>
      <trkpt lat="60.481317" lon="22.254938">
        <ele>25</ele>
        <time>1970-01-01T01:00:00Z</time>
      </trkpt>
      <trkpt lat="60.481065" lon="22.255056">
        <ele>25</ele>
        <time>1970-01-01T01:00:00Z</time>
      </trkpt>
      <trkpt lat="60.481013" lon="22.255097">
        <ele>25</ele>
        <time>1970-01-01T01:00:00Z</time>
      </trkpt>
      <trkpt lat="60.480956" lon="22.255138">
        <ele>25</ele>
        <time>1970-01-01T01:00:00Z</time>
      </trkpt>
      <trkpt lat="60.480858" lon="22.255274">
        <ele>25</ele>
        <time>1970-01-01T01:00:00Z</time>
      </trkpt>
      <trkpt lat="60.480784" lon="22.255376">
        <ele>25</ele>
        <time>1970-01-01T01:00:00Z</time>
      </trkpt>
      <trkpt lat="60.480743" lon="22.255466">
        <ele>25</ele>
        <time>1970-01-01T01:00:00Z</time>
      </trkpt>
      <trkpt lat="60.480741" lon="22.255714">
        <ele>25</ele>
        <time>1970-01-01T01:00:00Z</time>
      </trkpt>
      <trkpt lat="60.480745" lon="22.255764">
        <ele>25</ele>
        <time>1970-01-01T01:00:00Z</time>
      </trkpt>
      <trkpt lat="60.4808" lon="22.256037">
        <ele>25</ele>
        <time>1970-01-01T01:00:00Z</time>
      </trkpt>
      <trkpt lat="60.480847" lon="22.256151">
        <ele>25</ele>
        <time>1970-01-01T01:00:00Z</time>
      </trkpt>
      <trkpt lat="60.480918" lon="22.256265">
        <ele>25</ele>
        <time>1970-01-01T01:00:00Z</time>
      </trkpt>
      <trkpt lat="60.481005" lon="22.256387">
        <ele>25</ele>
        <time>1970-01-01T01:00:00Z</time>
      </trkpt>
      <trkpt lat="60.481062" lon="22.256489">
        <ele>25</ele>
        <time>1970-01-01T01:00:00Z</time>
      </trkpt>
      <trkpt lat="60.481115" lon="22.256599">
        <ele>25</ele>
        <time>1970-01-01T01:00:00Z</time>
      </trkpt>
      <trkpt lat="60.481177" lon="22.256834">
        <ele>25</ele>
        <time>1970-01-01T01:00:00Z</time>
      </trkpt>
      <trkpt lat="60.481179" lon="22.256939">
        <ele>25</ele>
        <time>1970-01-01T01:00:00Z</time>
      </trkpt>
      <trkpt lat="60.481199" lon="22.257121">
        <ele>25</ele>
        <time>1970-01-01T01:00:00Z</time>
      </trkpt>
      <trkpt lat="60.481221" lon="22.257401">
        <ele>25</ele>
        <time>1970-01-01T01:00:00Z</time>
      </trkpt>
      <trkpt lat="60.481197" lon="22.257679">
        <ele>25</ele>
        <time>1970-01-01T01:00:00Z</time>
      </trkpt>
      <trkpt lat="60.481162" lon="22.257819">
        <ele>25</ele>
        <time>1970-01-01T01:00:00Z</time>
      </trkpt>
      <trkpt lat="60.481156" lon="22.257832">
        <ele>24.9091</ele>
        <time>1970-01-01T01:00:00Z</time>
      </trkpt>
      <trkpt lat="60.481164" lon="22.257825">
        <ele>24.8182</ele>
        <time>1970-01-01T01:00:00Z</time>
      </trkpt>
      <trkpt lat="60.481159" lon="22.257838">
        <ele>24.7273</ele>
        <time>1970-01-01T01:00:00Z</time>
      </trkpt>
      <trkpt lat="60.481153" lon="22.257857">
        <ele>24.6364</ele>
        <time>1970-01-01T01:00:00Z</time>
      </trkpt>
      <trkpt lat="60.48111" lon="22.258194">
        <ele>24.5455</ele>
        <time>1970-01-01T01:00:00Z</time>
      </trkpt>
      <trkpt lat="60.481092" lon="22.258585">
        <ele>24.4545</ele>
        <time>1970-01-01T01:00:00Z</time>
      </trkpt>
      <trkpt lat="60.481142" lon="22.259162">
        <ele>24.3636</ele>
        <time>1970-01-01T01:00:00Z</time>
      </trkpt>
      <trkpt lat="60.481174" lon="22.259402">
        <ele>24.2727</ele>
        <time>1970-01-01T01:00:00Z</time>
      </trkpt>
      <trkpt lat="60.481183" lon="22.259501">
        <ele>24.1818</ele>
        <time>1970-01-01T01:00:00Z</time>
      </trkpt>
      <trkpt lat="60.481205" lon="22.259719">
        <ele>24.0909</ele>
        <time>1970-01-01T01:00:00Z</time>
      </trkpt>
      <trkpt lat="60.481225" lon="22.260038">
        <ele>24</ele>
        <time>1970-01-01T01:00:00Z</time>
      </trkpt>
      <trkpt lat="60.48123" lon="22.260498">
        <ele>24</ele>
        <time>1970-01-01T01:00:00Z</time>
      </trkpt>
      <trkpt lat="60.481252" lon="22.260743">
        <ele>24</ele>
        <time>1970-01-01T01:00:00Z</time>
      </trkpt>
      <trkpt lat="60.481327" lon="22.261209">
        <ele>24</ele>
        <time>1970-01-01T01:00:00Z</time>
      </trkpt>
      <trkpt lat="60.481409" lon="22.261528">
        <ele>24</ele>
        <time>1970-01-01T01:00:00Z</time>
      </trkpt>
      <trkpt lat="60.481442" lon="22.261719">
        <ele>24</ele>
        <time>1970-01-01T01:00:00Z</time>
      </trkpt>
      <trkpt lat="60.481365" lon="22.261762">
        <ele>24</ele>
        <time>1970-01-01T01:00:00Z</time>
      </trkpt>
      <trkpt lat="60.481334" lon="22.261747">
        <ele>24</ele>
        <time>1970-01-01T01:00:00Z</time>
      </trkpt>
      <trkpt lat="60.48121" lon="22.261621">
        <ele>24</ele>
        <time>1970-01-01T01:00:00Z</time>
      </trkpt>
      <trkpt lat="60.480976" lon="22.261538">
        <ele>24</ele>
        <time>1970-01-01T01:00:00Z</time>
      </trkpt>
      <trkpt lat="60.480657" lon="22.261373">
        <ele>24</ele>
        <time>1970-01-01T01:00:00Z</time>
      </trkpt>
      <trkpt lat="60.480318" lon="22.261105">
        <ele>24</ele>
        <time>1970-01-01T01:00:00Z</time>
      </trkpt>
      <trkpt lat="60.480213" lon="22.261035">
        <ele>24</ele>
        <time>1970-01-01T01:00:00Z</time>
      </trkpt>
      <trkpt lat="60.479991" lon="22.260942">
        <ele>24</ele>
        <time>1970-01-01T01:00:00Z</time>
      </trkpt>
      <trkpt lat="60.479794" lon="22.260929">
        <ele>24</ele>
        <time>1970-01-01T01:00:00Z</time>
      </trkpt>
      <trkpt lat="60.479606" lon="22.261007">
        <ele>24</ele>
        <time>1970-01-01T01:00:00Z</time>
      </trkpt>
      <trkpt lat="60.479566" lon="22.261009">
        <ele>24</ele>
        <time>1970-01-01T01:00:00Z</time>
      </trkpt>
    </trkseg>
  </trk>
</gpx>